<?xml version="1.0" encoding="UTF-8" standalone="no" ?>
<gpx xmlns="http://www.topografix.com/GPX/1/1" xmlns:xsi="http://www.w3.org/2001/XMLSchema-instance" xsi:schemaLocation="http://www.topografix.com/GPX/1/1 http://www.topografix.com/GPX/1/1/gpx.xsd" version="1.1" creator="VisuGPX - https://www.visugpx.com">
  <metadata>
    <name>Ducambanderie avec Sonia</name>
    <desc><![CDATA[Une Pastou et une Ténébra tellement en forme que nous avons dû repasser au pas pour calmer le jeu... Nous avons, ensuite, pu reprendre un trot puis un grand galop dans le calme !]]></desc>
  </metadata>
  <trk>
    <name><![CDATA[Ducambanderie avec Sonia]]></name>
    <trkseg>
      <trkpt lat="48.70774" lon="1.75308">
        <ele>173.19999694824</ele>
        <time>2014-03-05T10:50:24.000Z</time>
      </trkpt>
      <trkpt lat="48.7078" lon="1.75299">
        <ele>173.39999389648</ele>
        <time>2014-03-05T10:50:30.000Z</time>
      </trkpt>
      <trkpt lat="48.70787" lon="1.75283">
        <ele>173.39999389648</ele>
        <time>2014-03-05T10:50:40.000Z</time>
      </trkpt>
      <trkpt lat="48.70793" lon="1.75269">
        <ele>173.60000610352</ele>
        <time>2014-03-05T10:50:48.000Z</time>
      </trkpt>
      <trkpt lat="48.70799" lon="1.75256">
        <ele>173.60000610352</ele>
        <time>2014-03-05T10:50:56.000Z</time>
      </trkpt>
      <trkpt lat="48.70804" lon="1.75246">
        <ele>173.60000610352</ele>
        <time>2014-03-05T10:51:02.000Z</time>
      </trkpt>
      <trkpt lat="48.70808" lon="1.75236">
        <ele>173.80000305176</ele>
        <time>2014-03-05T10:51:08.000Z</time>
      </trkpt>
      <trkpt lat="48.70815" lon="1.75221">
        <ele>173.80000305176</ele>
        <time>2014-03-05T10:51:17.000Z</time>
      </trkpt>
      <trkpt lat="48.70817" lon="1.75213">
        <ele>173.80000305176</ele>
        <time>2014-03-05T10:51:21.000Z</time>
      </trkpt>
      <trkpt lat="48.7082" lon="1.75208">
        <ele>173.80000305176</ele>
        <time>2014-03-05T10:51:24.000Z</time>
      </trkpt>
      <trkpt lat="48.70824" lon="1.75196">
        <ele>173.80000305176</ele>
        <time>2014-03-05T10:51:31.000Z</time>
      </trkpt>
      <trkpt lat="48.70828" lon="1.75185">
        <ele>174</ele>
        <time>2014-03-05T10:51:38.000Z</time>
      </trkpt>
      <trkpt lat="48.70832" lon="1.75175">
        <ele>174</ele>
        <time>2014-03-05T10:51:44.000Z</time>
      </trkpt>
      <trkpt lat="48.70835" lon="1.7517">
        <ele>174</ele>
        <time>2014-03-05T10:51:47.000Z</time>
      </trkpt>
      <trkpt lat="48.70839" lon="1.75161">
        <ele>174</ele>
        <time>2014-03-05T10:51:53.000Z</time>
      </trkpt>
      <trkpt lat="48.7084" lon="1.75161">
        <ele>174</ele>
        <time>2014-03-05T10:51:54.000Z</time>
      </trkpt>
      <trkpt lat="48.70845" lon="1.75148">
        <ele>174.19999694824</ele>
        <time>2014-03-05T10:52:01.000Z</time>
      </trkpt>
      <trkpt lat="48.70848" lon="1.75139">
        <ele>174.19999694824</ele>
        <time>2014-03-05T10:52:06.000Z</time>
      </trkpt>
      <trkpt lat="48.70852" lon="1.75132">
        <ele>174.19999694824</ele>
        <time>2014-03-05T10:52:10.000Z</time>
      </trkpt>
      <trkpt lat="48.70858" lon="1.75118">
        <ele>174.19999694824</ele>
        <time>2014-03-05T10:52:18.000Z</time>
      </trkpt>
      <trkpt lat="48.70863" lon="1.75108">
        <ele>174.19999694824</ele>
        <time>2014-03-05T10:52:24.000Z</time>
      </trkpt>
      <trkpt lat="48.70868" lon="1.75097">
        <ele>174</ele>
        <time>2014-03-05T10:52:31.000Z</time>
      </trkpt>
      <trkpt lat="48.70873" lon="1.75085">
        <ele>174</ele>
        <time>2014-03-05T10:52:37.000Z</time>
      </trkpt>
      <trkpt lat="48.70878" lon="1.75073">
        <ele>174.19999694824</ele>
        <time>2014-03-05T10:52:44.000Z</time>
      </trkpt>
      <trkpt lat="48.70882" lon="1.75063">
        <ele>174.19999694824</ele>
        <time>2014-03-05T10:52:49.000Z</time>
      </trkpt>
      <trkpt lat="48.70889" lon="1.75047">
        <ele>174.39999389648</ele>
        <time>2014-03-05T10:52:58.000Z</time>
      </trkpt>
      <trkpt lat="48.70892" lon="1.7504">
        <ele>174.60000610352</ele>
        <time>2014-03-05T10:53:02.000Z</time>
      </trkpt>
      <trkpt lat="48.70896" lon="1.75034">
        <ele>174.60000610352</ele>
        <time>2014-03-05T10:53:06.000Z</time>
      </trkpt>
      <trkpt lat="48.70898" lon="1.7503">
        <ele>174.60000610352</ele>
        <time>2014-03-05T10:53:08.000Z</time>
      </trkpt>
      <trkpt lat="48.70902" lon="1.7502">
        <ele>174.80000305176</ele>
        <time>2014-03-05T10:53:14.000Z</time>
      </trkpt>
      <trkpt lat="48.70904" lon="1.75017">
        <ele>174.80000305176</ele>
        <time>2014-03-05T10:53:16.000Z</time>
      </trkpt>
      <trkpt lat="48.70909" lon="1.75006">
        <ele>175</ele>
        <time>2014-03-05T10:53:23.000Z</time>
      </trkpt>
      <trkpt lat="48.70919" lon="1.74984">
        <ele>175</ele>
        <time>2014-03-05T10:53:35.000Z</time>
      </trkpt>
      <trkpt lat="48.70927" lon="1.74969">
        <ele>175.39999389648</ele>
        <time>2014-03-05T10:53:44.000Z</time>
      </trkpt>
      <trkpt lat="48.70933" lon="1.74957">
        <ele>175.60000610352</ele>
        <time>2014-03-05T10:53:51.000Z</time>
      </trkpt>
      <trkpt lat="48.70938" lon="1.74947">
        <ele>176</ele>
        <time>2014-03-05T10:53:57.000Z</time>
      </trkpt>
      <trkpt lat="48.70943" lon="1.74938">
        <ele>176.19999694824</ele>
        <time>2014-03-05T10:54:03.000Z</time>
      </trkpt>
      <trkpt lat="48.70948" lon="1.74932">
        <ele>176.39999389648</ele>
        <time>2014-03-05T10:54:08.000Z</time>
      </trkpt>
      <trkpt lat="48.70954" lon="1.74923">
        <ele>176.80000305176</ele>
        <time>2014-03-05T10:54:15.000Z</time>
      </trkpt>
      <trkpt lat="48.70958" lon="1.74916">
        <ele>177</ele>
        <time>2014-03-05T10:54:19.000Z</time>
      </trkpt>
      <trkpt lat="48.70968" lon="1.74905">
        <ele>177.60000610352</ele>
        <time>2014-03-05T10:54:28.000Z</time>
      </trkpt>
      <trkpt lat="48.70974" lon="1.74898">
        <ele>178</ele>
        <time>2014-03-05T10:54:34.000Z</time>
      </trkpt>
      <trkpt lat="48.70976" lon="1.74896">
        <ele>178</ele>
        <time>2014-03-05T10:54:36.000Z</time>
      </trkpt>
      <trkpt lat="48.70981" lon="1.74887">
        <ele>178.39999389648</ele>
        <time>2014-03-05T10:54:42.000Z</time>
      </trkpt>
      <trkpt lat="48.70986" lon="1.7488">
        <ele>178.60000610352</ele>
        <time>2014-03-05T10:54:47.000Z</time>
      </trkpt>
      <trkpt lat="48.70993" lon="1.74871">
        <ele>178.80000305176</ele>
        <time>2014-03-05T10:54:53.000Z</time>
      </trkpt>
      <trkpt lat="48.71" lon="1.74864">
        <ele>179</ele>
        <time>2014-03-05T10:55:00.000Z</time>
      </trkpt>
      <trkpt lat="48.71" lon="1.74866">
        <ele>179</ele>
        <time>2014-03-05T10:55:02.000Z</time>
      </trkpt>
      <trkpt lat="48.70999" lon="1.74869">
        <ele>179</ele>
        <time>2014-03-05T10:55:07.000Z</time>
      </trkpt>
      <trkpt lat="48.71006" lon="1.74855">
        <ele>178.60000610352</ele>
        <time>2014-03-05T10:55:36.000Z</time>
      </trkpt>
      <trkpt lat="48.71009" lon="1.74852">
        <ele>178.60000610352</ele>
        <time>2014-03-05T10:55:40.000Z</time>
      </trkpt>
      <trkpt lat="48.7101" lon="1.74853">
        <ele>178.39999389648</ele>
        <time>2014-03-05T10:55:44.000Z</time>
      </trkpt>
      <trkpt lat="48.71001" lon="1.74819">
        <ele>178.80000305176</ele>
        <time>2014-03-05T10:56:14.000Z</time>
      </trkpt>
      <trkpt lat="48.70992" lon="1.74804">
        <ele>178.60000610352</ele>
        <time>2014-03-05T10:56:21.000Z</time>
      </trkpt>
      <trkpt lat="48.70984" lon="1.74794">
        <ele>178.39999389648</ele>
        <time>2014-03-05T10:56:28.000Z</time>
      </trkpt>
      <trkpt lat="48.70974" lon="1.74782">
        <ele>178.19999694824</ele>
        <time>2014-03-05T10:56:37.000Z</time>
      </trkpt>
      <trkpt lat="48.70967" lon="1.74775">
        <ele>178.19999694824</ele>
        <time>2014-03-05T10:56:43.000Z</time>
      </trkpt>
      <trkpt lat="48.7096" lon="1.74767">
        <ele>178.19999694824</ele>
        <time>2014-03-05T10:56:49.000Z</time>
      </trkpt>
      <trkpt lat="48.70953" lon="1.74763">
        <ele>178</ele>
        <time>2014-03-05T10:56:55.000Z</time>
      </trkpt>
      <trkpt lat="48.70948" lon="1.74756">
        <ele>178</ele>
        <time>2014-03-05T10:57:01.000Z</time>
      </trkpt>
      <trkpt lat="48.70944" lon="1.74751">
        <ele>178</ele>
        <time>2014-03-05T10:57:05.000Z</time>
      </trkpt>
      <trkpt lat="48.70938" lon="1.74742">
        <ele>177.80000305176</ele>
        <time>2014-03-05T10:57:11.000Z</time>
      </trkpt>
      <trkpt lat="48.70935" lon="1.74738">
        <ele>177.80000305176</ele>
        <time>2014-03-05T10:57:14.000Z</time>
      </trkpt>
      <trkpt lat="48.70928" lon="1.74731">
        <ele>177.60000610352</ele>
        <time>2014-03-05T10:57:21.000Z</time>
      </trkpt>
      <trkpt lat="48.70923" lon="1.74724">
        <ele>177.39999389648</ele>
        <time>2014-03-05T10:57:27.000Z</time>
      </trkpt>
      <trkpt lat="48.70916" lon="1.74712">
        <ele>177.19999694824</ele>
        <time>2014-03-05T10:57:35.000Z</time>
      </trkpt>
      <trkpt lat="48.7091" lon="1.74703">
        <ele>177</ele>
        <time>2014-03-05T10:57:41.000Z</time>
      </trkpt>
      <trkpt lat="48.70903" lon="1.74694">
        <ele>176.80000305176</ele>
        <time>2014-03-05T10:57:48.000Z</time>
      </trkpt>
      <trkpt lat="48.70897" lon="1.74687">
        <ele>176.60000610352</ele>
        <time>2014-03-05T10:57:54.000Z</time>
      </trkpt>
      <trkpt lat="48.70895" lon="1.74685">
        <ele>176.60000610352</ele>
        <time>2014-03-05T10:57:56.000Z</time>
      </trkpt>
      <trkpt lat="48.70891" lon="1.74679">
        <ele>176.39999389648</ele>
        <time>2014-03-05T10:58:00.000Z</time>
      </trkpt>
      <trkpt lat="48.70883" lon="1.74667">
        <ele>176</ele>
        <time>2014-03-05T10:58:08.000Z</time>
      </trkpt>
      <trkpt lat="48.70872" lon="1.74653">
        <ele>176</ele>
        <time>2014-03-05T10:58:19.000Z</time>
      </trkpt>
      <trkpt lat="48.70864" lon="1.74643">
        <ele>175.80000305176</ele>
        <time>2014-03-05T10:58:27.000Z</time>
      </trkpt>
      <trkpt lat="48.70853" lon="1.74629">
        <ele>175.80000305176</ele>
        <time>2014-03-05T10:58:37.000Z</time>
      </trkpt>
      <trkpt lat="48.7085" lon="1.74625">
        <ele>175.80000305176</ele>
        <time>2014-03-05T10:58:40.000Z</time>
      </trkpt>
      <trkpt lat="48.70848" lon="1.74622">
        <ele>176</ele>
        <time>2014-03-05T10:58:42.000Z</time>
      </trkpt>
      <trkpt lat="48.70842" lon="1.74614">
        <ele>176</ele>
        <time>2014-03-05T10:58:48.000Z</time>
      </trkpt>
      <trkpt lat="48.70832" lon="1.74599">
        <ele>176</ele>
        <time>2014-03-05T10:58:58.000Z</time>
      </trkpt>
      <trkpt lat="48.70827" lon="1.74592">
        <ele>176</ele>
        <time>2014-03-05T10:59:03.000Z</time>
      </trkpt>
      <trkpt lat="48.70817" lon="1.74578">
        <ele>176.19999694824</ele>
        <time>2014-03-05T10:59:13.000Z</time>
      </trkpt>
      <trkpt lat="48.7081" lon="1.74569">
        <ele>176.19999694824</ele>
        <time>2014-03-05T10:59:20.000Z</time>
      </trkpt>
      <trkpt lat="48.70805" lon="1.74563">
        <ele>176.39999389648</ele>
        <time>2014-03-05T10:59:25.000Z</time>
      </trkpt>
      <trkpt lat="48.70801" lon="1.74558">
        <ele>176.39999389648</ele>
        <time>2014-03-05T10:59:30.000Z</time>
      </trkpt>
      <trkpt lat="48.70796" lon="1.74552">
        <ele>176.39999389648</ele>
        <time>2014-03-05T10:59:35.000Z</time>
      </trkpt>
      <trkpt lat="48.7079" lon="1.74546">
        <ele>176.60000610352</ele>
        <time>2014-03-05T10:59:41.000Z</time>
      </trkpt>
      <trkpt lat="48.70782" lon="1.74538">
        <ele>176.60000610352</ele>
        <time>2014-03-05T10:59:49.000Z</time>
      </trkpt>
      <trkpt lat="48.70775" lon="1.74529">
        <ele>176.60000610352</ele>
        <time>2014-03-05T10:59:56.000Z</time>
      </trkpt>
      <trkpt lat="48.70766" lon="1.74517">
        <ele>176.80000305176</ele>
        <time>2014-03-05T11:00:05.000Z</time>
      </trkpt>
      <trkpt lat="48.70761" lon="1.7451">
        <ele>176.80000305176</ele>
        <time>2014-03-05T11:00:10.000Z</time>
      </trkpt>
      <trkpt lat="48.70753" lon="1.745">
        <ele>177</ele>
        <time>2014-03-05T11:00:18.000Z</time>
      </trkpt>
      <trkpt lat="48.70744" lon="1.7449">
        <ele>177.39999389648</ele>
        <time>2014-03-05T11:00:27.000Z</time>
      </trkpt>
      <trkpt lat="48.70734" lon="1.74479">
        <ele>177.80000305176</ele>
        <time>2014-03-05T11:00:36.000Z</time>
      </trkpt>
      <trkpt lat="48.70733" lon="1.74477">
        <ele>177.80000305176</ele>
        <time>2014-03-05T11:00:37.000Z</time>
      </trkpt>
      <trkpt lat="48.70731" lon="1.74473">
        <ele>178</ele>
        <time>2014-03-05T11:00:42.000Z</time>
      </trkpt>
      <trkpt lat="48.7073" lon="1.7446">
        <ele>178.19999694824</ele>
        <time>2014-03-05T11:00:56.000Z</time>
      </trkpt>
      <trkpt lat="48.70732" lon="1.74459">
        <ele>178.19999694824</ele>
        <time>2014-03-05T11:01:00.000Z</time>
      </trkpt>
      <trkpt lat="48.70764" lon="1.74436">
        <ele>177.39999389648</ele>
        <time>2014-03-05T11:01:44.000Z</time>
      </trkpt>
      <trkpt lat="48.70772" lon="1.74431">
        <ele>177.39999389648</ele>
        <time>2014-03-05T11:01:50.000Z</time>
      </trkpt>
      <trkpt lat="48.70774" lon="1.74429">
        <ele>177.39999389648</ele>
        <time>2014-03-05T11:01:52.000Z</time>
      </trkpt>
      <trkpt lat="48.70778" lon="1.74424">
        <ele>177.19999694824</ele>
        <time>2014-03-05T11:01:57.000Z</time>
      </trkpt>
      <trkpt lat="48.70779" lon="1.74423">
        <ele>177.19999694824</ele>
        <time>2014-03-05T11:01:58.000Z</time>
      </trkpt>
      <trkpt lat="48.70788" lon="1.74417">
        <ele>177</ele>
        <time>2014-03-05T11:02:07.000Z</time>
      </trkpt>
      <trkpt lat="48.70792" lon="1.74415">
        <ele>177</ele>
        <time>2014-03-05T11:02:10.000Z</time>
      </trkpt>
      <trkpt lat="48.70797" lon="1.74413">
        <ele>177</ele>
        <time>2014-03-05T11:02:14.000Z</time>
      </trkpt>
      <trkpt lat="48.70806" lon="1.74407">
        <ele>176.80000305176</ele>
        <time>2014-03-05T11:02:22.000Z</time>
      </trkpt>
      <trkpt lat="48.70821" lon="1.74397">
        <ele>176.60000610352</ele>
        <time>2014-03-05T11:02:34.000Z</time>
      </trkpt>
      <trkpt lat="48.70828" lon="1.74392">
        <ele>176.39999389648</ele>
        <time>2014-03-05T11:02:40.000Z</time>
      </trkpt>
      <trkpt lat="48.7083" lon="1.74389">
        <ele>176.39999389648</ele>
        <time>2014-03-05T11:02:45.000Z</time>
      </trkpt>
      <trkpt lat="48.70839" lon="1.74374">
        <ele>176.39999389648</ele>
        <time>2014-03-05T11:02:54.000Z</time>
      </trkpt>
      <trkpt lat="48.70845" lon="1.74365">
        <ele>176.39999389648</ele>
        <time>2014-03-05T11:03:00.000Z</time>
      </trkpt>
      <trkpt lat="48.70852" lon="1.74352">
        <ele>176.60000610352</ele>
        <time>2014-03-05T11:03:08.000Z</time>
      </trkpt>
      <trkpt lat="48.70861" lon="1.74339">
        <ele>176.60000610352</ele>
        <time>2014-03-05T11:03:17.000Z</time>
      </trkpt>
      <trkpt lat="48.70866" lon="1.74329">
        <ele>176.80000305176</ele>
        <time>2014-03-05T11:03:23.000Z</time>
      </trkpt>
      <trkpt lat="48.7087" lon="1.74318">
        <ele>177.19999694824</ele>
        <time>2014-03-05T11:03:29.000Z</time>
      </trkpt>
      <trkpt lat="48.70874" lon="1.74311">
        <ele>177.60000610352</ele>
        <time>2014-03-05T11:03:35.000Z</time>
      </trkpt>
      <trkpt lat="48.70878" lon="1.743">
        <ele>178</ele>
        <time>2014-03-05T11:03:40.000Z</time>
      </trkpt>
      <trkpt lat="48.70879" lon="1.74299">
        <ele>178.19999694824</ele>
        <time>2014-03-05T11:03:41.000Z</time>
      </trkpt>
      <trkpt lat="48.70883" lon="1.74292">
        <ele>178.39999389648</ele>
        <time>2014-03-05T11:03:46.000Z</time>
      </trkpt>
      <trkpt lat="48.70883" lon="1.7429">
        <ele>178.60000610352</ele>
        <time>2014-03-05T11:03:47.000Z</time>
      </trkpt>
      <trkpt lat="48.70886" lon="1.74281">
        <ele>179</ele>
        <time>2014-03-05T11:03:53.000Z</time>
      </trkpt>
      <trkpt lat="48.70889" lon="1.74276">
        <ele>179.39999389648</ele>
        <time>2014-03-05T11:03:57.000Z</time>
      </trkpt>
      <trkpt lat="48.70891" lon="1.74273">
        <ele>179.60000610352</ele>
        <time>2014-03-05T11:03:59.000Z</time>
      </trkpt>
      <trkpt lat="48.70897" lon="1.74263">
        <ele>180</ele>
        <time>2014-03-05T11:04:06.000Z</time>
      </trkpt>
      <trkpt lat="48.70899" lon="1.74261">
        <ele>180.19999694824</ele>
        <time>2014-03-05T11:04:08.000Z</time>
      </trkpt>
      <trkpt lat="48.70901" lon="1.74256">
        <ele>180.39999389648</ele>
        <time>2014-03-05T11:04:14.000Z</time>
      </trkpt>
      <trkpt lat="48.70903" lon="1.74254">
        <ele>180.60000610352</ele>
        <time>2014-03-05T11:04:18.000Z</time>
      </trkpt>
      <trkpt lat="48.70904" lon="1.74255">
        <ele>180.60000610352</ele>
        <time>2014-03-05T11:04:22.000Z</time>
      </trkpt>
      <trkpt lat="48.70904" lon="1.74228">
        <ele>181.39999389648</ele>
        <time>2014-03-05T11:05:30.000Z</time>
      </trkpt>
      <trkpt lat="48.70906" lon="1.74217">
        <ele>181.80000305176</ele>
        <time>2014-03-05T11:05:36.000Z</time>
      </trkpt>
      <trkpt lat="48.70907" lon="1.74203">
        <ele>182</ele>
        <time>2014-03-05T11:05:43.000Z</time>
      </trkpt>
      <trkpt lat="48.70908" lon="1.74197">
        <ele>182.19999694824</ele>
        <time>2014-03-05T11:05:47.000Z</time>
      </trkpt>
      <trkpt lat="48.70909" lon="1.74195">
        <ele>182.19999694824</ele>
        <time>2014-03-05T11:05:50.000Z</time>
      </trkpt>
      <trkpt lat="48.70918" lon="1.74176">
        <ele>182.80000305176</ele>
        <time>2014-03-05T11:06:08.000Z</time>
      </trkpt>
      <trkpt lat="48.70922" lon="1.74163">
        <ele>182.80000305176</ele>
        <time>2014-03-05T11:06:14.000Z</time>
      </trkpt>
      <trkpt lat="48.70926" lon="1.74144">
        <ele>182.80000305176</ele>
        <time>2014-03-05T11:06:20.000Z</time>
      </trkpt>
      <trkpt lat="48.70928" lon="1.74133">
        <ele>182.80000305176</ele>
        <time>2014-03-05T11:06:25.000Z</time>
      </trkpt>
      <trkpt lat="48.70929" lon="1.74126">
        <ele>182.60000610352</ele>
        <time>2014-03-05T11:06:29.000Z</time>
      </trkpt>
      <trkpt lat="48.70932" lon="1.74109">
        <ele>182.80000305176</ele>
        <time>2014-03-05T11:06:37.000Z</time>
      </trkpt>
      <trkpt lat="48.70936" lon="1.7409">
        <ele>182.80000305176</ele>
        <time>2014-03-05T11:06:46.000Z</time>
      </trkpt>
      <trkpt lat="48.70936" lon="1.74088">
        <ele>182.80000305176</ele>
        <time>2014-03-05T11:06:47.000Z</time>
      </trkpt>
      <trkpt lat="48.70938" lon="1.74076">
        <ele>182.80000305176</ele>
        <time>2014-03-05T11:06:53.000Z</time>
      </trkpt>
      <trkpt lat="48.7094" lon="1.74066">
        <ele>182.80000305176</ele>
        <time>2014-03-05T11:06:58.000Z</time>
      </trkpt>
      <trkpt lat="48.70943" lon="1.7405">
        <ele>182.60000610352</ele>
        <time>2014-03-05T11:07:06.000Z</time>
      </trkpt>
      <trkpt lat="48.70949" lon="1.74044">
        <ele>182.60000610352</ele>
        <time>2014-03-05T11:07:12.000Z</time>
      </trkpt>
      <trkpt lat="48.70953" lon="1.74035">
        <ele>182.60000610352</ele>
        <time>2014-03-05T11:07:18.000Z</time>
      </trkpt>
      <trkpt lat="48.70957" lon="1.74024">
        <ele>182.60000610352</ele>
        <time>2014-03-05T11:07:24.000Z</time>
      </trkpt>
      <trkpt lat="48.70959" lon="1.74011">
        <ele>182.39999389648</ele>
        <time>2014-03-05T11:07:30.000Z</time>
      </trkpt>
      <trkpt lat="48.70961" lon="1.74001">
        <ele>182.39999389648</ele>
        <time>2014-03-05T11:07:35.000Z</time>
      </trkpt>
      <trkpt lat="48.70963" lon="1.73988">
        <ele>182.60000610352</ele>
        <time>2014-03-05T11:07:42.000Z</time>
      </trkpt>
      <trkpt lat="48.70964" lon="1.73985">
        <ele>182.80000305176</ele>
        <time>2014-03-05T11:07:44.000Z</time>
      </trkpt>
      <trkpt lat="48.70965" lon="1.73979">
        <ele>182.80000305176</ele>
        <time>2014-03-05T11:07:47.000Z</time>
      </trkpt>
      <trkpt lat="48.70965" lon="1.7397">
        <ele>183</ele>
        <time>2014-03-05T11:07:51.000Z</time>
      </trkpt>
      <trkpt lat="48.70965" lon="1.73965">
        <ele>183.19999694824</ele>
        <time>2014-03-05T11:07:54.000Z</time>
      </trkpt>
      <trkpt lat="48.70965" lon="1.73963">
        <ele>183.19999694824</ele>
        <time>2014-03-05T11:07:58.000Z</time>
      </trkpt>
      <trkpt lat="48.7097" lon="1.73947">
        <ele>183.60000610352</ele>
        <time>2014-03-05T11:08:25.000Z</time>
      </trkpt>
      <trkpt lat="48.70972" lon="1.73942">
        <ele>183.80000305176</ele>
        <time>2014-03-05T11:08:29.000Z</time>
      </trkpt>
      <trkpt lat="48.70972" lon="1.73941">
        <ele>183.80000305176</ele>
        <time>2014-03-05T11:08:31.000Z</time>
      </trkpt>
      <trkpt lat="48.70974" lon="1.73931">
        <ele>184</ele>
        <time>2014-03-05T11:08:38.000Z</time>
      </trkpt>
      <trkpt lat="48.70977" lon="1.73914">
        <ele>184.39999389648</ele>
        <time>2014-03-05T11:08:46.000Z</time>
      </trkpt>
      <trkpt lat="48.70981" lon="1.73903">
        <ele>184.19999694824</ele>
        <time>2014-03-05T11:08:52.000Z</time>
      </trkpt>
      <trkpt lat="48.70982" lon="1.73899">
        <ele>184</ele>
        <time>2014-03-05T11:08:55.000Z</time>
      </trkpt>
      <trkpt lat="48.70984" lon="1.7389">
        <ele>184</ele>
        <time>2014-03-05T11:09:00.000Z</time>
      </trkpt>
      <trkpt lat="48.70983" lon="1.73887">
        <ele>183.80000305176</ele>
        <time>2014-03-05T11:09:02.000Z</time>
      </trkpt>
      <trkpt lat="48.70986" lon="1.73877">
        <ele>183.60000610352</ele>
        <time>2014-03-05T11:09:09.000Z</time>
      </trkpt>
      <trkpt lat="48.70989" lon="1.73868">
        <ele>183.39999389648</ele>
        <time>2014-03-05T11:09:15.000Z</time>
      </trkpt>
      <trkpt lat="48.7099" lon="1.7386">
        <ele>183.39999389648</ele>
        <time>2014-03-05T11:09:19.000Z</time>
      </trkpt>
      <trkpt lat="48.70993" lon="1.73847">
        <ele>183</ele>
        <time>2014-03-05T11:09:26.000Z</time>
      </trkpt>
      <trkpt lat="48.70994" lon="1.73844">
        <ele>183</ele>
        <time>2014-03-05T11:09:28.000Z</time>
      </trkpt>
      <trkpt lat="48.70996" lon="1.73829">
        <ele>182.80000305176</ele>
        <time>2014-03-05T11:09:35.000Z</time>
      </trkpt>
      <trkpt lat="48.70997" lon="1.73824">
        <ele>182.60000610352</ele>
        <time>2014-03-05T11:09:38.000Z</time>
      </trkpt>
      <trkpt lat="48.71" lon="1.73811">
        <ele>182.39999389648</ele>
        <time>2014-03-05T11:09:44.000Z</time>
      </trkpt>
      <trkpt lat="48.71" lon="1.73806">
        <ele>182.39999389648</ele>
        <time>2014-03-05T11:09:46.000Z</time>
      </trkpt>
      <trkpt lat="48.7101" lon="1.73796">
        <ele>182.19999694824</ele>
        <time>2014-03-05T11:09:56.000Z</time>
      </trkpt>
      <trkpt lat="48.71019" lon="1.73789">
        <ele>182</ele>
        <time>2014-03-05T11:10:05.000Z</time>
      </trkpt>
      <trkpt lat="48.71025" lon="1.73785">
        <ele>182</ele>
        <time>2014-03-05T11:10:11.000Z</time>
      </trkpt>
      <trkpt lat="48.71029" lon="1.73778">
        <ele>182</ele>
        <time>2014-03-05T11:10:17.000Z</time>
      </trkpt>
      <trkpt lat="48.71034" lon="1.73771">
        <ele>182</ele>
        <time>2014-03-05T11:10:23.000Z</time>
      </trkpt>
      <trkpt lat="48.71035" lon="1.7377">
        <ele>182</ele>
        <time>2014-03-05T11:10:24.000Z</time>
      </trkpt>
      <trkpt lat="48.71042" lon="1.73758">
        <ele>182</ele>
        <time>2014-03-05T11:10:32.000Z</time>
      </trkpt>
      <trkpt lat="48.71048" lon="1.73749">
        <ele>182.19999694824</ele>
        <time>2014-03-05T11:10:39.000Z</time>
      </trkpt>
      <trkpt lat="48.71054" lon="1.73743">
        <ele>182</ele>
        <time>2014-03-05T11:10:45.000Z</time>
      </trkpt>
      <trkpt lat="48.71056" lon="1.73741">
        <ele>182</ele>
        <time>2014-03-05T11:10:48.000Z</time>
      </trkpt>
      <trkpt lat="48.71064" lon="1.73734">
        <ele>181.80000305176</ele>
        <time>2014-03-05T11:10:56.000Z</time>
      </trkpt>
      <trkpt lat="48.7107" lon="1.73731">
        <ele>181.80000305176</ele>
        <time>2014-03-05T11:11:01.000Z</time>
      </trkpt>
      <trkpt lat="48.71077" lon="1.73728">
        <ele>181.80000305176</ele>
        <time>2014-03-05T11:11:07.000Z</time>
      </trkpt>
      <trkpt lat="48.71083" lon="1.73721">
        <ele>181.60000610352</ele>
        <time>2014-03-05T11:11:13.000Z</time>
      </trkpt>
      <trkpt lat="48.7109" lon="1.73713">
        <ele>181.39999389648</ele>
        <time>2014-03-05T11:11:20.000Z</time>
      </trkpt>
      <trkpt lat="48.71096" lon="1.73705">
        <ele>181.19999694824</ele>
        <time>2014-03-05T11:11:26.000Z</time>
      </trkpt>
      <trkpt lat="48.71097" lon="1.73704">
        <ele>181.19999694824</ele>
        <time>2014-03-05T11:11:27.000Z</time>
      </trkpt>
      <trkpt lat="48.71106" lon="1.73696">
        <ele>181.19999694824</ele>
        <time>2014-03-05T11:11:35.000Z</time>
      </trkpt>
      <trkpt lat="48.71113" lon="1.73688">
        <ele>181.19999694824</ele>
        <time>2014-03-05T11:11:42.000Z</time>
      </trkpt>
      <trkpt lat="48.71123" lon="1.7368">
        <ele>181.19999694824</ele>
        <time>2014-03-05T11:11:50.000Z</time>
      </trkpt>
      <trkpt lat="48.7113" lon="1.73671">
        <ele>181.39999389648</ele>
        <time>2014-03-05T11:11:57.000Z</time>
      </trkpt>
      <trkpt lat="48.71137" lon="1.73663">
        <ele>181.39999389648</ele>
        <time>2014-03-05T11:12:03.000Z</time>
      </trkpt>
      <trkpt lat="48.7114" lon="1.73661">
        <ele>181.60000610352</ele>
        <time>2014-03-05T11:12:05.000Z</time>
      </trkpt>
      <trkpt lat="48.71148" lon="1.73654">
        <ele>181.60000610352</ele>
        <time>2014-03-05T11:12:12.000Z</time>
      </trkpt>
      <trkpt lat="48.71155" lon="1.73647">
        <ele>181.80000305176</ele>
        <time>2014-03-05T11:12:18.000Z</time>
      </trkpt>
      <trkpt lat="48.71157" lon="1.73645">
        <ele>181.80000305176</ele>
        <time>2014-03-05T11:12:20.000Z</time>
      </trkpt>
      <trkpt lat="48.71166" lon="1.73639">
        <ele>182</ele>
        <time>2014-03-05T11:12:28.000Z</time>
      </trkpt>
      <trkpt lat="48.71173" lon="1.73631">
        <ele>181.80000305176</ele>
        <time>2014-03-05T11:12:35.000Z</time>
      </trkpt>
      <trkpt lat="48.71182" lon="1.73624">
        <ele>182</ele>
        <time>2014-03-05T11:12:41.000Z</time>
      </trkpt>
      <trkpt lat="48.71184" lon="1.73622">
        <ele>182</ele>
        <time>2014-03-05T11:12:43.000Z</time>
      </trkpt>
      <trkpt lat="48.71188" lon="1.73617">
        <ele>182</ele>
        <time>2014-03-05T11:12:47.000Z</time>
      </trkpt>
      <trkpt lat="48.71196" lon="1.73605">
        <ele>182.19999694824</ele>
        <time>2014-03-05T11:12:56.000Z</time>
      </trkpt>
      <trkpt lat="48.71204" lon="1.73604">
        <ele>182.39999389648</ele>
        <time>2014-03-05T11:13:01.000Z</time>
      </trkpt>
      <trkpt lat="48.71213" lon="1.73612">
        <ele>182.80000305176</ele>
        <time>2014-03-05T11:13:09.000Z</time>
      </trkpt>
      <trkpt lat="48.71221" lon="1.73613">
        <ele>183.19999694824</ele>
        <time>2014-03-05T11:13:16.000Z</time>
      </trkpt>
      <trkpt lat="48.71229" lon="1.73613">
        <ele>183.39999389648</ele>
        <time>2014-03-05T11:13:22.000Z</time>
      </trkpt>
      <trkpt lat="48.7124" lon="1.73615">
        <ele>183.80000305176</ele>
        <time>2014-03-05T11:13:30.000Z</time>
      </trkpt>
      <trkpt lat="48.71242" lon="1.73616">
        <ele>184</ele>
        <time>2014-03-05T11:13:32.000Z</time>
      </trkpt>
      <trkpt lat="48.71247" lon="1.73616">
        <ele>184</ele>
        <time>2014-03-05T11:13:36.000Z</time>
      </trkpt>
      <trkpt lat="48.71258" lon="1.73614">
        <ele>183</ele>
        <time>2014-03-05T11:13:45.000Z</time>
      </trkpt>
      <trkpt lat="48.71262" lon="1.73613">
        <ele>182.19999694824</ele>
        <time>2014-03-05T11:13:49.000Z</time>
      </trkpt>
      <trkpt lat="48.71268" lon="1.73611">
        <ele>181.19999694824</ele>
        <time>2014-03-05T11:13:54.000Z</time>
      </trkpt>
      <trkpt lat="48.71276" lon="1.73604">
        <ele>180</ele>
        <time>2014-03-05T11:14:01.000Z</time>
      </trkpt>
      <trkpt lat="48.71283" lon="1.73595">
        <ele>179.19999694824</ele>
        <time>2014-03-05T11:14:08.000Z</time>
      </trkpt>
      <trkpt lat="48.71288" lon="1.73584">
        <ele>178.60000610352</ele>
        <time>2014-03-05T11:14:15.000Z</time>
      </trkpt>
      <trkpt lat="48.71291" lon="1.73578">
        <ele>178.19999694824</ele>
        <time>2014-03-05T11:14:19.000Z</time>
      </trkpt>
      <trkpt lat="48.71295" lon="1.73566">
        <ele>177.80000305176</ele>
        <time>2014-03-05T11:14:27.000Z</time>
      </trkpt>
      <trkpt lat="48.71296" lon="1.73564">
        <ele>177.80000305176</ele>
        <time>2014-03-05T11:14:30.000Z</time>
      </trkpt>
      <trkpt lat="48.71299" lon="1.73555">
        <ele>177.60000610352</ele>
        <time>2014-03-05T11:14:50.000Z</time>
      </trkpt>
      <trkpt lat="48.71299" lon="1.73548">
        <ele>177.80000305176</ele>
        <time>2014-03-05T11:14:53.000Z</time>
      </trkpt>
      <trkpt lat="48.71303" lon="1.73543">
        <ele>177.39999389648</ele>
        <time>2014-03-05T11:14:57.000Z</time>
      </trkpt>
      <trkpt lat="48.71305" lon="1.73541">
        <ele>177.19999694824</ele>
        <time>2014-03-05T11:15:00.000Z</time>
      </trkpt>
      <trkpt lat="48.71312" lon="1.7354">
        <ele>176.39999389648</ele>
        <time>2014-03-05T11:15:07.000Z</time>
      </trkpt>
      <trkpt lat="48.71322" lon="1.73532">
        <ele>175.80000305176</ele>
        <time>2014-03-05T11:15:16.000Z</time>
      </trkpt>
      <trkpt lat="48.71328" lon="1.73529">
        <ele>175.39999389648</ele>
        <time>2014-03-05T11:15:21.000Z</time>
      </trkpt>
      <trkpt lat="48.71333" lon="1.73527">
        <ele>175</ele>
        <time>2014-03-05T11:15:25.000Z</time>
      </trkpt>
      <trkpt lat="48.71342" lon="1.73535">
        <ele>173.39999389648</ele>
        <time>2014-03-05T11:15:32.000Z</time>
      </trkpt>
      <trkpt lat="48.71347" lon="1.73539">
        <ele>172.60000610352</ele>
        <time>2014-03-05T11:15:35.000Z</time>
      </trkpt>
      <trkpt lat="48.71351" lon="1.73546">
        <ele>171.60000610352</ele>
        <time>2014-03-05T11:15:40.000Z</time>
      </trkpt>
      <trkpt lat="48.71352" lon="1.73547">
        <ele>171.39999389648</ele>
        <time>2014-03-05T11:15:41.000Z</time>
      </trkpt>
      <trkpt lat="48.7136" lon="1.73552">
        <ele>170.19999694824</ele>
        <time>2014-03-05T11:15:47.000Z</time>
      </trkpt>
      <trkpt lat="48.71368" lon="1.73558">
        <ele>168.80000305176</ele>
        <time>2014-03-05T11:15:55.000Z</time>
      </trkpt>
      <trkpt lat="48.71373" lon="1.73563">
        <ele>167.80000305176</ele>
        <time>2014-03-05T11:16:00.000Z</time>
      </trkpt>
      <trkpt lat="48.71382" lon="1.7357">
        <ele>166.60000610352</ele>
        <time>2014-03-05T11:16:07.000Z</time>
      </trkpt>
      <trkpt lat="48.71384" lon="1.73572">
        <ele>166.19999694824</ele>
        <time>2014-03-05T11:16:09.000Z</time>
      </trkpt>
      <trkpt lat="48.71391" lon="1.73572">
        <ele>165.39999389648</ele>
        <time>2014-03-05T11:16:15.000Z</time>
      </trkpt>
      <trkpt lat="48.71397" lon="1.73572">
        <ele>164.80000305176</ele>
        <time>2014-03-05T11:16:20.000Z</time>
      </trkpt>
      <trkpt lat="48.71401" lon="1.73574">
        <ele>164.19999694824</ele>
        <time>2014-03-05T11:16:23.000Z</time>
      </trkpt>
      <trkpt lat="48.71411" lon="1.73571">
        <ele>163.19999694824</ele>
        <time>2014-03-05T11:16:30.000Z</time>
      </trkpt>
      <trkpt lat="48.71418" lon="1.73567">
        <ele>162.60000610352</ele>
        <time>2014-03-05T11:16:36.000Z</time>
      </trkpt>
      <trkpt lat="48.71428" lon="1.73561">
        <ele>161.80000305176</ele>
        <time>2014-03-05T11:16:44.000Z</time>
      </trkpt>
      <trkpt lat="48.71429" lon="1.73561">
        <ele>161.80000305176</ele>
        <time>2014-03-05T11:16:45.000Z</time>
      </trkpt>
      <trkpt lat="48.71436" lon="1.73557">
        <ele>161</ele>
        <time>2014-03-05T11:16:51.000Z</time>
      </trkpt>
      <trkpt lat="48.71441" lon="1.73556">
        <ele>160.60000610352</ele>
        <time>2014-03-05T11:16:55.000Z</time>
      </trkpt>
      <trkpt lat="48.71451" lon="1.73551">
        <ele>159.60000610352</ele>
        <time>2014-03-05T11:17:02.000Z</time>
      </trkpt>
      <trkpt lat="48.71459" lon="1.73551">
        <ele>158.60000610352</ele>
        <time>2014-03-05T11:17:08.000Z</time>
      </trkpt>
      <trkpt lat="48.7146" lon="1.73552">
        <ele>158.39999389648</ele>
        <time>2014-03-05T11:17:10.000Z</time>
      </trkpt>
      <trkpt lat="48.71469" lon="1.73556">
        <ele>157.39999389648</ele>
        <time>2014-03-05T11:17:18.000Z</time>
      </trkpt>
      <trkpt lat="48.7148" lon="1.73555">
        <ele>156.19999694824</ele>
        <time>2014-03-05T11:17:25.000Z</time>
      </trkpt>
      <trkpt lat="48.71488" lon="1.73551">
        <ele>155.19999694824</ele>
        <time>2014-03-05T11:17:30.000Z</time>
      </trkpt>
      <trkpt lat="48.71497" lon="1.73548">
        <ele>154.19999694824</ele>
        <time>2014-03-05T11:17:36.000Z</time>
      </trkpt>
      <trkpt lat="48.71507" lon="1.73546">
        <ele>153</ele>
        <time>2014-03-05T11:17:43.000Z</time>
      </trkpt>
      <trkpt lat="48.71518" lon="1.73546">
        <ele>151.60000610352</ele>
        <time>2014-03-05T11:17:51.000Z</time>
      </trkpt>
      <trkpt lat="48.71522" lon="1.73545">
        <ele>151.19999694824</ele>
        <time>2014-03-05T11:17:54.000Z</time>
      </trkpt>
      <trkpt lat="48.71527" lon="1.73546">
        <ele>150.60000610352</ele>
        <time>2014-03-05T11:17:58.000Z</time>
      </trkpt>
      <trkpt lat="48.71539" lon="1.73545">
        <ele>149.39999389648</ele>
        <time>2014-03-05T11:18:05.000Z</time>
      </trkpt>
      <trkpt lat="48.71549" lon="1.73543">
        <ele>148.19999694824</ele>
        <time>2014-03-05T11:18:13.000Z</time>
      </trkpt>
      <trkpt lat="48.71558" lon="1.73542">
        <ele>147.19999694824</ele>
        <time>2014-03-05T11:18:19.000Z</time>
      </trkpt>
      <trkpt lat="48.7156" lon="1.73542">
        <ele>147</ele>
        <time>2014-03-05T11:18:21.000Z</time>
      </trkpt>
      <trkpt lat="48.71566" lon="1.73538">
        <ele>146.19999694824</ele>
        <time>2014-03-05T11:18:27.000Z</time>
      </trkpt>
      <trkpt lat="48.71574" lon="1.73536">
        <ele>145.39999389648</ele>
        <time>2014-03-05T11:18:33.000Z</time>
      </trkpt>
      <trkpt lat="48.71579" lon="1.73534">
        <ele>144.80000305176</ele>
        <time>2014-03-05T11:18:36.000Z</time>
      </trkpt>
      <trkpt lat="48.71593" lon="1.73529">
        <ele>143.80000305176</ele>
        <time>2014-03-05T11:18:45.000Z</time>
      </trkpt>
      <trkpt lat="48.71603" lon="1.73526">
        <ele>143.19999694824</ele>
        <time>2014-03-05T11:18:52.000Z</time>
      </trkpt>
      <trkpt lat="48.71612" lon="1.73525">
        <ele>142.80000305176</ele>
        <time>2014-03-05T11:18:58.000Z</time>
      </trkpt>
      <trkpt lat="48.71622" lon="1.73521">
        <ele>142.19999694824</ele>
        <time>2014-03-05T11:19:05.000Z</time>
      </trkpt>
      <trkpt lat="48.71631" lon="1.73515">
        <ele>141.80000305176</ele>
        <time>2014-03-05T11:19:12.000Z</time>
      </trkpt>
      <trkpt lat="48.71645" lon="1.73514">
        <ele>141</ele>
        <time>2014-03-05T11:19:21.000Z</time>
      </trkpt>
      <trkpt lat="48.71658" lon="1.73513">
        <ele>140.39999389648</ele>
        <time>2014-03-05T11:19:30.000Z</time>
      </trkpt>
      <trkpt lat="48.71662" lon="1.73511">
        <ele>140.19999694824</ele>
        <time>2014-03-05T11:19:33.000Z</time>
      </trkpt>
      <trkpt lat="48.71669" lon="1.73509">
        <ele>140</ele>
        <time>2014-03-05T11:19:39.000Z</time>
      </trkpt>
      <trkpt lat="48.71672" lon="1.73508">
        <ele>139.80000305176</ele>
        <time>2014-03-05T11:19:41.000Z</time>
      </trkpt>
      <trkpt lat="48.71678" lon="1.73508">
        <ele>139.60000610352</ele>
        <time>2014-03-05T11:19:46.000Z</time>
      </trkpt>
      <trkpt lat="48.71689" lon="1.73507">
        <ele>139.19999694824</ele>
        <time>2014-03-05T11:19:54.000Z</time>
      </trkpt>
      <trkpt lat="48.71699" lon="1.73505">
        <ele>138.80000305176</ele>
        <time>2014-03-05T11:20:01.000Z</time>
      </trkpt>
      <trkpt lat="48.71709" lon="1.73503">
        <ele>138.60000610352</ele>
        <time>2014-03-05T11:20:08.000Z</time>
      </trkpt>
      <trkpt lat="48.71719" lon="1.73499">
        <ele>138.19999694824</ele>
        <time>2014-03-05T11:20:12.000Z</time>
      </trkpt>
      <trkpt lat="48.71727" lon="1.73498">
        <ele>137.80000305176</ele>
        <time>2014-03-05T11:20:16.000Z</time>
      </trkpt>
      <trkpt lat="48.71732" lon="1.73496">
        <ele>137.60000610352</ele>
        <time>2014-03-05T11:20:20.000Z</time>
      </trkpt>
      <trkpt lat="48.71743" lon="1.7349">
        <ele>137.19999694824</ele>
        <time>2014-03-05T11:20:28.000Z</time>
      </trkpt>
      <trkpt lat="48.7175" lon="1.73487">
        <ele>137</ele>
        <time>2014-03-05T11:20:34.000Z</time>
      </trkpt>
      <trkpt lat="48.7175" lon="1.73488">
        <ele>137</ele>
        <time>2014-03-05T11:20:35.000Z</time>
      </trkpt>
      <trkpt lat="48.71755" lon="1.73481">
        <ele>136.80000305176</ele>
        <time>2014-03-05T11:20:46.000Z</time>
      </trkpt>
      <trkpt lat="48.71752" lon="1.73461">
        <ele>136.80000305176</ele>
        <time>2014-03-05T11:20:50.000Z</time>
      </trkpt>
      <trkpt lat="48.71748" lon="1.73443">
        <ele>137</ele>
        <time>2014-03-05T11:20:55.000Z</time>
      </trkpt>
      <trkpt lat="48.71744" lon="1.73424">
        <ele>137.19999694824</ele>
        <time>2014-03-05T11:21:03.000Z</time>
      </trkpt>
      <trkpt lat="48.71741" lon="1.73413">
        <ele>137.19999694824</ele>
        <time>2014-03-05T11:21:09.000Z</time>
      </trkpt>
      <trkpt lat="48.71736" lon="1.73396">
        <ele>137</ele>
        <time>2014-03-05T11:21:17.000Z</time>
      </trkpt>
      <trkpt lat="48.71732" lon="1.7338">
        <ele>136.80000305176</ele>
        <time>2014-03-05T11:21:25.000Z</time>
      </trkpt>
      <trkpt lat="48.71727" lon="1.73368">
        <ele>136.60000610352</ele>
        <time>2014-03-05T11:21:31.000Z</time>
      </trkpt>
      <trkpt lat="48.71723" lon="1.73356">
        <ele>136.60000610352</ele>
        <time>2014-03-05T11:21:37.000Z</time>
      </trkpt>
      <trkpt lat="48.71719" lon="1.73341">
        <ele>136.19999694824</ele>
        <time>2014-03-05T11:21:44.000Z</time>
      </trkpt>
      <trkpt lat="48.71716" lon="1.73326">
        <ele>136.19999694824</ele>
        <time>2014-03-05T11:21:51.000Z</time>
      </trkpt>
      <trkpt lat="48.71714" lon="1.73314">
        <ele>136.19999694824</ele>
        <time>2014-03-05T11:21:57.000Z</time>
      </trkpt>
      <trkpt lat="48.71711" lon="1.73298">
        <ele>136.19999694824</ele>
        <time>2014-03-05T11:22:05.000Z</time>
      </trkpt>
      <trkpt lat="48.7171" lon="1.73293">
        <ele>136.19999694824</ele>
        <time>2014-03-05T11:22:07.000Z</time>
      </trkpt>
      <trkpt lat="48.71708" lon="1.73271">
        <ele>136.19999694824</ele>
        <time>2014-03-05T11:22:16.000Z</time>
      </trkpt>
      <trkpt lat="48.71706" lon="1.73253">
        <ele>136.19999694824</ele>
        <time>2014-03-05T11:22:25.000Z</time>
      </trkpt>
      <trkpt lat="48.71704" lon="1.73238">
        <ele>136.19999694824</ele>
        <time>2014-03-05T11:22:31.000Z</time>
      </trkpt>
      <trkpt lat="48.71704" lon="1.73234">
        <ele>136.19999694824</ele>
        <time>2014-03-05T11:22:33.000Z</time>
      </trkpt>
      <trkpt lat="48.71699" lon="1.73223">
        <ele>136.19999694824</ele>
        <time>2014-03-05T11:22:39.000Z</time>
      </trkpt>
      <trkpt lat="48.71696" lon="1.73203">
        <ele>136.19999694824</ele>
        <time>2014-03-05T11:22:44.000Z</time>
      </trkpt>
      <trkpt lat="48.71694" lon="1.73185">
        <ele>136.19999694824</ele>
        <time>2014-03-05T11:22:48.000Z</time>
      </trkpt>
      <trkpt lat="48.71691" lon="1.73169">
        <ele>136.19999694824</ele>
        <time>2014-03-05T11:22:54.000Z</time>
      </trkpt>
      <trkpt lat="48.71691" lon="1.73157">
        <ele>136.39999389648</ele>
        <time>2014-03-05T11:23:00.000Z</time>
      </trkpt>
      <trkpt lat="48.71688" lon="1.73143">
        <ele>136.80000305176</ele>
        <time>2014-03-05T11:23:07.000Z</time>
      </trkpt>
      <trkpt lat="48.71686" lon="1.73132">
        <ele>137</ele>
        <time>2014-03-05T11:23:12.000Z</time>
      </trkpt>
      <trkpt lat="48.71684" lon="1.73116">
        <ele>137.39999389648</ele>
        <time>2014-03-05T11:23:20.000Z</time>
      </trkpt>
      <trkpt lat="48.71682" lon="1.73099">
        <ele>138</ele>
        <time>2014-03-05T11:23:28.000Z</time>
      </trkpt>
      <trkpt lat="48.7168" lon="1.73082">
        <ele>138.39999389648</ele>
        <time>2014-03-05T11:23:37.000Z</time>
      </trkpt>
      <trkpt lat="48.71677" lon="1.73068">
        <ele>138.19999694824</ele>
        <time>2014-03-05T11:23:44.000Z</time>
      </trkpt>
      <trkpt lat="48.71675" lon="1.73048">
        <ele>138.19999694824</ele>
        <time>2014-03-05T11:23:54.000Z</time>
      </trkpt>
      <trkpt lat="48.71673" lon="1.73031">
        <ele>138</ele>
        <time>2014-03-05T11:24:02.000Z</time>
      </trkpt>
      <trkpt lat="48.71671" lon="1.73011">
        <ele>137.80000305176</ele>
        <time>2014-03-05T11:24:09.000Z</time>
      </trkpt>
      <trkpt lat="48.71667" lon="1.72991">
        <ele>137.80000305176</ele>
        <time>2014-03-05T11:24:14.000Z</time>
      </trkpt>
      <trkpt lat="48.71665" lon="1.72984">
        <ele>138</ele>
        <time>2014-03-05T11:24:17.000Z</time>
      </trkpt>
      <trkpt lat="48.71663" lon="1.72982">
        <ele>138</ele>
        <time>2014-03-05T11:24:19.000Z</time>
      </trkpt>
      <trkpt lat="48.71657" lon="1.72967">
        <ele>138</ele>
        <time>2014-03-05T11:24:28.000Z</time>
      </trkpt>
      <trkpt lat="48.71656" lon="1.72961">
        <ele>138</ele>
        <time>2014-03-05T11:24:31.000Z</time>
      </trkpt>
      <trkpt lat="48.71651" lon="1.7295">
        <ele>138.19999694824</ele>
        <time>2014-03-05T11:24:38.000Z</time>
      </trkpt>
      <trkpt lat="48.71649" lon="1.72949">
        <ele>138.19999694824</ele>
        <time>2014-03-05T11:24:39.000Z</time>
      </trkpt>
      <trkpt lat="48.71642" lon="1.72932">
        <ele>138.39999389648</ele>
        <time>2014-03-05T11:24:45.000Z</time>
      </trkpt>
      <trkpt lat="48.71633" lon="1.72912">
        <ele>138.60000610352</ele>
        <time>2014-03-05T11:24:50.000Z</time>
      </trkpt>
      <trkpt lat="48.71624" lon="1.72891">
        <ele>138.80000305176</ele>
        <time>2014-03-05T11:24:55.000Z</time>
      </trkpt>
      <trkpt lat="48.71614" lon="1.72869">
        <ele>139.19999694824</ele>
        <time>2014-03-05T11:25:00.000Z</time>
      </trkpt>
      <trkpt lat="48.71605" lon="1.7285">
        <ele>139.39999389648</ele>
        <time>2014-03-05T11:25:04.000Z</time>
      </trkpt>
      <trkpt lat="48.71592" lon="1.72826">
        <ele>139.80000305176</ele>
        <time>2014-03-05T11:25:09.000Z</time>
      </trkpt>
      <trkpt lat="48.71581" lon="1.72804">
        <ele>140.39999389648</ele>
        <time>2014-03-05T11:25:14.000Z</time>
      </trkpt>
      <trkpt lat="48.71568" lon="1.72772">
        <ele>141.60000610352</ele>
        <time>2014-03-05T11:25:21.000Z</time>
      </trkpt>
      <trkpt lat="48.71559" lon="1.72749">
        <ele>142.39999389648</ele>
        <time>2014-03-05T11:25:26.000Z</time>
      </trkpt>
      <trkpt lat="48.71543" lon="1.72718">
        <ele>142.80000305176</ele>
        <time>2014-03-05T11:25:33.000Z</time>
      </trkpt>
      <trkpt lat="48.71533" lon="1.72695">
        <ele>143</ele>
        <time>2014-03-05T11:25:38.000Z</time>
      </trkpt>
      <trkpt lat="48.71519" lon="1.72651">
        <ele>142.60000610352</ele>
        <time>2014-03-05T11:25:46.000Z</time>
      </trkpt>
      <trkpt lat="48.71512" lon="1.72628">
        <ele>142.60000610352</ele>
        <time>2014-03-05T11:25:50.000Z</time>
      </trkpt>
      <trkpt lat="48.71506" lon="1.72585">
        <ele>141.80000305176</ele>
        <time>2014-03-05T11:25:57.000Z</time>
      </trkpt>
      <trkpt lat="48.71505" lon="1.72573">
        <ele>141.60000610352</ele>
        <time>2014-03-05T11:25:59.000Z</time>
      </trkpt>
      <trkpt lat="48.715" lon="1.7254">
        <ele>141.60000610352</ele>
        <time>2014-03-05T11:26:04.000Z</time>
      </trkpt>
      <trkpt lat="48.71494" lon="1.72487">
        <ele>141</ele>
        <time>2014-03-05T11:26:12.000Z</time>
      </trkpt>
      <trkpt lat="48.7149" lon="1.72439">
        <ele>140.19999694824</ele>
        <time>2014-03-05T11:26:19.000Z</time>
      </trkpt>
      <trkpt lat="48.71486" lon="1.72394">
        <ele>139.60000610352</ele>
        <time>2014-03-05T11:26:26.000Z</time>
      </trkpt>
      <trkpt lat="48.71486" lon="1.72353">
        <ele>139</ele>
        <time>2014-03-05T11:26:32.000Z</time>
      </trkpt>
      <trkpt lat="48.71485" lon="1.72319">
        <ele>138.80000305176</ele>
        <time>2014-03-05T11:26:37.000Z</time>
      </trkpt>
      <trkpt lat="48.71486" lon="1.72305">
        <ele>138.60000610352</ele>
        <time>2014-03-05T11:26:39.000Z</time>
      </trkpt>
      <trkpt lat="48.71482" lon="1.72262">
        <ele>138.39999389648</ele>
        <time>2014-03-05T11:26:46.000Z</time>
      </trkpt>
      <trkpt lat="48.71478" lon="1.72246">
        <ele>138.60000610352</ele>
        <time>2014-03-05T11:26:50.000Z</time>
      </trkpt>
      <trkpt lat="48.71472" lon="1.72231">
        <ele>139.39999389648</ele>
        <time>2014-03-05T11:26:55.000Z</time>
      </trkpt>
      <trkpt lat="48.71468" lon="1.72218">
        <ele>140.19999694824</ele>
        <time>2014-03-05T11:27:00.000Z</time>
      </trkpt>
      <trkpt lat="48.71464" lon="1.72206">
        <ele>140.80000305176</ele>
        <time>2014-03-05T11:27:06.000Z</time>
      </trkpt>
      <trkpt lat="48.71458" lon="1.72197">
        <ele>141.60000610352</ele>
        <time>2014-03-05T11:27:12.000Z</time>
      </trkpt>
      <trkpt lat="48.71448" lon="1.72188">
        <ele>142.80000305176</ele>
        <time>2014-03-05T11:27:19.000Z</time>
      </trkpt>
      <trkpt lat="48.7144" lon="1.72176">
        <ele>144.19999694824</ele>
        <time>2014-03-05T11:27:28.000Z</time>
      </trkpt>
      <trkpt lat="48.71433" lon="1.7216">
        <ele>145</ele>
        <time>2014-03-05T11:27:34.000Z</time>
      </trkpt>
      <trkpt lat="48.7143" lon="1.72138">
        <ele>144.39999389648</ele>
        <time>2014-03-05T11:27:42.000Z</time>
      </trkpt>
      <trkpt lat="48.71427" lon="1.72123">
        <ele>144</ele>
        <time>2014-03-05T11:27:48.000Z</time>
      </trkpt>
      <trkpt lat="48.71423" lon="1.72108">
        <ele>143.80000305176</ele>
        <time>2014-03-05T11:27:54.000Z</time>
      </trkpt>
      <trkpt lat="48.71419" lon="1.72099">
        <ele>143.60000610352</ele>
        <time>2014-03-05T11:27:59.000Z</time>
      </trkpt>
      <trkpt lat="48.71418" lon="1.72097">
        <ele>143.60000610352</ele>
        <time>2014-03-05T11:28:00.000Z</time>
      </trkpt>
      <trkpt lat="48.71416" lon="1.72084">
        <ele>143.19999694824</ele>
        <time>2014-03-05T11:28:07.000Z</time>
      </trkpt>
      <trkpt lat="48.71415" lon="1.72081">
        <ele>143.19999694824</ele>
        <time>2014-03-05T11:28:08.000Z</time>
      </trkpt>
      <trkpt lat="48.71406" lon="1.72059">
        <ele>144.39999389648</ele>
        <time>2014-03-05T11:28:14.000Z</time>
      </trkpt>
      <trkpt lat="48.71394" lon="1.72041">
        <ele>145.60000610352</ele>
        <time>2014-03-05T11:28:19.000Z</time>
      </trkpt>
      <trkpt lat="48.71373" lon="1.72017">
        <ele>146.39999389648</ele>
        <time>2014-03-05T11:28:26.000Z</time>
      </trkpt>
      <trkpt lat="48.71354" lon="1.71999">
        <ele>146.19999694824</ele>
        <time>2014-03-05T11:28:32.000Z</time>
      </trkpt>
      <trkpt lat="48.71337" lon="1.71979">
        <ele>147.39999389648</ele>
        <time>2014-03-05T11:28:38.000Z</time>
      </trkpt>
      <trkpt lat="48.71322" lon="1.71963">
        <ele>149</ele>
        <time>2014-03-05T11:28:43.000Z</time>
      </trkpt>
      <trkpt lat="48.71313" lon="1.71945">
        <ele>150.60000610352</ele>
        <time>2014-03-05T11:28:47.000Z</time>
      </trkpt>
      <trkpt lat="48.71313" lon="1.71922">
        <ele>151.19999694824</ele>
        <time>2014-03-05T11:28:51.000Z</time>
      </trkpt>
      <trkpt lat="48.71314" lon="1.71902">
        <ele>151.19999694824</ele>
        <time>2014-03-05T11:28:55.000Z</time>
      </trkpt>
      <trkpt lat="48.71316" lon="1.71881">
        <ele>151.39999389648</ele>
        <time>2014-03-05T11:28:59.000Z</time>
      </trkpt>
      <trkpt lat="48.71322" lon="1.71862">
        <ele>151</ele>
        <time>2014-03-05T11:29:03.000Z</time>
      </trkpt>
      <trkpt lat="48.71327" lon="1.71844">
        <ele>150.60000610352</ele>
        <time>2014-03-05T11:29:07.000Z</time>
      </trkpt>
      <trkpt lat="48.71326" lon="1.71815">
        <ele>150.19999694824</ele>
        <time>2014-03-05T11:29:12.000Z</time>
      </trkpt>
      <trkpt lat="48.71323" lon="1.7179">
        <ele>149.39999389648</ele>
        <time>2014-03-05T11:29:16.000Z</time>
      </trkpt>
      <trkpt lat="48.71322" lon="1.71778">
        <ele>149.19999694824</ele>
        <time>2014-03-05T11:29:18.000Z</time>
      </trkpt>
      <trkpt lat="48.71318" lon="1.7174">
        <ele>148</ele>
        <time>2014-03-05T11:29:24.000Z</time>
      </trkpt>
      <trkpt lat="48.71318" lon="1.71702">
        <ele>147.39999389648</ele>
        <time>2014-03-05T11:29:30.000Z</time>
      </trkpt>
      <trkpt lat="48.71317" lon="1.71661">
        <ele>146.60000610352</ele>
        <time>2014-03-05T11:29:37.000Z</time>
      </trkpt>
      <trkpt lat="48.71317" lon="1.71631">
        <ele>145.60000610352</ele>
        <time>2014-03-05T11:29:43.000Z</time>
      </trkpt>
      <trkpt lat="48.71315" lon="1.71595">
        <ele>144.39999389648</ele>
        <time>2014-03-05T11:29:49.000Z</time>
      </trkpt>
      <trkpt lat="48.71315" lon="1.71568">
        <ele>143.80000305176</ele>
        <time>2014-03-05T11:29:53.000Z</time>
      </trkpt>
      <trkpt lat="48.71312" lon="1.71531">
        <ele>143.39999389648</ele>
        <time>2014-03-05T11:29:59.000Z</time>
      </trkpt>
      <trkpt lat="48.71312" lon="1.7149">
        <ele>143</ele>
        <time>2014-03-05T11:30:07.000Z</time>
      </trkpt>
      <trkpt lat="48.7131" lon="1.71484">
        <ele>143</ele>
        <time>2014-03-05T11:30:10.000Z</time>
      </trkpt>
      <trkpt lat="48.71307" lon="1.71468">
        <ele>143</ele>
        <time>2014-03-05T11:30:17.000Z</time>
      </trkpt>
      <trkpt lat="48.71304" lon="1.71452">
        <ele>143</ele>
        <time>2014-03-05T11:30:22.000Z</time>
      </trkpt>
      <trkpt lat="48.71298" lon="1.71416">
        <ele>143.19999694824</ele>
        <time>2014-03-05T11:30:28.000Z</time>
      </trkpt>
      <trkpt lat="48.71294" lon="1.71368">
        <ele>142.60000610352</ele>
        <time>2014-03-05T11:30:36.000Z</time>
      </trkpt>
      <trkpt lat="48.71292" lon="1.71356">
        <ele>142.39999389648</ele>
        <time>2014-03-05T11:30:38.000Z</time>
      </trkpt>
      <trkpt lat="48.71288" lon="1.71343">
        <ele>142.39999389648</ele>
        <time>2014-03-05T11:30:40.000Z</time>
      </trkpt>
      <trkpt lat="48.71285" lon="1.71309">
        <ele>142</ele>
        <time>2014-03-05T11:30:45.000Z</time>
      </trkpt>
      <trkpt lat="48.71277" lon="1.71268">
        <ele>141.60000610352</ele>
        <time>2014-03-05T11:30:51.000Z</time>
      </trkpt>
      <trkpt lat="48.71275" lon="1.71229">
        <ele>141.39999389648</ele>
        <time>2014-03-05T11:30:56.000Z</time>
      </trkpt>
      <trkpt lat="48.71275" lon="1.71204">
        <ele>141.19999694824</ele>
        <time>2014-03-05T11:30:59.000Z</time>
      </trkpt>
      <trkpt lat="48.71274" lon="1.71172">
        <ele>141.19999694824</ele>
        <time>2014-03-05T11:31:03.000Z</time>
      </trkpt>
      <trkpt lat="48.71271" lon="1.71158">
        <ele>141.19999694824</ele>
        <time>2014-03-05T11:31:05.000Z</time>
      </trkpt>
      <trkpt lat="48.71261" lon="1.71124">
        <ele>141.60000610352</ele>
        <time>2014-03-05T11:31:10.000Z</time>
      </trkpt>
      <trkpt lat="48.71256" lon="1.71109">
        <ele>141.80000305176</ele>
        <time>2014-03-05T11:31:13.000Z</time>
      </trkpt>
      <trkpt lat="48.71244" lon="1.71085">
        <ele>142.60000610352</ele>
        <time>2014-03-05T11:31:19.000Z</time>
      </trkpt>
      <trkpt lat="48.71239" lon="1.71074">
        <ele>143.19999694824</ele>
        <time>2014-03-05T11:31:24.000Z</time>
      </trkpt>
      <trkpt lat="48.71232" lon="1.71057">
        <ele>143.80000305176</ele>
        <time>2014-03-05T11:31:32.000Z</time>
      </trkpt>
      <trkpt lat="48.71224" lon="1.71042">
        <ele>144.60000610352</ele>
        <time>2014-03-05T11:31:40.000Z</time>
      </trkpt>
      <trkpt lat="48.71215" lon="1.71019">
        <ele>145.19999694824</ele>
        <time>2014-03-05T11:31:50.000Z</time>
      </trkpt>
      <trkpt lat="48.71212" lon="1.71005">
        <ele>145.19999694824</ele>
        <time>2014-03-05T11:31:55.000Z</time>
      </trkpt>
      <trkpt lat="48.71211" lon="1.70985">
        <ele>145.60000610352</ele>
        <time>2014-03-05T11:32:03.000Z</time>
      </trkpt>
      <trkpt lat="48.7121" lon="1.70978">
        <ele>145.80000305176</ele>
        <time>2014-03-05T11:32:08.000Z</time>
      </trkpt>
      <trkpt lat="48.7121" lon="1.70962">
        <ele>146</ele>
        <time>2014-03-05T11:32:47.000Z</time>
      </trkpt>
      <trkpt lat="48.7121" lon="1.70954">
        <ele>146.19999694824</ele>
        <time>2014-03-05T11:32:49.000Z</time>
      </trkpt>
      <trkpt lat="48.71209" lon="1.70941">
        <ele>146.60000610352</ele>
        <time>2014-03-05T11:32:56.000Z</time>
      </trkpt>
      <trkpt lat="48.71208" lon="1.7094">
        <ele>146.60000610352</ele>
        <time>2014-03-05T11:33:00.000Z</time>
      </trkpt>
      <trkpt lat="48.71206" lon="1.70933">
        <ele>147</ele>
        <time>2014-03-05T11:33:08.000Z</time>
      </trkpt>
      <trkpt lat="48.71207" lon="1.70917">
        <ele>147.19999694824</ele>
        <time>2014-03-05T11:33:14.000Z</time>
      </trkpt>
      <trkpt lat="48.71208" lon="1.70915">
        <ele>147.19999694824</ele>
        <time>2014-03-05T11:33:15.000Z</time>
      </trkpt>
      <trkpt lat="48.71207" lon="1.70901">
        <ele>147.80000305176</ele>
        <time>2014-03-05T11:33:21.000Z</time>
      </trkpt>
      <trkpt lat="48.7121" lon="1.70892">
        <ele>148</ele>
        <time>2014-03-05T11:33:25.000Z</time>
      </trkpt>
      <trkpt lat="48.71209" lon="1.70885">
        <ele>148.39999389648</ele>
        <time>2014-03-05T11:33:28.000Z</time>
      </trkpt>
      <trkpt lat="48.71209" lon="1.70874">
        <ele>149</ele>
        <time>2014-03-05T11:33:33.000Z</time>
      </trkpt>
      <trkpt lat="48.71211" lon="1.7086">
        <ele>149.60000610352</ele>
        <time>2014-03-05T11:33:39.000Z</time>
      </trkpt>
      <trkpt lat="48.71214" lon="1.70847">
        <ele>149.80000305176</ele>
        <time>2014-03-05T11:33:45.000Z</time>
      </trkpt>
      <trkpt lat="48.71218" lon="1.70835">
        <ele>150</ele>
        <time>2014-03-05T11:33:51.000Z</time>
      </trkpt>
      <trkpt lat="48.7122" lon="1.70824">
        <ele>149.80000305176</ele>
        <time>2014-03-05T11:33:56.000Z</time>
      </trkpt>
      <trkpt lat="48.7122" lon="1.70802">
        <ele>149.60000610352</ele>
        <time>2014-03-05T11:34:06.000Z</time>
      </trkpt>
      <trkpt lat="48.71217" lon="1.70787">
        <ele>149.80000305176</ele>
        <time>2014-03-05T11:34:13.000Z</time>
      </trkpt>
      <trkpt lat="48.71217" lon="1.70782">
        <ele>149.60000610352</ele>
        <time>2014-03-05T11:34:16.000Z</time>
      </trkpt>
      <trkpt lat="48.71216" lon="1.70763">
        <ele>149.60000610352</ele>
        <time>2014-03-05T11:34:25.000Z</time>
      </trkpt>
      <trkpt lat="48.71216" lon="1.70752">
        <ele>149.39999389648</ele>
        <time>2014-03-05T11:34:30.000Z</time>
      </trkpt>
      <trkpt lat="48.71216" lon="1.70737">
        <ele>149.39999389648</ele>
        <time>2014-03-05T11:34:37.000Z</time>
      </trkpt>
      <trkpt lat="48.71218" lon="1.70717">
        <ele>149.19999694824</ele>
        <time>2014-03-05T11:34:46.000Z</time>
      </trkpt>
      <trkpt lat="48.7122" lon="1.70705">
        <ele>149.19999694824</ele>
        <time>2014-03-05T11:34:52.000Z</time>
      </trkpt>
      <trkpt lat="48.71221" lon="1.70695">
        <ele>149.19999694824</ele>
        <time>2014-03-05T11:34:57.000Z</time>
      </trkpt>
      <trkpt lat="48.71221" lon="1.70682">
        <ele>149</ele>
        <time>2014-03-05T11:35:03.000Z</time>
      </trkpt>
      <trkpt lat="48.71222" lon="1.70666">
        <ele>149</ele>
        <time>2014-03-05T11:35:10.000Z</time>
      </trkpt>
      <trkpt lat="48.71222" lon="1.70653">
        <ele>149</ele>
        <time>2014-03-05T11:35:16.000Z</time>
      </trkpt>
      <trkpt lat="48.71219" lon="1.70635">
        <ele>149</ele>
        <time>2014-03-05T11:35:24.000Z</time>
      </trkpt>
      <trkpt lat="48.71217" lon="1.70627">
        <ele>149</ele>
        <time>2014-03-05T11:35:28.000Z</time>
      </trkpt>
      <trkpt lat="48.71217" lon="1.70627">
        <ele>149</ele>
        <time>2014-03-05T11:35:30.000Z</time>
      </trkpt>
      <trkpt lat="48.71217" lon="1.70607">
        <ele>149</ele>
        <time>2014-03-05T11:36:17.000Z</time>
      </trkpt>
      <trkpt lat="48.71214" lon="1.70593">
        <ele>149.19999694824</ele>
        <time>2014-03-05T11:36:22.000Z</time>
      </trkpt>
      <trkpt lat="48.7121" lon="1.7058">
        <ele>149.19999694824</ele>
        <time>2014-03-05T11:36:28.000Z</time>
      </trkpt>
      <trkpt lat="48.71209" lon="1.70578">
        <ele>149.19999694824</ele>
        <time>2014-03-05T11:36:29.000Z</time>
      </trkpt>
      <trkpt lat="48.71205" lon="1.7057">
        <ele>149.39999389648</ele>
        <time>2014-03-05T11:36:34.000Z</time>
      </trkpt>
      <trkpt lat="48.71199" lon="1.7055">
        <ele>149</ele>
        <time>2014-03-05T11:36:43.000Z</time>
      </trkpt>
      <trkpt lat="48.71198" lon="1.70548">
        <ele>149</ele>
        <time>2014-03-05T11:36:44.000Z</time>
      </trkpt>
      <trkpt lat="48.71197" lon="1.70544">
        <ele>149</ele>
        <time>2014-03-05T11:36:49.000Z</time>
      </trkpt>
      <trkpt lat="48.71195" lon="1.70536">
        <ele>149</ele>
        <time>2014-03-05T11:36:59.000Z</time>
      </trkpt>
      <trkpt lat="48.71193" lon="1.70516">
        <ele>148.39999389648</ele>
        <time>2014-03-05T11:37:04.000Z</time>
      </trkpt>
      <trkpt lat="48.71188" lon="1.70487">
        <ele>147.60000610352</ele>
        <time>2014-03-05T11:37:11.000Z</time>
      </trkpt>
      <trkpt lat="48.71175" lon="1.70458">
        <ele>147</ele>
        <time>2014-03-05T11:37:18.000Z</time>
      </trkpt>
      <trkpt lat="48.71166" lon="1.70428">
        <ele>145.60000610352</ele>
        <time>2014-03-05T11:37:24.000Z</time>
      </trkpt>
      <trkpt lat="48.71159" lon="1.70395">
        <ele>145</ele>
        <time>2014-03-05T11:37:30.000Z</time>
      </trkpt>
      <trkpt lat="48.71159" lon="1.70361">
        <ele>145.19999694824</ele>
        <time>2014-03-05T11:37:36.000Z</time>
      </trkpt>
      <trkpt lat="48.71159" lon="1.70336">
        <ele>145.39999389648</ele>
        <time>2014-03-05T11:37:41.000Z</time>
      </trkpt>
      <trkpt lat="48.71158" lon="1.70306">
        <ele>146.19999694824</ele>
        <time>2014-03-05T11:37:47.000Z</time>
      </trkpt>
      <trkpt lat="48.71168" lon="1.70271">
        <ele>146.39999389648</ele>
        <time>2014-03-05T11:37:55.000Z</time>
      </trkpt>
      <trkpt lat="48.71171" lon="1.70253">
        <ele>146.39999389648</ele>
        <time>2014-03-05T11:37:59.000Z</time>
      </trkpt>
      <trkpt lat="48.71178" lon="1.70234">
        <ele>145.80000305176</ele>
        <time>2014-03-05T11:38:03.000Z</time>
      </trkpt>
      <trkpt lat="48.71188" lon="1.7021">
        <ele>144.80000305176</ele>
        <time>2014-03-05T11:38:08.000Z</time>
      </trkpt>
      <trkpt lat="48.71195" lon="1.7018">
        <ele>144.19999694824</ele>
        <time>2014-03-05T11:38:13.000Z</time>
      </trkpt>
      <trkpt lat="48.71197" lon="1.70164">
        <ele>144.19999694824</ele>
        <time>2014-03-05T11:38:16.000Z</time>
      </trkpt>
      <trkpt lat="48.71203" lon="1.70142">
        <ele>144.19999694824</ele>
        <time>2014-03-05T11:38:20.000Z</time>
      </trkpt>
      <trkpt lat="48.71212" lon="1.70097">
        <ele>144.80000305176</ele>
        <time>2014-03-05T11:38:27.000Z</time>
      </trkpt>
      <trkpt lat="48.71213" lon="1.7009">
        <ele>145</ele>
        <time>2014-03-05T11:38:28.000Z</time>
      </trkpt>
      <trkpt lat="48.71215" lon="1.70072">
        <ele>145.19999694824</ele>
        <time>2014-03-05T11:38:31.000Z</time>
      </trkpt>
      <trkpt lat="48.71224" lon="1.70027">
        <ele>145.80000305176</ele>
        <time>2014-03-05T11:38:38.000Z</time>
      </trkpt>
      <trkpt lat="48.71228" lon="1.70008">
        <ele>146</ele>
        <time>2014-03-05T11:38:41.000Z</time>
      </trkpt>
      <trkpt lat="48.71231" lon="1.69967">
        <ele>146.39999389648</ele>
        <time>2014-03-05T11:38:47.000Z</time>
      </trkpt>
      <trkpt lat="48.71231" lon="1.69916">
        <ele>147</ele>
        <time>2014-03-05T11:38:54.000Z</time>
      </trkpt>
      <trkpt lat="48.71233" lon="1.69875">
        <ele>147.19999694824</ele>
        <time>2014-03-05T11:39:00.000Z</time>
      </trkpt>
      <trkpt lat="48.71236" lon="1.69834">
        <ele>147.39999389648</ele>
        <time>2014-03-05T11:39:06.000Z</time>
      </trkpt>
      <trkpt lat="48.71241" lon="1.6979">
        <ele>147.60000610352</ele>
        <time>2014-03-05T11:39:13.000Z</time>
      </trkpt>
      <trkpt lat="48.71248" lon="1.69754">
        <ele>148</ele>
        <time>2014-03-05T11:39:19.000Z</time>
      </trkpt>
      <trkpt lat="48.71256" lon="1.69705">
        <ele>149.39999389648</ele>
        <time>2014-03-05T11:39:27.000Z</time>
      </trkpt>
      <trkpt lat="48.71261" lon="1.69669">
        <ele>150.60000610352</ele>
        <time>2014-03-05T11:39:34.000Z</time>
      </trkpt>
      <trkpt lat="48.71263" lon="1.69661">
        <ele>150.80000305176</ele>
        <time>2014-03-05T11:39:37.000Z</time>
      </trkpt>
      <trkpt lat="48.71269" lon="1.69647">
        <ele>151</ele>
        <time>2014-03-05T11:39:44.000Z</time>
      </trkpt>
      <trkpt lat="48.7127" lon="1.69644">
        <ele>151</ele>
        <time>2014-03-05T11:39:45.000Z</time>
      </trkpt>
      <trkpt lat="48.71272" lon="1.69633">
        <ele>151.19999694824</ele>
        <time>2014-03-05T11:39:50.000Z</time>
      </trkpt>
      <trkpt lat="48.71273" lon="1.69631">
        <ele>151.19999694824</ele>
        <time>2014-03-05T11:39:51.000Z</time>
      </trkpt>
      <trkpt lat="48.71275" lon="1.69613">
        <ele>151.60000610352</ele>
        <time>2014-03-05T11:39:58.000Z</time>
      </trkpt>
      <trkpt lat="48.71276" lon="1.69591">
        <ele>152.19999694824</ele>
        <time>2014-03-05T11:40:07.000Z</time>
      </trkpt>
      <trkpt lat="48.71276" lon="1.69576">
        <ele>152.19999694824</ele>
        <time>2014-03-05T11:40:13.000Z</time>
      </trkpt>
      <trkpt lat="48.71276" lon="1.69563">
        <ele>151.80000305176</ele>
        <time>2014-03-05T11:40:18.000Z</time>
      </trkpt>
      <trkpt lat="48.71276" lon="1.69557">
        <ele>151.60000610352</ele>
        <time>2014-03-05T11:40:20.000Z</time>
      </trkpt>
      <trkpt lat="48.71277" lon="1.69548">
        <ele>151.19999694824</ele>
        <time>2014-03-05T11:40:24.000Z</time>
      </trkpt>
      <trkpt lat="48.71279" lon="1.69537">
        <ele>150.80000305176</ele>
        <time>2014-03-05T11:40:29.000Z</time>
      </trkpt>
      <trkpt lat="48.7128" lon="1.69516">
        <ele>150</ele>
        <time>2014-03-05T11:40:38.000Z</time>
      </trkpt>
      <trkpt lat="48.71283" lon="1.695">
        <ele>149.19999694824</ele>
        <time>2014-03-05T11:40:45.000Z</time>
      </trkpt>
      <trkpt lat="48.71284" lon="1.69489">
        <ele>148.39999389648</ele>
        <time>2014-03-05T11:40:50.000Z</time>
      </trkpt>
      <trkpt lat="48.71288" lon="1.69473">
        <ele>147</ele>
        <time>2014-03-05T11:40:57.000Z</time>
      </trkpt>
      <trkpt lat="48.71289" lon="1.69462">
        <ele>146.19999694824</ele>
        <time>2014-03-05T11:41:03.000Z</time>
      </trkpt>
      <trkpt lat="48.71293" lon="1.69439">
        <ele>144.39999389648</ele>
        <time>2014-03-05T11:41:13.000Z</time>
      </trkpt>
      <trkpt lat="48.71295" lon="1.69421">
        <ele>143.19999694824</ele>
        <time>2014-03-05T11:41:20.000Z</time>
      </trkpt>
      <trkpt lat="48.71301" lon="1.69405">
        <ele>142.19999694824</ele>
        <time>2014-03-05T11:41:28.000Z</time>
      </trkpt>
      <trkpt lat="48.71305" lon="1.69393">
        <ele>141.60000610352</ele>
        <time>2014-03-05T11:41:35.000Z</time>
      </trkpt>
      <trkpt lat="48.71305" lon="1.69388">
        <ele>141.39999389648</ele>
        <time>2014-03-05T11:41:37.000Z</time>
      </trkpt>
      <trkpt lat="48.7131" lon="1.69366">
        <ele>140.39999389648</ele>
        <time>2014-03-05T11:41:47.000Z</time>
      </trkpt>
      <trkpt lat="48.71313" lon="1.69352">
        <ele>139.60000610352</ele>
        <time>2014-03-05T11:41:54.000Z</time>
      </trkpt>
      <trkpt lat="48.71316" lon="1.69336">
        <ele>138.80000305176</ele>
        <time>2014-03-05T11:42:02.000Z</time>
      </trkpt>
      <trkpt lat="48.71318" lon="1.69331">
        <ele>138.39999389648</ele>
        <time>2014-03-05T11:42:05.000Z</time>
      </trkpt>
      <trkpt lat="48.71321" lon="1.69314">
        <ele>138.60000610352</ele>
        <time>2014-03-05T11:42:13.000Z</time>
      </trkpt>
      <trkpt lat="48.71323" lon="1.69299">
        <ele>138.60000610352</ele>
        <time>2014-03-05T11:42:19.000Z</time>
      </trkpt>
      <trkpt lat="48.71325" lon="1.69287">
        <ele>138.80000305176</ele>
        <time>2014-03-05T11:42:25.000Z</time>
      </trkpt>
      <trkpt lat="48.71327" lon="1.69271">
        <ele>139</ele>
        <time>2014-03-05T11:42:33.000Z</time>
      </trkpt>
      <trkpt lat="48.7133" lon="1.69254">
        <ele>139.19999694824</ele>
        <time>2014-03-05T11:42:41.000Z</time>
      </trkpt>
      <trkpt lat="48.71333" lon="1.69235">
        <ele>138.60000610352</ele>
        <time>2014-03-05T11:42:49.000Z</time>
      </trkpt>
      <trkpt lat="48.71334" lon="1.69213">
        <ele>138</ele>
        <time>2014-03-05T11:42:58.000Z</time>
      </trkpt>
      <trkpt lat="48.71333" lon="1.69202">
        <ele>138</ele>
        <time>2014-03-05T11:43:03.000Z</time>
      </trkpt>
      <trkpt lat="48.71331" lon="1.69199">
        <ele>138</ele>
        <time>2014-03-05T11:43:07.000Z</time>
      </trkpt>
      <trkpt lat="48.71343" lon="1.69138">
        <ele>138.39999389648</ele>
        <time>2014-03-05T11:50:37.000Z</time>
      </trkpt>
      <trkpt lat="48.71345" lon="1.69133">
        <ele>138.60000610352</ele>
        <time>2014-03-05T11:50:39.000Z</time>
      </trkpt>
      <trkpt lat="48.71349" lon="1.6912">
        <ele>139.19999694824</ele>
        <time>2014-03-05T11:50:47.000Z</time>
      </trkpt>
      <trkpt lat="48.71352" lon="1.69104">
        <ele>140</ele>
        <time>2014-03-05T11:50:55.000Z</time>
      </trkpt>
      <trkpt lat="48.71359" lon="1.6909">
        <ele>140.19999694824</ele>
        <time>2014-03-05T11:51:05.000Z</time>
      </trkpt>
      <trkpt lat="48.71365" lon="1.69081">
        <ele>140</ele>
        <time>2014-03-05T11:51:12.000Z</time>
      </trkpt>
      <trkpt lat="48.7137" lon="1.69067">
        <ele>140.19999694824</ele>
        <time>2014-03-05T11:51:20.000Z</time>
      </trkpt>
      <trkpt lat="48.71376" lon="1.69057">
        <ele>140</ele>
        <time>2014-03-05T11:51:26.000Z</time>
      </trkpt>
      <trkpt lat="48.71386" lon="1.6904">
        <ele>139.60000610352</ele>
        <time>2014-03-05T11:51:36.000Z</time>
      </trkpt>
      <trkpt lat="48.71392" lon="1.69028">
        <ele>139.19999694824</ele>
        <time>2014-03-05T11:51:43.000Z</time>
      </trkpt>
      <trkpt lat="48.71399" lon="1.69011">
        <ele>139</ele>
        <time>2014-03-05T11:51:52.000Z</time>
      </trkpt>
      <trkpt lat="48.71404" lon="1.69002">
        <ele>138.60000610352</ele>
        <time>2014-03-05T11:51:58.000Z</time>
      </trkpt>
      <trkpt lat="48.71404" lon="1.68992">
        <ele>139</ele>
        <time>2014-03-05T11:52:03.000Z</time>
      </trkpt>
      <trkpt lat="48.71408" lon="1.68979">
        <ele>138.80000305176</ele>
        <time>2014-03-05T11:52:10.000Z</time>
      </trkpt>
      <trkpt lat="48.71417" lon="1.68968">
        <ele>138.19999694824</ele>
        <time>2014-03-05T11:52:18.000Z</time>
      </trkpt>
      <trkpt lat="48.71425" lon="1.68955">
        <ele>137.80000305176</ele>
        <time>2014-03-05T11:52:22.000Z</time>
      </trkpt>
      <trkpt lat="48.7143" lon="1.68943">
        <ele>137.60000610352</ele>
        <time>2014-03-05T11:52:26.000Z</time>
      </trkpt>
      <trkpt lat="48.71432" lon="1.68923">
        <ele>138.19999694824</ele>
        <time>2014-03-05T11:52:35.000Z</time>
      </trkpt>
      <trkpt lat="48.71428" lon="1.68908">
        <ele>139</ele>
        <time>2014-03-05T11:52:41.000Z</time>
      </trkpt>
      <trkpt lat="48.71425" lon="1.68898">
        <ele>139.80000305176</ele>
        <time>2014-03-05T11:52:47.000Z</time>
      </trkpt>
      <trkpt lat="48.71421" lon="1.68891">
        <ele>140.39999389648</ele>
        <time>2014-03-05T11:52:52.000Z</time>
      </trkpt>
      <trkpt lat="48.7142" lon="1.68882">
        <ele>140.80000305176</ele>
        <time>2014-03-05T11:52:57.000Z</time>
      </trkpt>
      <trkpt lat="48.71419" lon="1.68881">
        <ele>141</ele>
        <time>2014-03-05T11:52:58.000Z</time>
      </trkpt>
      <trkpt lat="48.71414" lon="1.68866">
        <ele>142.19999694824</ele>
        <time>2014-03-05T11:53:06.000Z</time>
      </trkpt>
      <trkpt lat="48.71412" lon="1.68859">
        <ele>142.80000305176</ele>
        <time>2014-03-05T11:53:10.000Z</time>
      </trkpt>
      <trkpt lat="48.71409" lon="1.68854">
        <ele>143.39999389648</ele>
        <time>2014-03-05T11:53:14.000Z</time>
      </trkpt>
      <trkpt lat="48.71405" lon="1.68845">
        <ele>144.19999694824</ele>
        <time>2014-03-05T11:53:20.000Z</time>
      </trkpt>
      <trkpt lat="48.71404" lon="1.68843">
        <ele>144.39999389648</ele>
        <time>2014-03-05T11:53:22.000Z</time>
      </trkpt>
      <trkpt lat="48.714" lon="1.68829">
        <ele>145.39999389648</ele>
        <time>2014-03-05T11:53:30.000Z</time>
      </trkpt>
      <trkpt lat="48.71395" lon="1.68818">
        <ele>146.39999389648</ele>
        <time>2014-03-05T11:53:36.000Z</time>
      </trkpt>
      <trkpt lat="48.71394" lon="1.68813">
        <ele>146.80000305176</ele>
        <time>2014-03-05T11:53:39.000Z</time>
      </trkpt>
      <trkpt lat="48.71392" lon="1.68806">
        <ele>147.19999694824</ele>
        <time>2014-03-05T11:53:43.000Z</time>
      </trkpt>
      <trkpt lat="48.71388" lon="1.68793">
        <ele>148</ele>
        <time>2014-03-05T11:53:52.000Z</time>
      </trkpt>
      <trkpt lat="48.71386" lon="1.68786">
        <ele>148.39999389648</ele>
        <time>2014-03-05T11:53:56.000Z</time>
      </trkpt>
      <trkpt lat="48.71381" lon="1.68774">
        <ele>149.39999389648</ele>
        <time>2014-03-05T11:54:03.000Z</time>
      </trkpt>
      <trkpt lat="48.71379" lon="1.68769">
        <ele>149.60000610352</ele>
        <time>2014-03-05T11:54:05.000Z</time>
      </trkpt>
      <trkpt lat="48.71374" lon="1.68756">
        <ele>150.39999389648</ele>
        <time>2014-03-05T11:54:12.000Z</time>
      </trkpt>
      <trkpt lat="48.71368" lon="1.6874">
        <ele>151</ele>
        <time>2014-03-05T11:54:19.000Z</time>
      </trkpt>
      <trkpt lat="48.71363" lon="1.68728">
        <ele>151.39999389648</ele>
        <time>2014-03-05T11:54:23.000Z</time>
      </trkpt>
      <trkpt lat="48.7136" lon="1.68721">
        <ele>151.60000610352</ele>
        <time>2014-03-05T11:54:28.000Z</time>
      </trkpt>
      <trkpt lat="48.71356" lon="1.68705">
        <ele>152</ele>
        <time>2014-03-05T11:54:37.000Z</time>
      </trkpt>
      <trkpt lat="48.71353" lon="1.68696">
        <ele>152.19999694824</ele>
        <time>2014-03-05T11:54:41.000Z</time>
      </trkpt>
      <trkpt lat="48.71349" lon="1.68684">
        <ele>152.39999389648</ele>
        <time>2014-03-05T11:54:48.000Z</time>
      </trkpt>
      <trkpt lat="48.71346" lon="1.68671">
        <ele>152.80000305176</ele>
        <time>2014-03-05T11:54:55.000Z</time>
      </trkpt>
      <trkpt lat="48.71343" lon="1.68664">
        <ele>153</ele>
        <time>2014-03-05T11:54:59.000Z</time>
      </trkpt>
      <trkpt lat="48.71339" lon="1.68651">
        <ele>153</ele>
        <time>2014-03-05T11:55:07.000Z</time>
      </trkpt>
      <trkpt lat="48.71335" lon="1.68636">
        <ele>153.19999694824</ele>
        <time>2014-03-05T11:55:14.000Z</time>
      </trkpt>
      <trkpt lat="48.71333" lon="1.68631">
        <ele>153.19999694824</ele>
        <time>2014-03-05T11:55:17.000Z</time>
      </trkpt>
      <trkpt lat="48.71327" lon="1.68614">
        <ele>153.60000610352</ele>
        <time>2014-03-05T11:55:25.000Z</time>
      </trkpt>
      <trkpt lat="48.71327" lon="1.68598">
        <ele>153.39999389648</ele>
        <time>2014-03-05T11:55:30.000Z</time>
      </trkpt>
      <trkpt lat="48.71325" lon="1.68587">
        <ele>153.19999694824</ele>
        <time>2014-03-05T11:55:36.000Z</time>
      </trkpt>
      <trkpt lat="48.71324" lon="1.68573">
        <ele>153</ele>
        <time>2014-03-05T11:55:44.000Z</time>
      </trkpt>
      <trkpt lat="48.7132" lon="1.68559">
        <ele>153</ele>
        <time>2014-03-05T11:55:51.000Z</time>
      </trkpt>
      <trkpt lat="48.71314" lon="1.68538">
        <ele>153</ele>
        <time>2014-03-05T11:55:59.000Z</time>
      </trkpt>
      <trkpt lat="48.71312" lon="1.68519">
        <ele>152.60000610352</ele>
        <time>2014-03-05T11:56:07.000Z</time>
      </trkpt>
      <trkpt lat="48.71307" lon="1.68506">
        <ele>152.60000610352</ele>
        <time>2014-03-05T11:56:13.000Z</time>
      </trkpt>
      <trkpt lat="48.71305" lon="1.68497">
        <ele>152.60000610352</ele>
        <time>2014-03-05T11:56:17.000Z</time>
      </trkpt>
      <trkpt lat="48.713" lon="1.68481">
        <ele>152.60000610352</ele>
        <time>2014-03-05T11:56:25.000Z</time>
      </trkpt>
      <trkpt lat="48.71297" lon="1.68472">
        <ele>152.80000305176</ele>
        <time>2014-03-05T11:56:30.000Z</time>
      </trkpt>
      <trkpt lat="48.71291" lon="1.68465">
        <ele>153</ele>
        <time>2014-03-05T11:56:35.000Z</time>
      </trkpt>
      <trkpt lat="48.71281" lon="1.68456">
        <ele>153.80000305176</ele>
        <time>2014-03-05T11:56:45.000Z</time>
      </trkpt>
      <trkpt lat="48.71271" lon="1.6845">
        <ele>154.60000610352</ele>
        <time>2014-03-05T11:56:52.000Z</time>
      </trkpt>
      <trkpt lat="48.71265" lon="1.68445">
        <ele>155.19999694824</ele>
        <time>2014-03-05T11:56:58.000Z</time>
      </trkpt>
      <trkpt lat="48.71254" lon="1.68438">
        <ele>155.80000305176</ele>
        <time>2014-03-05T11:57:06.000Z</time>
      </trkpt>
      <trkpt lat="48.7125" lon="1.68437">
        <ele>156.19999694824</ele>
        <time>2014-03-05T11:57:09.000Z</time>
      </trkpt>
      <trkpt lat="48.71246" lon="1.68433">
        <ele>156.39999389648</ele>
        <time>2014-03-05T11:57:13.000Z</time>
      </trkpt>
      <trkpt lat="48.7124" lon="1.6842">
        <ele>156.60000610352</ele>
        <time>2014-03-05T11:57:21.000Z</time>
      </trkpt>
      <trkpt lat="48.71233" lon="1.68402">
        <ele>157</ele>
        <time>2014-03-05T11:57:29.000Z</time>
      </trkpt>
      <trkpt lat="48.71228" lon="1.6839">
        <ele>157.39999389648</ele>
        <time>2014-03-05T11:57:35.000Z</time>
      </trkpt>
      <trkpt lat="48.71223" lon="1.68378">
        <ele>158</ele>
        <time>2014-03-05T11:57:41.000Z</time>
      </trkpt>
      <trkpt lat="48.71217" lon="1.68368">
        <ele>158.60000610352</ele>
        <time>2014-03-05T11:57:48.000Z</time>
      </trkpt>
      <trkpt lat="48.71215" lon="1.68365">
        <ele>159</ele>
        <time>2014-03-05T11:57:50.000Z</time>
      </trkpt>
      <trkpt lat="48.71213" lon="1.68362">
        <ele>159.39999389648</ele>
        <time>2014-03-05T11:57:52.000Z</time>
      </trkpt>
      <trkpt lat="48.71209" lon="1.68352">
        <ele>160</ele>
        <time>2014-03-05T11:57:57.000Z</time>
      </trkpt>
      <trkpt lat="48.71204" lon="1.68342">
        <ele>160.80000305176</ele>
        <time>2014-03-05T11:58:04.000Z</time>
      </trkpt>
      <trkpt lat="48.71202" lon="1.68329">
        <ele>161.19999694824</ele>
        <time>2014-03-05T11:58:09.000Z</time>
      </trkpt>
      <trkpt lat="48.71204" lon="1.68321">
        <ele>161</ele>
        <time>2014-03-05T11:58:14.000Z</time>
      </trkpt>
      <trkpt lat="48.71203" lon="1.68314">
        <ele>161.39999389648</ele>
        <time>2014-03-05T11:58:17.000Z</time>
      </trkpt>
      <trkpt lat="48.71203" lon="1.68308">
        <ele>161.39999389648</ele>
        <time>2014-03-05T11:58:22.000Z</time>
      </trkpt>
      <trkpt lat="48.71202" lon="1.68305">
        <ele>161.60000610352</ele>
        <time>2014-03-05T11:58:24.000Z</time>
      </trkpt>
      <trkpt lat="48.71202" lon="1.68298">
        <ele>161.80000305176</ele>
        <time>2014-03-05T11:58:28.000Z</time>
      </trkpt>
      <trkpt lat="48.71202" lon="1.6829">
        <ele>162</ele>
        <time>2014-03-05T11:58:33.000Z</time>
      </trkpt>
      <trkpt lat="48.71201" lon="1.68277">
        <ele>162.39999389648</ele>
        <time>2014-03-05T11:58:41.000Z</time>
      </trkpt>
      <trkpt lat="48.71199" lon="1.68263">
        <ele>163</ele>
        <time>2014-03-05T11:58:48.000Z</time>
      </trkpt>
      <trkpt lat="48.71198" lon="1.68249">
        <ele>163.39999389648</ele>
        <time>2014-03-05T11:58:55.000Z</time>
      </trkpt>
      <trkpt lat="48.71197" lon="1.68237">
        <ele>163.80000305176</ele>
        <time>2014-03-05T11:59:02.000Z</time>
      </trkpt>
      <trkpt lat="48.71197" lon="1.68235">
        <ele>163.80000305176</ele>
        <time>2014-03-05T11:59:03.000Z</time>
      </trkpt>
      <trkpt lat="48.71196" lon="1.68221">
        <ele>163.80000305176</ele>
        <time>2014-03-05T11:59:09.000Z</time>
      </trkpt>
      <trkpt lat="48.71197" lon="1.68219">
        <ele>163.80000305176</ele>
        <time>2014-03-05T11:59:10.000Z</time>
      </trkpt>
      <trkpt lat="48.71195" lon="1.68201">
        <ele>164.19999694824</ele>
        <time>2014-03-05T11:59:19.000Z</time>
      </trkpt>
      <trkpt lat="48.71196" lon="1.68192">
        <ele>164</ele>
        <time>2014-03-05T11:59:24.000Z</time>
      </trkpt>
      <trkpt lat="48.71196" lon="1.68178">
        <ele>164</ele>
        <time>2014-03-05T11:59:28.000Z</time>
      </trkpt>
      <trkpt lat="48.71192" lon="1.68165">
        <ele>164.80000305176</ele>
        <time>2014-03-05T11:59:36.000Z</time>
      </trkpt>
      <trkpt lat="48.7119" lon="1.6816">
        <ele>165.19999694824</ele>
        <time>2014-03-05T11:59:39.000Z</time>
      </trkpt>
      <trkpt lat="48.71188" lon="1.68153">
        <ele>166</ele>
        <time>2014-03-05T11:59:43.000Z</time>
      </trkpt>
      <trkpt lat="48.71187" lon="1.68149">
        <ele>166.19999694824</ele>
        <time>2014-03-05T11:59:45.000Z</time>
      </trkpt>
      <trkpt lat="48.71184" lon="1.68145">
        <ele>166.80000305176</ele>
        <time>2014-03-05T11:59:49.000Z</time>
      </trkpt>
      <trkpt lat="48.71175" lon="1.68134">
        <ele>168.80000305176</ele>
        <time>2014-03-05T11:59:57.000Z</time>
      </trkpt>
      <trkpt lat="48.71165" lon="1.68126">
        <ele>170.60000610352</ele>
        <time>2014-03-05T12:00:03.000Z</time>
      </trkpt>
      <trkpt lat="48.71163" lon="1.68125">
        <ele>171</ele>
        <time>2014-03-05T12:00:06.000Z</time>
      </trkpt>
      <trkpt lat="48.71156" lon="1.68118">
        <ele>171.80000305176</ele>
        <time>2014-03-05T12:00:12.000Z</time>
      </trkpt>
      <trkpt lat="48.71156" lon="1.68112">
        <ele>171.80000305176</ele>
        <time>2014-03-05T12:00:16.000Z</time>
      </trkpt>
      <trkpt lat="48.71156" lon="1.68107">
        <ele>171.80000305176</ele>
        <time>2014-03-05T12:00:19.000Z</time>
      </trkpt>
      <trkpt lat="48.71151" lon="1.68099">
        <ele>172.39999389648</ele>
        <time>2014-03-05T12:00:24.000Z</time>
      </trkpt>
      <trkpt lat="48.71147" lon="1.68095">
        <ele>173</ele>
        <time>2014-03-05T12:00:29.000Z</time>
      </trkpt>
      <trkpt lat="48.71135" lon="1.68088">
        <ele>174.39999389648</ele>
        <time>2014-03-05T12:00:37.000Z</time>
      </trkpt>
      <trkpt lat="48.71124" lon="1.68082">
        <ele>175.39999389648</ele>
        <time>2014-03-05T12:00:45.000Z</time>
      </trkpt>
      <trkpt lat="48.71117" lon="1.68081">
        <ele>176.19999694824</ele>
        <time>2014-03-05T12:00:50.000Z</time>
      </trkpt>
      <trkpt lat="48.71108" lon="1.68079">
        <ele>177.19999694824</ele>
        <time>2014-03-05T12:00:58.000Z</time>
      </trkpt>
      <trkpt lat="48.71099" lon="1.68078">
        <ele>178</ele>
        <time>2014-03-05T12:01:05.000Z</time>
      </trkpt>
      <trkpt lat="48.71096" lon="1.68077">
        <ele>178.19999694824</ele>
        <time>2014-03-05T12:01:07.000Z</time>
      </trkpt>
      <trkpt lat="48.71088" lon="1.68076">
        <ele>179.19999694824</ele>
        <time>2014-03-05T12:01:13.000Z</time>
      </trkpt>
      <trkpt lat="48.71087" lon="1.68076">
        <ele>179.19999694824</ele>
        <time>2014-03-05T12:01:14.000Z</time>
      </trkpt>
      <trkpt lat="48.71082" lon="1.68073">
        <ele>179.60000610352</ele>
        <time>2014-03-05T12:01:18.000Z</time>
      </trkpt>
      <trkpt lat="48.7107" lon="1.68072">
        <ele>180</ele>
        <time>2014-03-05T12:01:26.000Z</time>
      </trkpt>
      <trkpt lat="48.71058" lon="1.68067">
        <ele>180.19999694824</ele>
        <time>2014-03-05T12:01:35.000Z</time>
      </trkpt>
      <trkpt lat="48.7105" lon="1.68067">
        <ele>180.39999389648</ele>
        <time>2014-03-05T12:01:41.000Z</time>
      </trkpt>
      <trkpt lat="48.71039" lon="1.68066">
        <ele>180.80000305176</ele>
        <time>2014-03-05T12:01:49.000Z</time>
      </trkpt>
      <trkpt lat="48.7103" lon="1.68067">
        <ele>181.19999694824</ele>
        <time>2014-03-05T12:01:55.000Z</time>
      </trkpt>
      <trkpt lat="48.7102" lon="1.68067">
        <ele>181.60000610352</ele>
        <time>2014-03-05T12:02:02.000Z</time>
      </trkpt>
      <trkpt lat="48.71009" lon="1.68067">
        <ele>182</ele>
        <time>2014-03-05T12:02:08.000Z</time>
      </trkpt>
      <trkpt lat="48.70999" lon="1.68064">
        <ele>182.39999389648</ele>
        <time>2014-03-05T12:02:15.000Z</time>
      </trkpt>
      <trkpt lat="48.70997" lon="1.68063">
        <ele>182.39999389648</ele>
        <time>2014-03-05T12:02:16.000Z</time>
      </trkpt>
      <trkpt lat="48.70993" lon="1.68057">
        <ele>182.39999389648</ele>
        <time>2014-03-05T12:02:20.000Z</time>
      </trkpt>
      <trkpt lat="48.70987" lon="1.68045">
        <ele>182.19999694824</ele>
        <time>2014-03-05T12:02:28.000Z</time>
      </trkpt>
      <trkpt lat="48.70986" lon="1.68028">
        <ele>182</ele>
        <time>2014-03-05T12:02:36.000Z</time>
      </trkpt>
      <trkpt lat="48.70986" lon="1.68025">
        <ele>181.80000305176</ele>
        <time>2014-03-05T12:02:38.000Z</time>
      </trkpt>
      <trkpt lat="48.70988" lon="1.68018">
        <ele>181.60000610352</ele>
        <time>2014-03-05T12:02:42.000Z</time>
      </trkpt>
      <trkpt lat="48.70988" lon="1.6801">
        <ele>181.19999694824</ele>
        <time>2014-03-05T12:02:46.000Z</time>
      </trkpt>
      <trkpt lat="48.70989" lon="1.68004">
        <ele>181</ele>
        <time>2014-03-05T12:02:51.000Z</time>
      </trkpt>
      <trkpt lat="48.70982" lon="1.67995">
        <ele>181.19999694824</ele>
        <time>2014-03-05T12:02:58.000Z</time>
      </trkpt>
      <trkpt lat="48.70979" lon="1.67992">
        <ele>181.39999389648</ele>
        <time>2014-03-05T12:03:00.000Z</time>
      </trkpt>
      <trkpt lat="48.70969" lon="1.67985">
        <ele>182</ele>
        <time>2014-03-05T12:03:07.000Z</time>
      </trkpt>
      <trkpt lat="48.70961" lon="1.67982">
        <ele>182.60000610352</ele>
        <time>2014-03-05T12:03:13.000Z</time>
      </trkpt>
      <trkpt lat="48.70953" lon="1.67977">
        <ele>183.19999694824</ele>
        <time>2014-03-05T12:03:19.000Z</time>
      </trkpt>
      <trkpt lat="48.70948" lon="1.67974">
        <ele>183.39999389648</ele>
        <time>2014-03-05T12:03:22.000Z</time>
      </trkpt>
      <trkpt lat="48.70943" lon="1.67969">
        <ele>183.80000305176</ele>
        <time>2014-03-05T12:03:27.000Z</time>
      </trkpt>
      <trkpt lat="48.70931" lon="1.67964">
        <ele>184.80000305176</ele>
        <time>2014-03-05T12:03:36.000Z</time>
      </trkpt>
      <trkpt lat="48.70924" lon="1.67959">
        <ele>185.19999694824</ele>
        <time>2014-03-05T12:03:41.000Z</time>
      </trkpt>
      <trkpt lat="48.70921" lon="1.67959">
        <ele>185.60000610352</ele>
        <time>2014-03-05T12:03:43.000Z</time>
      </trkpt>
      <trkpt lat="48.7091" lon="1.67952">
        <ele>186.19999694824</ele>
        <time>2014-03-05T12:03:49.000Z</time>
      </trkpt>
      <trkpt lat="48.70899" lon="1.67945">
        <ele>186.39999389648</ele>
        <time>2014-03-05T12:03:56.000Z</time>
      </trkpt>
      <trkpt lat="48.70889" lon="1.67941">
        <ele>186.60000610352</ele>
        <time>2014-03-05T12:04:03.000Z</time>
      </trkpt>
      <trkpt lat="48.70877" lon="1.6794">
        <ele>187.19999694824</ele>
        <time>2014-03-05T12:04:11.000Z</time>
      </trkpt>
      <trkpt lat="48.70867" lon="1.67934">
        <ele>187.39999389648</ele>
        <time>2014-03-05T12:04:19.000Z</time>
      </trkpt>
      <trkpt lat="48.70858" lon="1.6793">
        <ele>187.60000610352</ele>
        <time>2014-03-05T12:04:26.000Z</time>
      </trkpt>
      <trkpt lat="48.70848" lon="1.67927">
        <ele>187.80000305176</ele>
        <time>2014-03-05T12:04:33.000Z</time>
      </trkpt>
      <trkpt lat="48.7084" lon="1.67922">
        <ele>188</ele>
        <time>2014-03-05T12:04:39.000Z</time>
      </trkpt>
      <trkpt lat="48.70839" lon="1.6792">
        <ele>188</ele>
        <time>2014-03-05T12:04:40.000Z</time>
      </trkpt>
      <trkpt lat="48.70831" lon="1.67916">
        <ele>188</ele>
        <time>2014-03-05T12:04:47.000Z</time>
      </trkpt>
      <trkpt lat="48.70829" lon="1.67916">
        <ele>188</ele>
        <time>2014-03-05T12:04:49.000Z</time>
      </trkpt>
      <trkpt lat="48.70821" lon="1.67908">
        <ele>188</ele>
        <time>2014-03-05T12:04:55.000Z</time>
      </trkpt>
      <trkpt lat="48.70818" lon="1.67905">
        <ele>188.19999694824</ele>
        <time>2014-03-05T12:04:59.000Z</time>
      </trkpt>
      <trkpt lat="48.70814" lon="1.67902">
        <ele>188.19999694824</ele>
        <time>2014-03-05T12:05:04.000Z</time>
      </trkpt>
      <trkpt lat="48.70805" lon="1.67897">
        <ele>188.19999694824</ele>
        <time>2014-03-05T12:05:14.000Z</time>
      </trkpt>
      <trkpt lat="48.70797" lon="1.67894">
        <ele>188.39999389648</ele>
        <time>2014-03-05T12:05:21.000Z</time>
      </trkpt>
      <trkpt lat="48.70788" lon="1.6789">
        <ele>188.60000610352</ele>
        <time>2014-03-05T12:05:28.000Z</time>
      </trkpt>
      <trkpt lat="48.70775" lon="1.67886">
        <ele>189</ele>
        <time>2014-03-05T12:05:38.000Z</time>
      </trkpt>
      <trkpt lat="48.70764" lon="1.67882">
        <ele>189.19999694824</ele>
        <time>2014-03-05T12:05:45.000Z</time>
      </trkpt>
      <trkpt lat="48.70757" lon="1.67878">
        <ele>189.39999389648</ele>
        <time>2014-03-05T12:05:52.000Z</time>
      </trkpt>
      <trkpt lat="48.7075" lon="1.67874">
        <ele>189.39999389648</ele>
        <time>2014-03-05T12:05:58.000Z</time>
      </trkpt>
      <trkpt lat="48.70742" lon="1.6787">
        <ele>189</ele>
        <time>2014-03-05T12:06:05.000Z</time>
      </trkpt>
      <trkpt lat="48.70738" lon="1.67867">
        <ele>188.80000305176</ele>
        <time>2014-03-05T12:06:09.000Z</time>
      </trkpt>
      <trkpt lat="48.7072" lon="1.67855">
        <ele>187.80000305176</ele>
        <time>2014-03-05T12:06:17.000Z</time>
      </trkpt>
      <trkpt lat="48.70699" lon="1.67843">
        <ele>187</ele>
        <time>2014-03-05T12:06:26.000Z</time>
      </trkpt>
      <trkpt lat="48.70696" lon="1.67841">
        <ele>187</ele>
        <time>2014-03-05T12:06:28.000Z</time>
      </trkpt>
      <trkpt lat="48.70687" lon="1.67836">
        <ele>186.60000610352</ele>
        <time>2014-03-05T12:06:34.000Z</time>
      </trkpt>
      <trkpt lat="48.70676" lon="1.67829">
        <ele>186.39999389648</ele>
        <time>2014-03-05T12:06:42.000Z</time>
      </trkpt>
      <trkpt lat="48.70667" lon="1.67825">
        <ele>186.39999389648</ele>
        <time>2014-03-05T12:06:49.000Z</time>
      </trkpt>
      <trkpt lat="48.70666" lon="1.67823">
        <ele>186.39999389648</ele>
        <time>2014-03-05T12:06:51.000Z</time>
      </trkpt>
      <trkpt lat="48.70656" lon="1.67816">
        <ele>186.19999694824</ele>
        <time>2014-03-05T12:06:58.000Z</time>
      </trkpt>
      <trkpt lat="48.70651" lon="1.67811">
        <ele>186.19999694824</ele>
        <time>2014-03-05T12:07:02.000Z</time>
      </trkpt>
      <trkpt lat="48.70644" lon="1.67804">
        <ele>186.19999694824</ele>
        <time>2014-03-05T12:07:07.000Z</time>
      </trkpt>
      <trkpt lat="48.70634" lon="1.67794">
        <ele>186.39999389648</ele>
        <time>2014-03-05T12:07:15.000Z</time>
      </trkpt>
      <trkpt lat="48.70624" lon="1.67788">
        <ele>186.39999389648</ele>
        <time>2014-03-05T12:07:22.000Z</time>
      </trkpt>
      <trkpt lat="48.70616" lon="1.67784">
        <ele>186.39999389648</ele>
        <time>2014-03-05T12:07:28.000Z</time>
      </trkpt>
      <trkpt lat="48.70606" lon="1.67778">
        <ele>186.60000610352</ele>
        <time>2014-03-05T12:07:35.000Z</time>
      </trkpt>
      <trkpt lat="48.70598" lon="1.67773">
        <ele>186.60000610352</ele>
        <time>2014-03-05T12:07:41.000Z</time>
      </trkpt>
      <trkpt lat="48.70593" lon="1.67769">
        <ele>186.80000305176</ele>
        <time>2014-03-05T12:07:45.000Z</time>
      </trkpt>
      <trkpt lat="48.70583" lon="1.6777">
        <ele>186.60000610352</ele>
        <time>2014-03-05T12:07:51.000Z</time>
      </trkpt>
      <trkpt lat="48.70576" lon="1.67768">
        <ele>186.19999694824</ele>
        <time>2014-03-05T12:07:55.000Z</time>
      </trkpt>
      <trkpt lat="48.70573" lon="1.67765">
        <ele>186.39999389648</ele>
        <time>2014-03-05T12:07:57.000Z</time>
      </trkpt>
      <trkpt lat="48.70564" lon="1.67762">
        <ele>186</ele>
        <time>2014-03-05T12:08:04.000Z</time>
      </trkpt>
      <trkpt lat="48.70556" lon="1.67759">
        <ele>185.80000305176</ele>
        <time>2014-03-05T12:08:09.000Z</time>
      </trkpt>
      <trkpt lat="48.70549" lon="1.67754">
        <ele>185.80000305176</ele>
        <time>2014-03-05T12:08:14.000Z</time>
      </trkpt>
      <trkpt lat="48.70547" lon="1.67753">
        <ele>185.60000610352</ele>
        <time>2014-03-05T12:08:16.000Z</time>
      </trkpt>
      <trkpt lat="48.70541" lon="1.67748">
        <ele>185.60000610352</ele>
        <time>2014-03-05T12:08:20.000Z</time>
      </trkpt>
      <trkpt lat="48.70539" lon="1.67748">
        <ele>185.39999389648</ele>
        <time>2014-03-05T12:08:24.000Z</time>
      </trkpt>
      <trkpt lat="48.70532" lon="1.67747">
        <ele>185</ele>
        <time>2014-03-05T12:08:37.000Z</time>
      </trkpt>
      <trkpt lat="48.70522" lon="1.67742">
        <ele>184.80000305176</ele>
        <time>2014-03-05T12:08:44.000Z</time>
      </trkpt>
      <trkpt lat="48.70514" lon="1.67738">
        <ele>184.60000610352</ele>
        <time>2014-03-05T12:08:50.000Z</time>
      </trkpt>
      <trkpt lat="48.70503" lon="1.67728">
        <ele>184.80000305176</ele>
        <time>2014-03-05T12:08:58.000Z</time>
      </trkpt>
      <trkpt lat="48.70497" lon="1.67722">
        <ele>185</ele>
        <time>2014-03-05T12:09:03.000Z</time>
      </trkpt>
      <trkpt lat="48.70486" lon="1.67714">
        <ele>185.39999389648</ele>
        <time>2014-03-05T12:09:11.000Z</time>
      </trkpt>
      <trkpt lat="48.70475" lon="1.67711">
        <ele>185.39999389648</ele>
        <time>2014-03-05T12:09:18.000Z</time>
      </trkpt>
      <trkpt lat="48.70463" lon="1.67705">
        <ele>185.60000610352</ele>
        <time>2014-03-05T12:09:26.000Z</time>
      </trkpt>
      <trkpt lat="48.70451" lon="1.67702">
        <ele>185.39999389648</ele>
        <time>2014-03-05T12:09:33.000Z</time>
      </trkpt>
      <trkpt lat="48.70448" lon="1.67701">
        <ele>185.39999389648</ele>
        <time>2014-03-05T12:09:35.000Z</time>
      </trkpt>
      <trkpt lat="48.70439" lon="1.67696">
        <ele>185.39999389648</ele>
        <time>2014-03-05T12:09:41.000Z</time>
      </trkpt>
      <trkpt lat="48.70429" lon="1.67692">
        <ele>185.39999389648</ele>
        <time>2014-03-05T12:09:47.000Z</time>
      </trkpt>
      <trkpt lat="48.70419" lon="1.67688">
        <ele>185.19999694824</ele>
        <time>2014-03-05T12:09:54.000Z</time>
      </trkpt>
      <trkpt lat="48.70411" lon="1.67684">
        <ele>185.39999389648</ele>
        <time>2014-03-05T12:09:59.000Z</time>
      </trkpt>
      <trkpt lat="48.70404" lon="1.67681">
        <ele>185.60000610352</ele>
        <time>2014-03-05T12:10:04.000Z</time>
      </trkpt>
      <trkpt lat="48.70401" lon="1.67677">
        <ele>185.60000610352</ele>
        <time>2014-03-05T12:10:07.000Z</time>
      </trkpt>
      <trkpt lat="48.70391" lon="1.67676">
        <ele>185.80000305176</ele>
        <time>2014-03-05T12:10:13.000Z</time>
      </trkpt>
      <trkpt lat="48.70383" lon="1.6767">
        <ele>186</ele>
        <time>2014-03-05T12:10:20.000Z</time>
      </trkpt>
      <trkpt lat="48.70376" lon="1.67665">
        <ele>186</ele>
        <time>2014-03-05T12:10:26.000Z</time>
      </trkpt>
      <trkpt lat="48.70367" lon="1.67661">
        <ele>186</ele>
        <time>2014-03-05T12:10:32.000Z</time>
      </trkpt>
      <trkpt lat="48.70365" lon="1.67658">
        <ele>186</ele>
        <time>2014-03-05T12:10:34.000Z</time>
      </trkpt>
      <trkpt lat="48.70353" lon="1.67648">
        <ele>185.80000305176</ele>
        <time>2014-03-05T12:10:43.000Z</time>
      </trkpt>
      <trkpt lat="48.70343" lon="1.67643">
        <ele>185.80000305176</ele>
        <time>2014-03-05T12:10:50.000Z</time>
      </trkpt>
      <trkpt lat="48.70335" lon="1.67638">
        <ele>185.60000610352</ele>
        <time>2014-03-05T12:10:55.000Z</time>
      </trkpt>
      <trkpt lat="48.70328" lon="1.67635">
        <ele>185.39999389648</ele>
        <time>2014-03-05T12:11:00.000Z</time>
      </trkpt>
      <trkpt lat="48.70327" lon="1.67633">
        <ele>185.19999694824</ele>
        <time>2014-03-05T12:11:01.000Z</time>
      </trkpt>
      <trkpt lat="48.70316" lon="1.67628">
        <ele>184.60000610352</ele>
        <time>2014-03-05T12:11:08.000Z</time>
      </trkpt>
      <trkpt lat="48.70308" lon="1.67621">
        <ele>184</ele>
        <time>2014-03-05T12:11:13.000Z</time>
      </trkpt>
      <trkpt lat="48.70298" lon="1.67615">
        <ele>183.19999694824</ele>
        <time>2014-03-05T12:11:21.000Z</time>
      </trkpt>
      <trkpt lat="48.70289" lon="1.67612">
        <ele>182.60000610352</ele>
        <time>2014-03-05T12:11:27.000Z</time>
      </trkpt>
      <trkpt lat="48.70283" lon="1.67608">
        <ele>182.19999694824</ele>
        <time>2014-03-05T12:11:31.000Z</time>
      </trkpt>
      <trkpt lat="48.70277" lon="1.67604">
        <ele>181.60000610352</ele>
        <time>2014-03-05T12:11:36.000Z</time>
      </trkpt>
      <trkpt lat="48.70265" lon="1.67597">
        <ele>180.60000610352</ele>
        <time>2014-03-05T12:11:44.000Z</time>
      </trkpt>
      <trkpt lat="48.70259" lon="1.67593">
        <ele>180</ele>
        <time>2014-03-05T12:11:49.000Z</time>
      </trkpt>
      <trkpt lat="48.70246" lon="1.67584">
        <ele>178.80000305176</ele>
        <time>2014-03-05T12:11:58.000Z</time>
      </trkpt>
      <trkpt lat="48.70235" lon="1.67575">
        <ele>177.80000305176</ele>
        <time>2014-03-05T12:12:06.000Z</time>
      </trkpt>
      <trkpt lat="48.7023" lon="1.67573">
        <ele>177.39999389648</ele>
        <time>2014-03-05T12:12:09.000Z</time>
      </trkpt>
      <trkpt lat="48.70221" lon="1.67569">
        <ele>176.60000610352</ele>
        <time>2014-03-05T12:12:15.000Z</time>
      </trkpt>
      <trkpt lat="48.70218" lon="1.67568">
        <ele>176.39999389648</ele>
        <time>2014-03-05T12:12:17.000Z</time>
      </trkpt>
      <trkpt lat="48.70208" lon="1.67566">
        <ele>175.60000610352</ele>
        <time>2014-03-05T12:12:24.000Z</time>
      </trkpt>
      <trkpt lat="48.70198" lon="1.67564">
        <ele>174.80000305176</ele>
        <time>2014-03-05T12:12:31.000Z</time>
      </trkpt>
      <trkpt lat="48.70192" lon="1.67561">
        <ele>174.39999389648</ele>
        <time>2014-03-05T12:12:35.000Z</time>
      </trkpt>
      <trkpt lat="48.70185" lon="1.67553">
        <ele>173.39999389648</ele>
        <time>2014-03-05T12:12:41.000Z</time>
      </trkpt>
      <trkpt lat="48.70183" lon="1.67552">
        <ele>173.19999694824</ele>
        <time>2014-03-05T12:12:42.000Z</time>
      </trkpt>
      <trkpt lat="48.70173" lon="1.67549">
        <ele>172.39999389648</ele>
        <time>2014-03-05T12:12:49.000Z</time>
      </trkpt>
      <trkpt lat="48.70173" lon="1.67549">
        <ele>172.39999389648</ele>
        <time>2014-03-05T12:12:50.000Z</time>
      </trkpt>
      <trkpt lat="48.7017" lon="1.67546">
        <ele>172</ele>
        <time>2014-03-05T12:12:56.000Z</time>
      </trkpt>
      <trkpt lat="48.70168" lon="1.67545">
        <ele>171.80000305176</ele>
        <time>2014-03-05T12:12:57.000Z</time>
      </trkpt>
      <trkpt lat="48.70162" lon="1.67539">
        <ele>171</ele>
        <time>2014-03-05T12:13:00.000Z</time>
      </trkpt>
      <trkpt lat="48.70149" lon="1.67533">
        <ele>169.80000305176</ele>
        <time>2014-03-05T12:13:08.000Z</time>
      </trkpt>
      <trkpt lat="48.70142" lon="1.67529">
        <ele>169.19999694824</ele>
        <time>2014-03-05T12:13:14.000Z</time>
      </trkpt>
      <trkpt lat="48.70133" lon="1.67524">
        <ele>168.39999389648</ele>
        <time>2014-03-05T12:13:21.000Z</time>
      </trkpt>
      <trkpt lat="48.70129" lon="1.67523">
        <ele>168</ele>
        <time>2014-03-05T12:13:24.000Z</time>
      </trkpt>
      <trkpt lat="48.70124" lon="1.67523">
        <ele>167.80000305176</ele>
        <time>2014-03-05T12:13:30.000Z</time>
      </trkpt>
      <trkpt lat="48.70123" lon="1.67523">
        <ele>167.80000305176</ele>
        <time>2014-03-05T12:13:33.000Z</time>
      </trkpt>
      <trkpt lat="48.70106" lon="1.67512">
        <ele>166.39999389648</ele>
        <time>2014-03-05T12:13:52.000Z</time>
      </trkpt>
      <trkpt lat="48.70103" lon="1.67511">
        <ele>166.19999694824</ele>
        <time>2014-03-05T12:13:53.000Z</time>
      </trkpt>
      <trkpt lat="48.70095" lon="1.6751">
        <ele>165.80000305176</ele>
        <time>2014-03-05T12:13:57.000Z</time>
      </trkpt>
      <trkpt lat="48.70086" lon="1.67507">
        <ele>165.19999694824</ele>
        <time>2014-03-05T12:14:03.000Z</time>
      </trkpt>
      <trkpt lat="48.70077" lon="1.67501">
        <ele>164.60000610352</ele>
        <time>2014-03-05T12:14:10.000Z</time>
      </trkpt>
      <trkpt lat="48.70074" lon="1.67502">
        <ele>164.39999389648</ele>
        <time>2014-03-05T12:14:12.000Z</time>
      </trkpt>
      <trkpt lat="48.70067" lon="1.67494">
        <ele>163.80000305176</ele>
        <time>2014-03-05T12:14:17.000Z</time>
      </trkpt>
      <trkpt lat="48.70064" lon="1.67492">
        <ele>163.60000610352</ele>
        <time>2014-03-05T12:14:19.000Z</time>
      </trkpt>
      <trkpt lat="48.70051" lon="1.67488">
        <ele>162.60000610352</ele>
        <time>2014-03-05T12:14:26.000Z</time>
      </trkpt>
      <trkpt lat="48.70044" lon="1.6748">
        <ele>162</ele>
        <time>2014-03-05T12:14:31.000Z</time>
      </trkpt>
      <trkpt lat="48.70038" lon="1.67473">
        <ele>161.39999389648</ele>
        <time>2014-03-05T12:14:37.000Z</time>
      </trkpt>
      <trkpt lat="48.70028" lon="1.6747">
        <ele>160.80000305176</ele>
        <time>2014-03-05T12:14:43.000Z</time>
      </trkpt>
      <trkpt lat="48.70017" lon="1.67464">
        <ele>160</ele>
        <time>2014-03-05T12:14:50.000Z</time>
      </trkpt>
      <trkpt lat="48.70015" lon="1.67463">
        <ele>160</ele>
        <time>2014-03-05T12:14:51.000Z</time>
      </trkpt>
      <trkpt lat="48.70007" lon="1.6746">
        <ele>159.39999389648</ele>
        <time>2014-03-05T12:14:56.000Z</time>
      </trkpt>
      <trkpt lat="48.69994" lon="1.67455">
        <ele>158.39999389648</ele>
        <time>2014-03-05T12:15:04.000Z</time>
      </trkpt>
      <trkpt lat="48.69988" lon="1.67451">
        <ele>157.80000305176</ele>
        <time>2014-03-05T12:15:08.000Z</time>
      </trkpt>
      <trkpt lat="48.69978" lon="1.67446">
        <ele>156.80000305176</ele>
        <time>2014-03-05T12:15:15.000Z</time>
      </trkpt>
      <trkpt lat="48.69975" lon="1.67444">
        <ele>156.60000610352</ele>
        <time>2014-03-05T12:15:17.000Z</time>
      </trkpt>
      <trkpt lat="48.69967" lon="1.6744">
        <ele>155.80000305176</ele>
        <time>2014-03-05T12:15:22.000Z</time>
      </trkpt>
      <trkpt lat="48.69953" lon="1.67433">
        <ele>154.80000305176</ele>
        <time>2014-03-05T12:15:31.000Z</time>
      </trkpt>
      <trkpt lat="48.69944" lon="1.67432">
        <ele>154</ele>
        <time>2014-03-05T12:15:37.000Z</time>
      </trkpt>
      <trkpt lat="48.69935" lon="1.67427">
        <ele>153.19999694824</ele>
        <time>2014-03-05T12:15:42.000Z</time>
      </trkpt>
      <trkpt lat="48.69927" lon="1.67421">
        <ele>152.60000610352</ele>
        <time>2014-03-05T12:15:48.000Z</time>
      </trkpt>
      <trkpt lat="48.69919" lon="1.67417">
        <ele>152.19999694824</ele>
        <time>2014-03-05T12:15:54.000Z</time>
      </trkpt>
      <trkpt lat="48.69909" lon="1.67411">
        <ele>151.80000305176</ele>
        <time>2014-03-05T12:16:01.000Z</time>
      </trkpt>
      <trkpt lat="48.69904" lon="1.67408">
        <ele>151.80000305176</ele>
        <time>2014-03-05T12:16:05.000Z</time>
      </trkpt>
      <trkpt lat="48.69893" lon="1.67398">
        <ele>151.60000610352</ele>
        <time>2014-03-05T12:16:12.000Z</time>
      </trkpt>
      <trkpt lat="48.69883" lon="1.67391">
        <ele>151.39999389648</ele>
        <time>2014-03-05T12:16:19.000Z</time>
      </trkpt>
      <trkpt lat="48.69882" lon="1.6739">
        <ele>151.39999389648</ele>
        <time>2014-03-05T12:16:20.000Z</time>
      </trkpt>
      <trkpt lat="48.69875" lon="1.67383">
        <ele>151.39999389648</ele>
        <time>2014-03-05T12:16:25.000Z</time>
      </trkpt>
      <trkpt lat="48.69873" lon="1.67382">
        <ele>151.19999694824</ele>
        <time>2014-03-05T12:16:26.000Z</time>
      </trkpt>
      <trkpt lat="48.6986" lon="1.67374">
        <ele>151</ele>
        <time>2014-03-05T12:16:34.000Z</time>
      </trkpt>
      <trkpt lat="48.6985" lon="1.67374">
        <ele>150.39999389648</ele>
        <time>2014-03-05T12:16:39.000Z</time>
      </trkpt>
      <trkpt lat="48.69839" lon="1.67369">
        <ele>150.19999694824</ele>
        <time>2014-03-05T12:16:45.000Z</time>
      </trkpt>
      <trkpt lat="48.69831" lon="1.67369">
        <ele>150</ele>
        <time>2014-03-05T12:16:50.000Z</time>
      </trkpt>
      <trkpt lat="48.69819" lon="1.67367">
        <ele>150.19999694824</ele>
        <time>2014-03-05T12:16:56.000Z</time>
      </trkpt>
      <trkpt lat="48.6981" lon="1.67364">
        <ele>150.60000610352</ele>
        <time>2014-03-05T12:17:02.000Z</time>
      </trkpt>
      <trkpt lat="48.69803" lon="1.67363">
        <ele>150.80000305176</ele>
        <time>2014-03-05T12:17:07.000Z</time>
      </trkpt>
      <trkpt lat="48.69799" lon="1.67355">
        <ele>151.39999389648</ele>
        <time>2014-03-05T12:17:11.000Z</time>
      </trkpt>
      <trkpt lat="48.69794" lon="1.67351">
        <ele>151.60000610352</ele>
        <time>2014-03-05T12:17:15.000Z</time>
      </trkpt>
      <trkpt lat="48.69783" lon="1.67343">
        <ele>152.19999694824</ele>
        <time>2014-03-05T12:17:22.000Z</time>
      </trkpt>
      <trkpt lat="48.69771" lon="1.67334">
        <ele>152.80000305176</ele>
        <time>2014-03-05T12:17:31.000Z</time>
      </trkpt>
      <trkpt lat="48.69761" lon="1.67329">
        <ele>153</ele>
        <time>2014-03-05T12:17:38.000Z</time>
      </trkpt>
      <trkpt lat="48.69759" lon="1.67329">
        <ele>153</ele>
        <time>2014-03-05T12:17:39.000Z</time>
      </trkpt>
      <trkpt lat="48.69754" lon="1.67327">
        <ele>153</ele>
        <time>2014-03-05T12:17:43.000Z</time>
      </trkpt>
      <trkpt lat="48.6974" lon="1.67324">
        <ele>152.80000305176</ele>
        <time>2014-03-05T12:17:51.000Z</time>
      </trkpt>
      <trkpt lat="48.6973" lon="1.67325">
        <ele>152.60000610352</ele>
        <time>2014-03-05T12:17:57.000Z</time>
      </trkpt>
      <trkpt lat="48.6972" lon="1.67315">
        <ele>152.39999389648</ele>
        <time>2014-03-05T12:18:04.000Z</time>
      </trkpt>
      <trkpt lat="48.69713" lon="1.67311">
        <ele>152.19999694824</ele>
        <time>2014-03-05T12:18:10.000Z</time>
      </trkpt>
      <trkpt lat="48.69707" lon="1.67301">
        <ele>152.19999694824</ele>
        <time>2014-03-05T12:18:15.000Z</time>
      </trkpt>
      <trkpt lat="48.69705" lon="1.673">
        <ele>152.19999694824</ele>
        <time>2014-03-05T12:18:16.000Z</time>
      </trkpt>
      <trkpt lat="48.69695" lon="1.67293">
        <ele>151.80000305176</ele>
        <time>2014-03-05T12:18:25.000Z</time>
      </trkpt>
      <trkpt lat="48.69686" lon="1.67288">
        <ele>151.60000610352</ele>
        <time>2014-03-05T12:18:31.000Z</time>
      </trkpt>
      <trkpt lat="48.69676" lon="1.67282">
        <ele>151.19999694824</ele>
        <time>2014-03-05T12:18:38.000Z</time>
      </trkpt>
      <trkpt lat="48.69667" lon="1.67279">
        <ele>151</ele>
        <time>2014-03-05T12:18:44.000Z</time>
      </trkpt>
      <trkpt lat="48.69665" lon="1.67278">
        <ele>151</ele>
        <time>2014-03-05T12:18:45.000Z</time>
      </trkpt>
      <trkpt lat="48.69658" lon="1.67276">
        <ele>150.60000610352</ele>
        <time>2014-03-05T12:18:49.000Z</time>
      </trkpt>
      <trkpt lat="48.6965" lon="1.67268">
        <ele>150.39999389648</ele>
        <time>2014-03-05T12:18:55.000Z</time>
      </trkpt>
      <trkpt lat="48.69638" lon="1.67261">
        <ele>150</ele>
        <time>2014-03-05T12:19:02.000Z</time>
      </trkpt>
      <trkpt lat="48.69628" lon="1.67258">
        <ele>149.60000610352</ele>
        <time>2014-03-05T12:19:08.000Z</time>
      </trkpt>
      <trkpt lat="48.69617" lon="1.67256">
        <ele>149.19999694824</ele>
        <time>2014-03-05T12:19:16.000Z</time>
      </trkpt>
      <trkpt lat="48.69609" lon="1.67254">
        <ele>149</ele>
        <time>2014-03-05T12:19:22.000Z</time>
      </trkpt>
      <trkpt lat="48.69599" lon="1.67249">
        <ele>148.60000610352</ele>
        <time>2014-03-05T12:19:28.000Z</time>
      </trkpt>
      <trkpt lat="48.6959" lon="1.67245">
        <ele>148.19999694824</ele>
        <time>2014-03-05T12:19:34.000Z</time>
      </trkpt>
      <trkpt lat="48.69572" lon="1.67242">
        <ele>147.80000305176</ele>
        <time>2014-03-05T12:19:44.000Z</time>
      </trkpt>
      <trkpt lat="48.69569" lon="1.67241">
        <ele>147.80000305176</ele>
        <time>2014-03-05T12:19:46.000Z</time>
      </trkpt>
      <trkpt lat="48.69567" lon="1.6724">
        <ele>147.80000305176</ele>
        <time>2014-03-05T12:19:48.000Z</time>
      </trkpt>
      <trkpt lat="48.69558" lon="1.67239">
        <ele>147.60000610352</ele>
        <time>2014-03-05T12:19:53.000Z</time>
      </trkpt>
      <trkpt lat="48.69552" lon="1.67236">
        <ele>147.60000610352</ele>
        <time>2014-03-05T12:19:57.000Z</time>
      </trkpt>
      <trkpt lat="48.69542" lon="1.67231">
        <ele>147.60000610352</ele>
        <time>2014-03-05T12:20:04.000Z</time>
      </trkpt>
      <trkpt lat="48.69531" lon="1.67229">
        <ele>147.39999389648</ele>
        <time>2014-03-05T12:20:11.000Z</time>
      </trkpt>
      <trkpt lat="48.6953" lon="1.6723">
        <ele>147.39999389648</ele>
        <time>2014-03-05T12:20:12.000Z</time>
      </trkpt>
      <trkpt lat="48.6953" lon="1.67243">
        <ele>147.39999389648</ele>
        <time>2014-03-05T12:20:18.000Z</time>
      </trkpt>
      <trkpt lat="48.69537" lon="1.67256">
        <ele>147.39999389648</ele>
        <time>2014-03-05T12:20:23.000Z</time>
      </trkpt>
      <trkpt lat="48.69543" lon="1.67271">
        <ele>147.60000610352</ele>
        <time>2014-03-05T12:20:27.000Z</time>
      </trkpt>
      <trkpt lat="48.69555" lon="1.67291">
        <ele>147.60000610352</ele>
        <time>2014-03-05T12:20:32.000Z</time>
      </trkpt>
      <trkpt lat="48.69566" lon="1.67319">
        <ele>147.80000305176</ele>
        <time>2014-03-05T12:20:39.000Z</time>
      </trkpt>
      <trkpt lat="48.69575" lon="1.67343">
        <ele>147.80000305176</ele>
        <time>2014-03-05T12:20:44.000Z</time>
      </trkpt>
      <trkpt lat="48.69584" lon="1.67366">
        <ele>147.60000610352</ele>
        <time>2014-03-05T12:20:49.000Z</time>
      </trkpt>
      <trkpt lat="48.69596" lon="1.67388">
        <ele>147.60000610352</ele>
        <time>2014-03-05T12:20:53.000Z</time>
      </trkpt>
      <trkpt lat="48.69613" lon="1.67418">
        <ele>147.39999389648</ele>
        <time>2014-03-05T12:20:59.000Z</time>
      </trkpt>
      <trkpt lat="48.69619" lon="1.67428">
        <ele>147</ele>
        <time>2014-03-05T12:21:01.000Z</time>
      </trkpt>
      <trkpt lat="48.69627" lon="1.67441">
        <ele>146.60000610352</ele>
        <time>2014-03-05T12:21:04.000Z</time>
      </trkpt>
      <trkpt lat="48.69634" lon="1.67447">
        <ele>146.60000610352</ele>
        <time>2014-03-05T12:21:06.000Z</time>
      </trkpt>
      <trkpt lat="48.69651" lon="1.67473">
        <ele>145.80000305176</ele>
        <time>2014-03-05T12:21:12.000Z</time>
      </trkpt>
      <trkpt lat="48.69653" lon="1.67478">
        <ele>145.60000610352</ele>
        <time>2014-03-05T12:21:13.000Z</time>
      </trkpt>
      <trkpt lat="48.69666" lon="1.67507">
        <ele>145</ele>
        <time>2014-03-05T12:21:19.000Z</time>
      </trkpt>
      <trkpt lat="48.69672" lon="1.6753">
        <ele>145.19999694824</ele>
        <time>2014-03-05T12:21:23.000Z</time>
      </trkpt>
      <trkpt lat="48.69678" lon="1.67556">
        <ele>145.39999389648</ele>
        <time>2014-03-05T12:21:27.000Z</time>
      </trkpt>
      <trkpt lat="48.69685" lon="1.67582">
        <ele>145.80000305176</ele>
        <time>2014-03-05T12:21:31.000Z</time>
      </trkpt>
      <trkpt lat="48.69692" lon="1.67615">
        <ele>146</ele>
        <time>2014-03-05T12:21:36.000Z</time>
      </trkpt>
      <trkpt lat="48.69693" lon="1.67621">
        <ele>146</ele>
        <time>2014-03-05T12:21:37.000Z</time>
      </trkpt>
      <trkpt lat="48.69697" lon="1.67645">
        <ele>146</ele>
        <time>2014-03-05T12:21:41.000Z</time>
      </trkpt>
      <trkpt lat="48.69702" lon="1.67663">
        <ele>146.19999694824</ele>
        <time>2014-03-05T12:21:44.000Z</time>
      </trkpt>
      <trkpt lat="48.69704" lon="1.67675">
        <ele>146.19999694824</ele>
        <time>2014-03-05T12:21:46.000Z</time>
      </trkpt>
      <trkpt lat="48.69708" lon="1.6772">
        <ele>146.80000305176</ele>
        <time>2014-03-05T12:21:53.000Z</time>
      </trkpt>
      <trkpt lat="48.69713" lon="1.67752">
        <ele>147.19999694824</ele>
        <time>2014-03-05T12:21:58.000Z</time>
      </trkpt>
      <trkpt lat="48.69716" lon="1.67765">
        <ele>147.19999694824</ele>
        <time>2014-03-05T12:22:00.000Z</time>
      </trkpt>
      <trkpt lat="48.69719" lon="1.67778">
        <ele>147.39999389648</ele>
        <time>2014-03-05T12:22:02.000Z</time>
      </trkpt>
      <trkpt lat="48.69723" lon="1.67795">
        <ele>147.39999389648</ele>
        <time>2014-03-05T12:22:05.000Z</time>
      </trkpt>
      <trkpt lat="48.69724" lon="1.67816">
        <ele>147.19999694824</ele>
        <time>2014-03-05T12:22:08.000Z</time>
      </trkpt>
      <trkpt lat="48.69731" lon="1.67856">
        <ele>147.39999389648</ele>
        <time>2014-03-05T12:22:14.000Z</time>
      </trkpt>
      <trkpt lat="48.6974" lon="1.67896">
        <ele>147.60000610352</ele>
        <time>2014-03-05T12:22:20.000Z</time>
      </trkpt>
      <trkpt lat="48.69743" lon="1.67928">
        <ele>147.80000305176</ele>
        <time>2014-03-05T12:22:25.000Z</time>
      </trkpt>
      <trkpt lat="48.69745" lon="1.67942">
        <ele>147.80000305176</ele>
        <time>2014-03-05T12:22:27.000Z</time>
      </trkpt>
      <trkpt lat="48.69746" lon="1.67956">
        <ele>147.80000305176</ele>
        <time>2014-03-05T12:22:29.000Z</time>
      </trkpt>
      <trkpt lat="48.6975" lon="1.67995">
        <ele>148</ele>
        <time>2014-03-05T12:22:35.000Z</time>
      </trkpt>
      <trkpt lat="48.69752" lon="1.68011">
        <ele>147.80000305176</ele>
        <time>2014-03-05T12:22:38.000Z</time>
      </trkpt>
      <trkpt lat="48.69754" lon="1.6805">
        <ele>147</ele>
        <time>2014-03-05T12:22:45.000Z</time>
      </trkpt>
      <trkpt lat="48.69758" lon="1.6808">
        <ele>146.60000610352</ele>
        <time>2014-03-05T12:22:51.000Z</time>
      </trkpt>
      <trkpt lat="48.69761" lon="1.68114">
        <ele>146.60000610352</ele>
        <time>2014-03-05T12:22:57.000Z</time>
      </trkpt>
      <trkpt lat="48.69759" lon="1.68141">
        <ele>146.60000610352</ele>
        <time>2014-03-05T12:23:02.000Z</time>
      </trkpt>
      <trkpt lat="48.69757" lon="1.6816">
        <ele>146.39999389648</ele>
        <time>2014-03-05T12:23:05.000Z</time>
      </trkpt>
      <trkpt lat="48.69758" lon="1.68169">
        <ele>146.60000610352</ele>
        <time>2014-03-05T12:23:06.000Z</time>
      </trkpt>
      <trkpt lat="48.69757" lon="1.68223">
        <ele>147.80000305176</ele>
        <time>2014-03-05T12:23:12.000Z</time>
      </trkpt>
      <trkpt lat="48.69756" lon="1.68269">
        <ele>148.19999694824</ele>
        <time>2014-03-05T12:23:17.000Z</time>
      </trkpt>
      <trkpt lat="48.69756" lon="1.68305">
        <ele>147.80000305176</ele>
        <time>2014-03-05T12:23:21.000Z</time>
      </trkpt>
      <trkpt lat="48.69754" lon="1.68357">
        <ele>147.80000305176</ele>
        <time>2014-03-05T12:23:27.000Z</time>
      </trkpt>
      <trkpt lat="48.69752" lon="1.6838">
        <ele>148.19999694824</ele>
        <time>2014-03-05T12:23:30.000Z</time>
      </trkpt>
      <trkpt lat="48.69752" lon="1.684">
        <ele>148.80000305176</ele>
        <time>2014-03-05T12:23:33.000Z</time>
      </trkpt>
      <trkpt lat="48.69756" lon="1.68421">
        <ele>149.39999389648</ele>
        <time>2014-03-05T12:23:38.000Z</time>
      </trkpt>
      <trkpt lat="48.69754" lon="1.68428">
        <ele>149.39999389648</ele>
        <time>2014-03-05T12:23:41.000Z</time>
      </trkpt>
      <trkpt lat="48.69749" lon="1.68454">
        <ele>149.39999389648</ele>
        <time>2014-03-05T12:23:46.000Z</time>
      </trkpt>
      <trkpt lat="48.69744" lon="1.68494">
        <ele>150</ele>
        <time>2014-03-05T12:23:51.000Z</time>
      </trkpt>
      <trkpt lat="48.69742" lon="1.68524">
        <ele>150</ele>
        <time>2014-03-05T12:23:55.000Z</time>
      </trkpt>
      <trkpt lat="48.69742" lon="1.68538">
        <ele>150</ele>
        <time>2014-03-05T12:23:57.000Z</time>
      </trkpt>
      <trkpt lat="48.6974" lon="1.68589">
        <ele>150.19999694824</ele>
        <time>2014-03-05T12:24:04.000Z</time>
      </trkpt>
      <trkpt lat="48.6974" lon="1.68596">
        <ele>150</ele>
        <time>2014-03-05T12:24:05.000Z</time>
      </trkpt>
      <trkpt lat="48.6974" lon="1.68622">
        <ele>149.19999694824</ele>
        <time>2014-03-05T12:24:09.000Z</time>
      </trkpt>
      <trkpt lat="48.69742" lon="1.68666">
        <ele>148.19999694824</ele>
        <time>2014-03-05T12:24:15.000Z</time>
      </trkpt>
      <trkpt lat="48.69743" lon="1.68708">
        <ele>149.19999694824</ele>
        <time>2014-03-05T12:24:20.000Z</time>
      </trkpt>
      <trkpt lat="48.69742" lon="1.68716">
        <ele>149.39999389648</ele>
        <time>2014-03-05T12:24:21.000Z</time>
      </trkpt>
      <trkpt lat="48.69743" lon="1.68731">
        <ele>149.80000305176</ele>
        <time>2014-03-05T12:24:23.000Z</time>
      </trkpt>
      <trkpt lat="48.69746" lon="1.68761">
        <ele>150.19999694824</ele>
        <time>2014-03-05T12:24:27.000Z</time>
      </trkpt>
      <trkpt lat="48.69744" lon="1.68789">
        <ele>150.19999694824</ele>
        <time>2014-03-05T12:24:31.000Z</time>
      </trkpt>
      <trkpt lat="48.69743" lon="1.68802">
        <ele>150.19999694824</ele>
        <time>2014-03-05T12:24:33.000Z</time>
      </trkpt>
      <trkpt lat="48.69745" lon="1.68822">
        <ele>150.19999694824</ele>
        <time>2014-03-05T12:24:37.000Z</time>
      </trkpt>
      <trkpt lat="48.69746" lon="1.68841">
        <ele>150.39999389648</ele>
        <time>2014-03-05T12:24:41.000Z</time>
      </trkpt>
      <trkpt lat="48.69748" lon="1.68856">
        <ele>150.39999389648</ele>
        <time>2014-03-05T12:24:46.000Z</time>
      </trkpt>
      <trkpt lat="48.69753" lon="1.68872">
        <ele>150.39999389648</ele>
        <time>2014-03-05T12:24:51.000Z</time>
      </trkpt>
      <trkpt lat="48.69753" lon="1.68878">
        <ele>150.39999389648</ele>
        <time>2014-03-05T12:24:53.000Z</time>
      </trkpt>
      <trkpt lat="48.69753" lon="1.68888">
        <ele>150.60000610352</ele>
        <time>2014-03-05T12:24:57.000Z</time>
      </trkpt>
      <trkpt lat="48.69752" lon="1.68906">
        <ele>150.80000305176</ele>
        <time>2014-03-05T12:25:05.000Z</time>
      </trkpt>
      <trkpt lat="48.69753" lon="1.6892">
        <ele>151</ele>
        <time>2014-03-05T12:25:10.000Z</time>
      </trkpt>
      <trkpt lat="48.69754" lon="1.68937">
        <ele>151.19999694824</ele>
        <time>2014-03-05T12:25:16.000Z</time>
      </trkpt>
      <trkpt lat="48.69754" lon="1.68952">
        <ele>151.39999389648</ele>
        <time>2014-03-05T12:25:22.000Z</time>
      </trkpt>
      <trkpt lat="48.69755" lon="1.68966">
        <ele>151.39999389648</ele>
        <time>2014-03-05T12:25:28.000Z</time>
      </trkpt>
      <trkpt lat="48.69756" lon="1.68981">
        <ele>151.60000610352</ele>
        <time>2014-03-05T12:25:34.000Z</time>
      </trkpt>
      <trkpt lat="48.69757" lon="1.68996">
        <ele>151.80000305176</ele>
        <time>2014-03-05T12:25:40.000Z</time>
      </trkpt>
      <trkpt lat="48.69756" lon="1.69017">
        <ele>152.39999389648</ele>
        <time>2014-03-05T12:25:48.000Z</time>
      </trkpt>
      <trkpt lat="48.69755" lon="1.69027">
        <ele>152.80000305176</ele>
        <time>2014-03-05T12:25:53.000Z</time>
      </trkpt>
      <trkpt lat="48.69755" lon="1.69041">
        <ele>153.39999389648</ele>
        <time>2014-03-05T12:25:59.000Z</time>
      </trkpt>
      <trkpt lat="48.69755" lon="1.69058">
        <ele>154</ele>
        <time>2014-03-05T12:26:06.000Z</time>
      </trkpt>
      <trkpt lat="48.69755" lon="1.69065">
        <ele>154.19999694824</ele>
        <time>2014-03-05T12:26:09.000Z</time>
      </trkpt>
      <trkpt lat="48.69758" lon="1.69075">
        <ele>154.39999389648</ele>
        <time>2014-03-05T12:26:14.000Z</time>
      </trkpt>
      <trkpt lat="48.69758" lon="1.69084">
        <ele>154.80000305176</ele>
        <time>2014-03-05T12:26:18.000Z</time>
      </trkpt>
      <trkpt lat="48.69757" lon="1.69093">
        <ele>154.80000305176</ele>
        <time>2014-03-05T12:26:22.000Z</time>
      </trkpt>
      <trkpt lat="48.69757" lon="1.69097">
        <ele>155</ele>
        <time>2014-03-05T12:26:24.000Z</time>
      </trkpt>
      <trkpt lat="48.69759" lon="1.6911">
        <ele>155</ele>
        <time>2014-03-05T12:26:30.000Z</time>
      </trkpt>
      <trkpt lat="48.69759" lon="1.69112">
        <ele>155.19999694824</ele>
        <time>2014-03-05T12:26:31.000Z</time>
      </trkpt>
      <trkpt lat="48.69759" lon="1.69125">
        <ele>155.39999389648</ele>
        <time>2014-03-05T12:26:37.000Z</time>
      </trkpt>
      <trkpt lat="48.69759" lon="1.69129">
        <ele>155.39999389648</ele>
        <time>2014-03-05T12:26:39.000Z</time>
      </trkpt>
      <trkpt lat="48.6976" lon="1.69141">
        <ele>155.39999389648</ele>
        <time>2014-03-05T12:26:44.000Z</time>
      </trkpt>
      <trkpt lat="48.69761" lon="1.6916">
        <ele>155.80000305176</ele>
        <time>2014-03-05T12:26:52.000Z</time>
      </trkpt>
      <trkpt lat="48.69764" lon="1.69172">
        <ele>155.80000305176</ele>
        <time>2014-03-05T12:26:56.000Z</time>
      </trkpt>
      <trkpt lat="48.69769" lon="1.69189">
        <ele>156</ele>
        <time>2014-03-05T12:27:03.000Z</time>
      </trkpt>
      <trkpt lat="48.69771" lon="1.69198">
        <ele>156</ele>
        <time>2014-03-05T12:27:07.000Z</time>
      </trkpt>
      <trkpt lat="48.69774" lon="1.69209">
        <ele>156.19999694824</ele>
        <time>2014-03-05T12:27:13.000Z</time>
      </trkpt>
      <trkpt lat="48.69775" lon="1.6921">
        <ele>156.19999694824</ele>
        <time>2014-03-05T12:27:20.000Z</time>
      </trkpt>
      <trkpt lat="48.69777" lon="1.69227">
        <ele>156.39999389648</ele>
        <time>2014-03-05T12:27:39.000Z</time>
      </trkpt>
      <trkpt lat="48.69781" lon="1.69244">
        <ele>156.60000610352</ele>
        <time>2014-03-05T12:27:46.000Z</time>
      </trkpt>
      <trkpt lat="48.69785" lon="1.69264">
        <ele>156.80000305176</ele>
        <time>2014-03-05T12:27:56.000Z</time>
      </trkpt>
      <trkpt lat="48.69789" lon="1.69281">
        <ele>157</ele>
        <time>2014-03-05T12:28:04.000Z</time>
      </trkpt>
      <trkpt lat="48.69792" lon="1.693">
        <ele>157</ele>
        <time>2014-03-05T12:28:13.000Z</time>
      </trkpt>
      <trkpt lat="48.69796" lon="1.69318">
        <ele>157.19999694824</ele>
        <time>2014-03-05T12:28:21.000Z</time>
      </trkpt>
      <trkpt lat="48.69796" lon="1.69321">
        <ele>157.19999694824</ele>
        <time>2014-03-05T12:28:22.000Z</time>
      </trkpt>
      <trkpt lat="48.69798" lon="1.69329">
        <ele>157.19999694824</ele>
        <time>2014-03-05T12:28:26.000Z</time>
      </trkpt>
      <trkpt lat="48.69799" lon="1.69334">
        <ele>157.39999389648</ele>
        <time>2014-03-05T12:28:29.000Z</time>
      </trkpt>
      <trkpt lat="48.69799" lon="1.69342">
        <ele>157.60000610352</ele>
        <time>2014-03-05T12:28:33.000Z</time>
      </trkpt>
      <trkpt lat="48.69801" lon="1.69356">
        <ele>158</ele>
        <time>2014-03-05T12:28:39.000Z</time>
      </trkpt>
      <trkpt lat="48.69804" lon="1.69366">
        <ele>158.39999389648</ele>
        <time>2014-03-05T12:28:44.000Z</time>
      </trkpt>
      <trkpt lat="48.69806" lon="1.69385">
        <ele>159</ele>
        <time>2014-03-05T12:28:52.000Z</time>
      </trkpt>
      <trkpt lat="48.69812" lon="1.69404">
        <ele>159.80000305176</ele>
        <time>2014-03-05T12:29:01.000Z</time>
      </trkpt>
      <trkpt lat="48.69817" lon="1.69418">
        <ele>160.60000610352</ele>
        <time>2014-03-05T12:29:08.000Z</time>
      </trkpt>
      <trkpt lat="48.69819" lon="1.69428">
        <ele>161</ele>
        <time>2014-03-05T12:29:14.000Z</time>
      </trkpt>
      <trkpt lat="48.69819" lon="1.69432">
        <ele>161</ele>
        <time>2014-03-05T12:29:16.000Z</time>
      </trkpt>
      <trkpt lat="48.6982" lon="1.69436">
        <ele>161.19999694824</ele>
        <time>2014-03-05T12:29:18.000Z</time>
      </trkpt>
      <trkpt lat="48.69825" lon="1.6945">
        <ele>162</ele>
        <time>2014-03-05T12:29:25.000Z</time>
      </trkpt>
      <trkpt lat="48.69826" lon="1.69459">
        <ele>162.19999694824</ele>
        <time>2014-03-05T12:29:29.000Z</time>
      </trkpt>
      <trkpt lat="48.69825" lon="1.69465">
        <ele>162.19999694824</ele>
        <time>2014-03-05T12:29:32.000Z</time>
      </trkpt>
      <trkpt lat="48.69821" lon="1.69476">
        <ele>162</ele>
        <time>2014-03-05T12:29:38.000Z</time>
      </trkpt>
      <trkpt lat="48.69822" lon="1.69478">
        <ele>162.19999694824</ele>
        <time>2014-03-05T12:29:41.000Z</time>
      </trkpt>
      <trkpt lat="48.69823" lon="1.69481">
        <ele>162.39999389648</ele>
        <time>2014-03-05T12:29:46.000Z</time>
      </trkpt>
      <trkpt lat="48.69833" lon="1.69498">
        <ele>163.80000305176</ele>
        <time>2014-03-05T12:30:18.000Z</time>
      </trkpt>
      <trkpt lat="48.69835" lon="1.69504">
        <ele>164</ele>
        <time>2014-03-05T12:30:21.000Z</time>
      </trkpt>
      <trkpt lat="48.69837" lon="1.69511">
        <ele>163.80000305176</ele>
        <time>2014-03-05T12:30:25.000Z</time>
      </trkpt>
      <trkpt lat="48.69841" lon="1.69524">
        <ele>163.60000610352</ele>
        <time>2014-03-05T12:30:33.000Z</time>
      </trkpt>
      <trkpt lat="48.69842" lon="1.69537">
        <ele>163.39999389648</ele>
        <time>2014-03-05T12:30:40.000Z</time>
      </trkpt>
      <trkpt lat="48.69845" lon="1.69544">
        <ele>163.19999694824</ele>
        <time>2014-03-05T12:30:44.000Z</time>
      </trkpt>
      <trkpt lat="48.69846" lon="1.69553">
        <ele>163</ele>
        <time>2014-03-05T12:30:48.000Z</time>
      </trkpt>
      <trkpt lat="48.69849" lon="1.69563">
        <ele>162.80000305176</ele>
        <time>2014-03-05T12:30:53.000Z</time>
      </trkpt>
      <trkpt lat="48.69853" lon="1.69577">
        <ele>162.60000610352</ele>
        <time>2014-03-05T12:31:00.000Z</time>
      </trkpt>
      <trkpt lat="48.69857" lon="1.69593">
        <ele>162.39999389648</ele>
        <time>2014-03-05T12:31:07.000Z</time>
      </trkpt>
      <trkpt lat="48.69863" lon="1.69606">
        <ele>162.60000610352</ele>
        <time>2014-03-05T12:31:14.000Z</time>
      </trkpt>
      <trkpt lat="48.69866" lon="1.69623">
        <ele>162.39999389648</ele>
        <time>2014-03-05T12:31:21.000Z</time>
      </trkpt>
      <trkpt lat="48.69868" lon="1.69635">
        <ele>162.39999389648</ele>
        <time>2014-03-05T12:31:28.000Z</time>
      </trkpt>
      <trkpt lat="48.69869" lon="1.69638">
        <ele>162.39999389648</ele>
        <time>2014-03-05T12:31:30.000Z</time>
      </trkpt>
      <trkpt lat="48.69874" lon="1.69654">
        <ele>162.60000610352</ele>
        <time>2014-03-05T12:31:37.000Z</time>
      </trkpt>
      <trkpt lat="48.69875" lon="1.69658">
        <ele>162.60000610352</ele>
        <time>2014-03-05T12:31:40.000Z</time>
      </trkpt>
      <trkpt lat="48.69881" lon="1.69663">
        <ele>162.80000305176</ele>
        <time>2014-03-05T12:31:46.000Z</time>
      </trkpt>
      <trkpt lat="48.69884" lon="1.69671">
        <ele>163</ele>
        <time>2014-03-05T12:31:50.000Z</time>
      </trkpt>
      <trkpt lat="48.69884" lon="1.69676">
        <ele>163.19999694824</ele>
        <time>2014-03-05T12:31:52.000Z</time>
      </trkpt>
      <trkpt lat="48.69886" lon="1.69679">
        <ele>163.39999389648</ele>
        <time>2014-03-05T12:31:54.000Z</time>
      </trkpt>
      <trkpt lat="48.69892" lon="1.69691">
        <ele>164.19999694824</ele>
        <time>2014-03-05T12:32:00.000Z</time>
      </trkpt>
      <trkpt lat="48.69894" lon="1.69702">
        <ele>164.80000305176</ele>
        <time>2014-03-05T12:32:05.000Z</time>
      </trkpt>
      <trkpt lat="48.69895" lon="1.69704">
        <ele>165</ele>
        <time>2014-03-05T12:32:06.000Z</time>
      </trkpt>
      <trkpt lat="48.69898" lon="1.69712">
        <ele>165.60000610352</ele>
        <time>2014-03-05T12:32:09.000Z</time>
      </trkpt>
      <trkpt lat="48.69903" lon="1.69724">
        <ele>166.19999694824</ele>
        <time>2014-03-05T12:32:15.000Z</time>
      </trkpt>
      <trkpt lat="48.69904" lon="1.69728">
        <ele>166.39999389648</ele>
        <time>2014-03-05T12:32:17.000Z</time>
      </trkpt>
      <trkpt lat="48.69909" lon="1.69745">
        <ele>167.39999389648</ele>
        <time>2014-03-05T12:32:25.000Z</time>
      </trkpt>
      <trkpt lat="48.6991" lon="1.69748">
        <ele>167.60000610352</ele>
        <time>2014-03-05T12:32:27.000Z</time>
      </trkpt>
      <trkpt lat="48.69915" lon="1.69765">
        <ele>168.80000305176</ele>
        <time>2014-03-05T12:32:35.000Z</time>
      </trkpt>
      <trkpt lat="48.69918" lon="1.6978">
        <ele>169.80000305176</ele>
        <time>2014-03-05T12:32:43.000Z</time>
      </trkpt>
      <trkpt lat="48.6992" lon="1.69788">
        <ele>170.39999389648</ele>
        <time>2014-03-05T12:32:47.000Z</time>
      </trkpt>
      <trkpt lat="48.69928" lon="1.69802">
        <ele>171.39999389648</ele>
        <time>2014-03-05T12:32:53.000Z</time>
      </trkpt>
      <trkpt lat="48.69932" lon="1.69816">
        <ele>172.19999694824</ele>
        <time>2014-03-05T12:32:59.000Z</time>
      </trkpt>
      <trkpt lat="48.69937" lon="1.69829">
        <ele>172.80000305176</ele>
        <time>2014-03-05T12:33:06.000Z</time>
      </trkpt>
      <trkpt lat="48.69942" lon="1.69844">
        <ele>173.39999389648</ele>
        <time>2014-03-05T12:33:12.000Z</time>
      </trkpt>
      <trkpt lat="48.69948" lon="1.69857">
        <ele>173.80000305176</ele>
        <time>2014-03-05T12:33:19.000Z</time>
      </trkpt>
      <trkpt lat="48.69949" lon="1.69862">
        <ele>173.80000305176</ele>
        <time>2014-03-05T12:33:21.000Z</time>
      </trkpt>
      <trkpt lat="48.69951" lon="1.69868">
        <ele>174</ele>
        <time>2014-03-05T12:33:25.000Z</time>
      </trkpt>
      <trkpt lat="48.69953" lon="1.69879">
        <ele>174.39999389648</ele>
        <time>2014-03-05T12:33:31.000Z</time>
      </trkpt>
      <trkpt lat="48.69958" lon="1.6989">
        <ele>174.60000610352</ele>
        <time>2014-03-05T12:33:36.000Z</time>
      </trkpt>
      <trkpt lat="48.69964" lon="1.69901">
        <ele>175</ele>
        <time>2014-03-05T12:33:42.000Z</time>
      </trkpt>
      <trkpt lat="48.69971" lon="1.69913">
        <ele>175.19999694824</ele>
        <time>2014-03-05T12:33:50.000Z</time>
      </trkpt>
      <trkpt lat="48.69977" lon="1.69923">
        <ele>175.39999389648</ele>
        <time>2014-03-05T12:33:56.000Z</time>
      </trkpt>
      <trkpt lat="48.69984" lon="1.69933">
        <ele>175.60000610352</ele>
        <time>2014-03-05T12:34:02.000Z</time>
      </trkpt>
      <trkpt lat="48.69992" lon="1.69939">
        <ele>175.60000610352</ele>
        <time>2014-03-05T12:34:07.000Z</time>
      </trkpt>
      <trkpt lat="48.69999" lon="1.69946">
        <ele>175.80000305176</ele>
        <time>2014-03-05T12:34:12.000Z</time>
      </trkpt>
      <trkpt lat="48.70004" lon="1.69951">
        <ele>176</ele>
        <time>2014-03-05T12:34:16.000Z</time>
      </trkpt>
      <trkpt lat="48.70009" lon="1.69959">
        <ele>176.39999389648</ele>
        <time>2014-03-05T12:34:22.000Z</time>
      </trkpt>
      <trkpt lat="48.7001" lon="1.69963">
        <ele>176.60000610352</ele>
        <time>2014-03-05T12:34:24.000Z</time>
      </trkpt>
      <trkpt lat="48.70015" lon="1.69972">
        <ele>177</ele>
        <time>2014-03-05T12:34:29.000Z</time>
      </trkpt>
      <trkpt lat="48.70019" lon="1.69982">
        <ele>177.39999389648</ele>
        <time>2014-03-05T12:34:34.000Z</time>
      </trkpt>
      <trkpt lat="48.70025" lon="1.69994">
        <ele>178</ele>
        <time>2014-03-05T12:34:40.000Z</time>
      </trkpt>
      <trkpt lat="48.70026" lon="1.69996">
        <ele>178.19999694824</ele>
        <time>2014-03-05T12:34:41.000Z</time>
      </trkpt>
      <trkpt lat="48.7003" lon="1.70008">
        <ele>178.60000610352</ele>
        <time>2014-03-05T12:34:46.000Z</time>
      </trkpt>
      <trkpt lat="48.70036" lon="1.70017">
        <ele>178.80000305176</ele>
        <time>2014-03-05T12:34:51.000Z</time>
      </trkpt>
      <trkpt lat="48.70043" lon="1.70026">
        <ele>179.19999694824</ele>
        <time>2014-03-05T12:34:58.000Z</time>
      </trkpt>
      <trkpt lat="48.70053" lon="1.70042">
        <ele>179.80000305176</ele>
        <time>2014-03-05T12:35:06.000Z</time>
      </trkpt>
      <trkpt lat="48.70056" lon="1.70047">
        <ele>179.80000305176</ele>
        <time>2014-03-05T12:35:09.000Z</time>
      </trkpt>
      <trkpt lat="48.70063" lon="1.70057">
        <ele>180.19999694824</ele>
        <time>2014-03-05T12:35:16.000Z</time>
      </trkpt>
      <trkpt lat="48.70064" lon="1.7006">
        <ele>180.19999694824</ele>
        <time>2014-03-05T12:35:17.000Z</time>
      </trkpt>
      <trkpt lat="48.7007" lon="1.70071">
        <ele>180.39999389648</ele>
        <time>2014-03-05T12:35:23.000Z</time>
      </trkpt>
      <trkpt lat="48.70076" lon="1.7008">
        <ele>180.80000305176</ele>
        <time>2014-03-05T12:35:29.000Z</time>
      </trkpt>
      <trkpt lat="48.70084" lon="1.70088">
        <ele>180.80000305176</ele>
        <time>2014-03-05T12:35:35.000Z</time>
      </trkpt>
      <trkpt lat="48.70085" lon="1.7009">
        <ele>180.80000305176</ele>
        <time>2014-03-05T12:35:36.000Z</time>
      </trkpt>
      <trkpt lat="48.70094" lon="1.701">
        <ele>180.60000610352</ele>
        <time>2014-03-05T12:35:42.000Z</time>
      </trkpt>
      <trkpt lat="48.701" lon="1.7011">
        <ele>180.39999389648</ele>
        <time>2014-03-05T12:35:48.000Z</time>
      </trkpt>
      <trkpt lat="48.70102" lon="1.70112">
        <ele>180.39999389648</ele>
        <time>2014-03-05T12:35:50.000Z</time>
      </trkpt>
      <trkpt lat="48.70111" lon="1.70124">
        <ele>180</ele>
        <time>2014-03-05T12:35:57.000Z</time>
      </trkpt>
      <trkpt lat="48.70116" lon="1.70137">
        <ele>179.60000610352</ele>
        <time>2014-03-05T12:36:02.000Z</time>
      </trkpt>
      <trkpt lat="48.70123" lon="1.7015">
        <ele>179.19999694824</ele>
        <time>2014-03-05T12:36:09.000Z</time>
      </trkpt>
      <trkpt lat="48.70125" lon="1.70159">
        <ele>178.80000305176</ele>
        <time>2014-03-05T12:36:14.000Z</time>
      </trkpt>
      <trkpt lat="48.70129" lon="1.70165">
        <ele>178.60000610352</ele>
        <time>2014-03-05T12:36:18.000Z</time>
      </trkpt>
      <trkpt lat="48.70134" lon="1.70182">
        <ele>178.19999694824</ele>
        <time>2014-03-05T12:36:27.000Z</time>
      </trkpt>
      <trkpt lat="48.7014" lon="1.70196">
        <ele>178</ele>
        <time>2014-03-05T12:36:34.000Z</time>
      </trkpt>
      <trkpt lat="48.70146" lon="1.70212">
        <ele>177.60000610352</ele>
        <time>2014-03-05T12:36:41.000Z</time>
      </trkpt>
      <trkpt lat="48.70152" lon="1.7023">
        <ele>177.39999389648</ele>
        <time>2014-03-05T12:36:50.000Z</time>
      </trkpt>
      <trkpt lat="48.70153" lon="1.70232">
        <ele>177.19999694824</ele>
        <time>2014-03-05T12:36:51.000Z</time>
      </trkpt>
      <trkpt lat="48.70157" lon="1.70247">
        <ele>177</ele>
        <time>2014-03-05T12:36:59.000Z</time>
      </trkpt>
      <trkpt lat="48.70159" lon="1.70251">
        <ele>177</ele>
        <time>2014-03-05T12:37:01.000Z</time>
      </trkpt>
      <trkpt lat="48.7016" lon="1.70257">
        <ele>177</ele>
        <time>2014-03-05T12:37:04.000Z</time>
      </trkpt>
      <trkpt lat="48.70163" lon="1.70265">
        <ele>177.19999694824</ele>
        <time>2014-03-05T12:37:08.000Z</time>
      </trkpt>
      <trkpt lat="48.7017" lon="1.70283">
        <ele>177.60000610352</ele>
        <time>2014-03-05T12:37:17.000Z</time>
      </trkpt>
      <trkpt lat="48.70173" lon="1.70292">
        <ele>178</ele>
        <time>2014-03-05T12:37:23.000Z</time>
      </trkpt>
      <trkpt lat="48.70173" lon="1.70292">
        <ele>178</ele>
        <time>2014-03-05T12:37:24.000Z</time>
      </trkpt>
      <trkpt lat="48.70173" lon="1.70297">
        <ele>178</ele>
        <time>2014-03-05T12:37:36.000Z</time>
      </trkpt>
      <trkpt lat="48.70176" lon="1.70301">
        <ele>178.19999694824</ele>
        <time>2014-03-05T12:37:39.000Z</time>
      </trkpt>
      <trkpt lat="48.70176" lon="1.70302">
        <ele>178.19999694824</ele>
        <time>2014-03-05T12:37:40.000Z</time>
      </trkpt>
      <trkpt lat="48.70181" lon="1.70315">
        <ele>178.60000610352</ele>
        <time>2014-03-05T12:37:47.000Z</time>
      </trkpt>
      <trkpt lat="48.70182" lon="1.70319">
        <ele>178.80000305176</ele>
        <time>2014-03-05T12:37:49.000Z</time>
      </trkpt>
      <trkpt lat="48.70188" lon="1.70335">
        <ele>179.39999389648</ele>
        <time>2014-03-05T12:37:57.000Z</time>
      </trkpt>
      <trkpt lat="48.70194" lon="1.70352">
        <ele>179.80000305176</ele>
        <time>2014-03-05T12:38:05.000Z</time>
      </trkpt>
      <trkpt lat="48.70201" lon="1.70369">
        <ele>180.39999389648</ele>
        <time>2014-03-05T12:38:12.000Z</time>
      </trkpt>
      <trkpt lat="48.70206" lon="1.70382">
        <ele>181</ele>
        <time>2014-03-05T12:38:18.000Z</time>
      </trkpt>
      <trkpt lat="48.7021" lon="1.70394">
        <ele>181.39999389648</ele>
        <time>2014-03-05T12:38:24.000Z</time>
      </trkpt>
      <trkpt lat="48.70212" lon="1.70405">
        <ele>181.60000610352</ele>
        <time>2014-03-05T12:38:29.000Z</time>
      </trkpt>
      <trkpt lat="48.70219" lon="1.70422">
        <ele>182</ele>
        <time>2014-03-05T12:38:36.000Z</time>
      </trkpt>
      <trkpt lat="48.70223" lon="1.70438">
        <ele>182</ele>
        <time>2014-03-05T12:38:43.000Z</time>
      </trkpt>
      <trkpt lat="48.70227" lon="1.70447">
        <ele>182</ele>
        <time>2014-03-05T12:38:47.000Z</time>
      </trkpt>
      <trkpt lat="48.70231" lon="1.70455">
        <ele>182</ele>
        <time>2014-03-05T12:38:51.000Z</time>
      </trkpt>
      <trkpt lat="48.70233" lon="1.70467">
        <ele>182</ele>
        <time>2014-03-05T12:38:56.000Z</time>
      </trkpt>
      <trkpt lat="48.7024" lon="1.70486">
        <ele>181.80000305176</ele>
        <time>2014-03-05T12:39:05.000Z</time>
      </trkpt>
      <trkpt lat="48.70247" lon="1.70497">
        <ele>182</ele>
        <time>2014-03-05T12:39:12.000Z</time>
      </trkpt>
      <trkpt lat="48.70249" lon="1.70506">
        <ele>182</ele>
        <time>2014-03-05T12:39:16.000Z</time>
      </trkpt>
      <trkpt lat="48.70255" lon="1.70524">
        <ele>182</ele>
        <time>2014-03-05T12:39:25.000Z</time>
      </trkpt>
      <trkpt lat="48.7026" lon="1.70536">
        <ele>182</ele>
        <time>2014-03-05T12:39:31.000Z</time>
      </trkpt>
      <trkpt lat="48.70264" lon="1.70551">
        <ele>182.19999694824</ele>
        <time>2014-03-05T12:39:39.000Z</time>
      </trkpt>
      <trkpt lat="48.70269" lon="1.70567">
        <ele>182.19999694824</ele>
        <time>2014-03-05T12:39:46.000Z</time>
      </trkpt>
      <trkpt lat="48.70269" lon="1.70569">
        <ele>182.19999694824</ele>
        <time>2014-03-05T12:39:47.000Z</time>
      </trkpt>
      <trkpt lat="48.70275" lon="1.70587">
        <ele>182.39999389648</ele>
        <time>2014-03-05T12:39:55.000Z</time>
      </trkpt>
      <trkpt lat="48.70277" lon="1.70593">
        <ele>182.60000610352</ele>
        <time>2014-03-05T12:39:58.000Z</time>
      </trkpt>
      <trkpt lat="48.70277" lon="1.70597">
        <ele>182.60000610352</ele>
        <time>2014-03-05T12:40:00.000Z</time>
      </trkpt>
      <trkpt lat="48.70282" lon="1.7061">
        <ele>183</ele>
        <time>2014-03-05T12:40:07.000Z</time>
      </trkpt>
      <trkpt lat="48.70288" lon="1.70625">
        <ele>183.19999694824</ele>
        <time>2014-03-05T12:40:15.000Z</time>
      </trkpt>
      <trkpt lat="48.70291" lon="1.70632">
        <ele>183.39999389648</ele>
        <time>2014-03-05T12:40:19.000Z</time>
      </trkpt>
      <trkpt lat="48.70295" lon="1.7064">
        <ele>183.60000610352</ele>
        <time>2014-03-05T12:40:24.000Z</time>
      </trkpt>
      <trkpt lat="48.70299" lon="1.70648">
        <ele>184</ele>
        <time>2014-03-05T12:40:29.000Z</time>
      </trkpt>
      <trkpt lat="48.70303" lon="1.7066">
        <ele>184.19999694824</ele>
        <time>2014-03-05T12:40:35.000Z</time>
      </trkpt>
      <trkpt lat="48.70303" lon="1.70662">
        <ele>184.19999694824</ele>
        <time>2014-03-05T12:40:36.000Z</time>
      </trkpt>
      <trkpt lat="48.70306" lon="1.70677">
        <ele>184.19999694824</ele>
        <time>2014-03-05T12:40:42.000Z</time>
      </trkpt>
      <trkpt lat="48.70306" lon="1.70679">
        <ele>184.19999694824</ele>
        <time>2014-03-05T12:40:43.000Z</time>
      </trkpt>
      <trkpt lat="48.70307" lon="1.70684">
        <ele>184.19999694824</ele>
        <time>2014-03-05T12:40:45.000Z</time>
      </trkpt>
      <trkpt lat="48.70313" lon="1.70695">
        <ele>184.39999389648</ele>
        <time>2014-03-05T12:40:51.000Z</time>
      </trkpt>
      <trkpt lat="48.70313" lon="1.70697">
        <ele>184.39999389648</ele>
        <time>2014-03-05T12:40:52.000Z</time>
      </trkpt>
      <trkpt lat="48.70319" lon="1.7071">
        <ele>184.39999389648</ele>
        <time>2014-03-05T12:40:58.000Z</time>
      </trkpt>
      <trkpt lat="48.70325" lon="1.70722">
        <ele>184.39999389648</ele>
        <time>2014-03-05T12:41:05.000Z</time>
      </trkpt>
      <trkpt lat="48.70328" lon="1.70734">
        <ele>184.19999694824</ele>
        <time>2014-03-05T12:41:11.000Z</time>
      </trkpt>
      <trkpt lat="48.70331" lon="1.70741">
        <ele>184.19999694824</ele>
        <time>2014-03-05T12:41:14.000Z</time>
      </trkpt>
      <trkpt lat="48.70333" lon="1.70747">
        <ele>184</ele>
        <time>2014-03-05T12:41:17.000Z</time>
      </trkpt>
      <trkpt lat="48.70335" lon="1.70758">
        <ele>184.19999694824</ele>
        <time>2014-03-05T12:41:24.000Z</time>
      </trkpt>
      <trkpt lat="48.70339" lon="1.70769">
        <ele>184.60000610352</ele>
        <time>2014-03-05T12:41:30.000Z</time>
      </trkpt>
      <trkpt lat="48.7034" lon="1.70778">
        <ele>184.80000305176</ele>
        <time>2014-03-05T12:41:34.000Z</time>
      </trkpt>
      <trkpt lat="48.70348" lon="1.70794">
        <ele>185.39999389648</ele>
        <time>2014-03-05T12:41:40.000Z</time>
      </trkpt>
      <trkpt lat="48.70348" lon="1.70798">
        <ele>185.39999389648</ele>
        <time>2014-03-05T12:41:42.000Z</time>
      </trkpt>
      <trkpt lat="48.70353" lon="1.70809">
        <ele>185.80000305176</ele>
        <time>2014-03-05T12:41:48.000Z</time>
      </trkpt>
      <trkpt lat="48.70359" lon="1.7082">
        <ele>186</ele>
        <time>2014-03-05T12:41:54.000Z</time>
      </trkpt>
      <trkpt lat="48.70364" lon="1.70833">
        <ele>186.39999389648</ele>
        <time>2014-03-05T12:42:01.000Z</time>
      </trkpt>
      <trkpt lat="48.70367" lon="1.70844">
        <ele>186.39999389648</ele>
        <time>2014-03-05T12:42:06.000Z</time>
      </trkpt>
      <trkpt lat="48.70369" lon="1.70854">
        <ele>186.60000610352</ele>
        <time>2014-03-05T12:42:11.000Z</time>
      </trkpt>
      <trkpt lat="48.70372" lon="1.7086">
        <ele>186.60000610352</ele>
        <time>2014-03-05T12:42:14.000Z</time>
      </trkpt>
      <trkpt lat="48.70372" lon="1.70862">
        <ele>186.60000610352</ele>
        <time>2014-03-05T12:42:15.000Z</time>
      </trkpt>
      <trkpt lat="48.70376" lon="1.70875">
        <ele>186.80000305176</ele>
        <time>2014-03-05T12:42:21.000Z</time>
      </trkpt>
      <trkpt lat="48.7038" lon="1.70882">
        <ele>186.80000305176</ele>
        <time>2014-03-05T12:42:25.000Z</time>
      </trkpt>
      <trkpt lat="48.70386" lon="1.70899">
        <ele>187</ele>
        <time>2014-03-05T12:42:33.000Z</time>
      </trkpt>
      <trkpt lat="48.70393" lon="1.70919">
        <ele>187</ele>
        <time>2014-03-05T12:42:42.000Z</time>
      </trkpt>
      <trkpt lat="48.70397" lon="1.70936">
        <ele>187</ele>
        <time>2014-03-05T12:42:49.000Z</time>
      </trkpt>
      <trkpt lat="48.70402" lon="1.7095">
        <ele>187</ele>
        <time>2014-03-05T12:42:55.000Z</time>
      </trkpt>
      <trkpt lat="48.70406" lon="1.70961">
        <ele>187</ele>
        <time>2014-03-05T12:43:01.000Z</time>
      </trkpt>
      <trkpt lat="48.70406" lon="1.70969">
        <ele>187</ele>
        <time>2014-03-05T12:43:06.000Z</time>
      </trkpt>
      <trkpt lat="48.70408" lon="1.70979">
        <ele>187</ele>
        <time>2014-03-05T12:43:10.000Z</time>
      </trkpt>
      <trkpt lat="48.70414" lon="1.70987">
        <ele>187</ele>
        <time>2014-03-05T12:43:15.000Z</time>
      </trkpt>
      <trkpt lat="48.7042" lon="1.71002">
        <ele>186.80000305176</ele>
        <time>2014-03-05T12:43:22.000Z</time>
      </trkpt>
      <trkpt lat="48.70427" lon="1.71016">
        <ele>186.39999389648</ele>
        <time>2014-03-05T12:43:29.000Z</time>
      </trkpt>
      <trkpt lat="48.70431" lon="1.71026">
        <ele>186</ele>
        <time>2014-03-05T12:43:35.000Z</time>
      </trkpt>
      <trkpt lat="48.70433" lon="1.71037">
        <ele>185.80000305176</ele>
        <time>2014-03-05T12:43:40.000Z</time>
      </trkpt>
      <trkpt lat="48.70436" lon="1.71049">
        <ele>185.60000610352</ele>
        <time>2014-03-05T12:43:46.000Z</time>
      </trkpt>
      <trkpt lat="48.70439" lon="1.71056">
        <ele>185.39999389648</ele>
        <time>2014-03-05T12:43:50.000Z</time>
      </trkpt>
      <trkpt lat="48.70442" lon="1.71064">
        <ele>185.19999694824</ele>
        <time>2014-03-05T12:43:55.000Z</time>
      </trkpt>
      <trkpt lat="48.70446" lon="1.71073">
        <ele>185.19999694824</ele>
        <time>2014-03-05T12:43:59.000Z</time>
      </trkpt>
      <trkpt lat="48.70449" lon="1.7108">
        <ele>185</ele>
        <time>2014-03-05T12:44:02.000Z</time>
      </trkpt>
      <trkpt lat="48.70452" lon="1.71093">
        <ele>185</ele>
        <time>2014-03-05T12:44:09.000Z</time>
      </trkpt>
      <trkpt lat="48.70453" lon="1.71106">
        <ele>185.19999694824</ele>
        <time>2014-03-05T12:44:16.000Z</time>
      </trkpt>
      <trkpt lat="48.70458" lon="1.71113">
        <ele>185.19999694824</ele>
        <time>2014-03-05T12:44:21.000Z</time>
      </trkpt>
      <trkpt lat="48.70459" lon="1.71115">
        <ele>185.19999694824</ele>
        <time>2014-03-05T12:44:22.000Z</time>
      </trkpt>
      <trkpt lat="48.70466" lon="1.7113">
        <ele>185.19999694824</ele>
        <time>2014-03-05T12:44:30.000Z</time>
      </trkpt>
      <trkpt lat="48.70472" lon="1.71136">
        <ele>185.19999694824</ele>
        <time>2014-03-05T12:44:35.000Z</time>
      </trkpt>
      <trkpt lat="48.70481" lon="1.71143">
        <ele>185.19999694824</ele>
        <time>2014-03-05T12:44:41.000Z</time>
      </trkpt>
      <trkpt lat="48.70487" lon="1.71154">
        <ele>185.19999694824</ele>
        <time>2014-03-05T12:44:47.000Z</time>
      </trkpt>
      <trkpt lat="48.70496" lon="1.71175">
        <ele>185.19999694824</ele>
        <time>2014-03-05T12:44:56.000Z</time>
      </trkpt>
      <trkpt lat="48.70496" lon="1.71189">
        <ele>185.39999389648</ele>
        <time>2014-03-05T12:45:02.000Z</time>
      </trkpt>
      <trkpt lat="48.70494" lon="1.71199">
        <ele>185.39999389648</ele>
        <time>2014-03-05T12:45:08.000Z</time>
      </trkpt>
      <trkpt lat="48.70494" lon="1.712">
        <ele>185.39999389648</ele>
        <time>2014-03-05T12:45:09.000Z</time>
      </trkpt>
      <trkpt lat="48.70498" lon="1.71203">
        <ele>185.39999389648</ele>
        <time>2014-03-05T12:45:17.000Z</time>
      </trkpt>
      <trkpt lat="48.705" lon="1.71203">
        <ele>185.39999389648</ele>
        <time>2014-03-05T12:45:21.000Z</time>
      </trkpt>
      <trkpt lat="48.70489" lon="1.71207">
        <ele>185.60000610352</ele>
        <time>2014-03-05T12:45:41.000Z</time>
      </trkpt>
      <trkpt lat="48.7049" lon="1.71208">
        <ele>185.60000610352</ele>
        <time>2014-03-05T12:45:44.000Z</time>
      </trkpt>
      <trkpt lat="48.7049" lon="1.71218">
        <ele>185.80000305176</ele>
        <time>2014-03-05T12:45:50.000Z</time>
      </trkpt>
      <trkpt lat="48.70489" lon="1.71221">
        <ele>185.80000305176</ele>
        <time>2014-03-05T12:45:51.000Z</time>
      </trkpt>
      <trkpt lat="48.70488" lon="1.71225">
        <ele>185.80000305176</ele>
        <time>2014-03-05T12:45:54.000Z</time>
      </trkpt>
      <trkpt lat="48.70485" lon="1.71234">
        <ele>186</ele>
        <time>2014-03-05T12:46:01.000Z</time>
      </trkpt>
      <trkpt lat="48.70482" lon="1.71241">
        <ele>186.19999694824</ele>
        <time>2014-03-05T12:46:06.000Z</time>
      </trkpt>
      <trkpt lat="48.70481" lon="1.71243">
        <ele>186.19999694824</ele>
        <time>2014-03-05T12:46:07.000Z</time>
      </trkpt>
      <trkpt lat="48.70477" lon="1.71257">
        <ele>186.39999389648</ele>
        <time>2014-03-05T12:46:14.000Z</time>
      </trkpt>
      <trkpt lat="48.70477" lon="1.71259">
        <ele>186.39999389648</ele>
        <time>2014-03-05T12:46:15.000Z</time>
      </trkpt>
      <trkpt lat="48.70475" lon="1.71274">
        <ele>186.60000610352</ele>
        <time>2014-03-05T12:46:21.000Z</time>
      </trkpt>
      <trkpt lat="48.70472" lon="1.71284">
        <ele>186.80000305176</ele>
        <time>2014-03-05T12:46:25.000Z</time>
      </trkpt>
      <trkpt lat="48.70469" lon="1.71298">
        <ele>186.80000305176</ele>
        <time>2014-03-05T12:46:31.000Z</time>
      </trkpt>
      <trkpt lat="48.70465" lon="1.71315">
        <ele>187</ele>
        <time>2014-03-05T12:46:39.000Z</time>
      </trkpt>
      <trkpt lat="48.70463" lon="1.71323">
        <ele>187</ele>
        <time>2014-03-05T12:46:43.000Z</time>
      </trkpt>
      <trkpt lat="48.70463" lon="1.71332">
        <ele>187.19999694824</ele>
        <time>2014-03-05T12:46:47.000Z</time>
      </trkpt>
      <trkpt lat="48.7046" lon="1.71347">
        <ele>187</ele>
        <time>2014-03-05T12:46:53.000Z</time>
      </trkpt>
      <trkpt lat="48.70459" lon="1.71352">
        <ele>187</ele>
        <time>2014-03-05T12:46:55.000Z</time>
      </trkpt>
      <trkpt lat="48.70454" lon="1.71365">
        <ele>186.80000305176</ele>
        <time>2014-03-05T12:47:01.000Z</time>
      </trkpt>
      <trkpt lat="48.70451" lon="1.71376">
        <ele>186.80000305176</ele>
        <time>2014-03-05T12:47:06.000Z</time>
      </trkpt>
      <trkpt lat="48.7045" lon="1.71381">
        <ele>186.80000305176</ele>
        <time>2014-03-05T12:47:08.000Z</time>
      </trkpt>
      <trkpt lat="48.70447" lon="1.71391">
        <ele>186.60000610352</ele>
        <time>2014-03-05T12:47:13.000Z</time>
      </trkpt>
      <trkpt lat="48.70444" lon="1.71404">
        <ele>186.39999389648</ele>
        <time>2014-03-05T12:47:19.000Z</time>
      </trkpt>
      <trkpt lat="48.70441" lon="1.7142">
        <ele>186.19999694824</ele>
        <time>2014-03-05T12:47:25.000Z</time>
      </trkpt>
      <trkpt lat="48.70438" lon="1.71442">
        <ele>186</ele>
        <time>2014-03-05T12:47:30.000Z</time>
      </trkpt>
      <trkpt lat="48.70434" lon="1.71467">
        <ele>186</ele>
        <time>2014-03-05T12:47:35.000Z</time>
      </trkpt>
      <trkpt lat="48.70429" lon="1.71493">
        <ele>186</ele>
        <time>2014-03-05T12:47:40.000Z</time>
      </trkpt>
      <trkpt lat="48.70421" lon="1.7152">
        <ele>185.80000305176</ele>
        <time>2014-03-05T12:47:45.000Z</time>
      </trkpt>
      <trkpt lat="48.70417" lon="1.71548">
        <ele>185.39999389648</ele>
        <time>2014-03-05T12:47:50.000Z</time>
      </trkpt>
      <trkpt lat="48.70413" lon="1.71566">
        <ele>185.19999694824</ele>
        <time>2014-03-05T12:47:53.000Z</time>
      </trkpt>
      <trkpt lat="48.70403" lon="1.71605">
        <ele>185</ele>
        <time>2014-03-05T12:47:59.000Z</time>
      </trkpt>
      <trkpt lat="48.70396" lon="1.71636">
        <ele>185.19999694824</ele>
        <time>2014-03-05T12:48:04.000Z</time>
      </trkpt>
      <trkpt lat="48.70394" lon="1.71655">
        <ele>185.39999389648</ele>
        <time>2014-03-05T12:48:07.000Z</time>
      </trkpt>
      <trkpt lat="48.70393" lon="1.71667">
        <ele>185.39999389648</ele>
        <time>2014-03-05T12:48:09.000Z</time>
      </trkpt>
      <trkpt lat="48.70389" lon="1.7169">
        <ele>185.80000305176</ele>
        <time>2014-03-05T12:48:13.000Z</time>
      </trkpt>
      <trkpt lat="48.70384" lon="1.71717">
        <ele>186</ele>
        <time>2014-03-05T12:48:17.000Z</time>
      </trkpt>
      <trkpt lat="48.70379" lon="1.7174">
        <ele>186.39999389648</ele>
        <time>2014-03-05T12:48:21.000Z</time>
      </trkpt>
      <trkpt lat="48.70375" lon="1.71755">
        <ele>186.39999389648</ele>
        <time>2014-03-05T12:48:24.000Z</time>
      </trkpt>
      <trkpt lat="48.70368" lon="1.71785">
        <ele>185.80000305176</ele>
        <time>2014-03-05T12:48:29.000Z</time>
      </trkpt>
      <trkpt lat="48.70361" lon="1.71814">
        <ele>185</ele>
        <time>2014-03-05T12:48:34.000Z</time>
      </trkpt>
      <trkpt lat="48.70357" lon="1.71839">
        <ele>184.60000610352</ele>
        <time>2014-03-05T12:48:38.000Z</time>
      </trkpt>
      <trkpt lat="48.70353" lon="1.71859">
        <ele>184.19999694824</ele>
        <time>2014-03-05T12:48:41.000Z</time>
      </trkpt>
      <trkpt lat="48.70347" lon="1.71889">
        <ele>183.60000610352</ele>
        <time>2014-03-05T12:48:46.000Z</time>
      </trkpt>
      <trkpt lat="48.70336" lon="1.71926">
        <ele>183</ele>
        <time>2014-03-05T12:48:53.000Z</time>
      </trkpt>
      <trkpt lat="48.70332" lon="1.7195">
        <ele>183</ele>
        <time>2014-03-05T12:48:57.000Z</time>
      </trkpt>
      <trkpt lat="48.70322" lon="1.71991">
        <ele>182.39999389648</ele>
        <time>2014-03-05T12:49:03.000Z</time>
      </trkpt>
      <trkpt lat="48.70312" lon="1.72028">
        <ele>182.60000610352</ele>
        <time>2014-03-05T12:49:08.000Z</time>
      </trkpt>
      <trkpt lat="48.70311" lon="1.72035">
        <ele>182.60000610352</ele>
        <time>2014-03-05T12:49:09.000Z</time>
      </trkpt>
      <trkpt lat="48.70307" lon="1.72048">
        <ele>182.80000305176</ele>
        <time>2014-03-05T12:49:11.000Z</time>
      </trkpt>
      <trkpt lat="48.70298" lon="1.72082">
        <ele>183.19999694824</ele>
        <time>2014-03-05T12:49:16.000Z</time>
      </trkpt>
      <trkpt lat="48.70297" lon="1.7209">
        <ele>183.39999389648</ele>
        <time>2014-03-05T12:49:17.000Z</time>
      </trkpt>
      <trkpt lat="48.70294" lon="1.72111">
        <ele>183.80000305176</ele>
        <time>2014-03-05T12:49:20.000Z</time>
      </trkpt>
      <trkpt lat="48.70289" lon="1.7214">
        <ele>184.19999694824</ele>
        <time>2014-03-05T12:49:24.000Z</time>
      </trkpt>
      <trkpt lat="48.70286" lon="1.72163">
        <ele>184.80000305176</ele>
        <time>2014-03-05T12:49:27.000Z</time>
      </trkpt>
      <trkpt lat="48.7028" lon="1.7219">
        <ele>184.80000305176</ele>
        <time>2014-03-05T12:49:31.000Z</time>
      </trkpt>
      <trkpt lat="48.70273" lon="1.72224">
        <ele>185</ele>
        <time>2014-03-05T12:49:36.000Z</time>
      </trkpt>
      <trkpt lat="48.70268" lon="1.72269">
        <ele>185.19999694824</ele>
        <time>2014-03-05T12:49:42.000Z</time>
      </trkpt>
      <trkpt lat="48.70264" lon="1.72284">
        <ele>185</ele>
        <time>2014-03-05T12:49:44.000Z</time>
      </trkpt>
      <trkpt lat="48.70255" lon="1.72315">
        <ele>185</ele>
        <time>2014-03-05T12:49:48.000Z</time>
      </trkpt>
      <trkpt lat="48.7025" lon="1.72345">
        <ele>184.60000610352</ele>
        <time>2014-03-05T12:49:52.000Z</time>
      </trkpt>
      <trkpt lat="48.70246" lon="1.72364">
        <ele>184</ele>
        <time>2014-03-05T12:49:55.000Z</time>
      </trkpt>
      <trkpt lat="48.70242" lon="1.72398">
        <ele>183</ele>
        <time>2014-03-05T12:50:00.000Z</time>
      </trkpt>
      <trkpt lat="48.70235" lon="1.72424">
        <ele>182.60000610352</ele>
        <time>2014-03-05T12:50:04.000Z</time>
      </trkpt>
      <trkpt lat="48.70229" lon="1.72454">
        <ele>182.19999694824</ele>
        <time>2014-03-05T12:50:09.000Z</time>
      </trkpt>
      <trkpt lat="48.70222" lon="1.72481">
        <ele>182</ele>
        <time>2014-03-05T12:50:14.000Z</time>
      </trkpt>
      <trkpt lat="48.70217" lon="1.72503">
        <ele>181.80000305176</ele>
        <time>2014-03-05T12:50:18.000Z</time>
      </trkpt>
      <trkpt lat="48.70213" lon="1.72527">
        <ele>181.60000610352</ele>
        <time>2014-03-05T12:50:23.000Z</time>
      </trkpt>
      <trkpt lat="48.70208" lon="1.72546">
        <ele>181.39999389648</ele>
        <time>2014-03-05T12:50:27.000Z</time>
      </trkpt>
      <trkpt lat="48.70201" lon="1.72581">
        <ele>181.19999694824</ele>
        <time>2014-03-05T12:50:33.000Z</time>
      </trkpt>
      <trkpt lat="48.70197" lon="1.72599">
        <ele>180.80000305176</ele>
        <time>2014-03-05T12:50:36.000Z</time>
      </trkpt>
      <trkpt lat="48.7019" lon="1.72623">
        <ele>180.60000610352</ele>
        <time>2014-03-05T12:50:40.000Z</time>
      </trkpt>
      <trkpt lat="48.70176" lon="1.72673">
        <ele>179.19999694824</ele>
        <time>2014-03-05T12:50:48.000Z</time>
      </trkpt>
      <trkpt lat="48.70174" lon="1.72684">
        <ele>179</ele>
        <time>2014-03-05T12:50:50.000Z</time>
      </trkpt>
      <trkpt lat="48.70172" lon="1.72693">
        <ele>178.60000610352</ele>
        <time>2014-03-05T12:50:52.000Z</time>
      </trkpt>
      <trkpt lat="48.70165" lon="1.72718">
        <ele>177.60000610352</ele>
        <time>2014-03-05T12:50:58.000Z</time>
      </trkpt>
      <trkpt lat="48.70154" lon="1.72752">
        <ele>176.60000610352</ele>
        <time>2014-03-05T12:51:05.000Z</time>
      </trkpt>
      <trkpt lat="48.70144" lon="1.72783">
        <ele>176.80000305176</ele>
        <time>2014-03-05T12:51:11.000Z</time>
      </trkpt>
      <trkpt lat="48.70137" lon="1.72804">
        <ele>177</ele>
        <time>2014-03-05T12:51:15.000Z</time>
      </trkpt>
      <trkpt lat="48.70128" lon="1.7283">
        <ele>177.39999389648</ele>
        <time>2014-03-05T12:51:21.000Z</time>
      </trkpt>
      <trkpt lat="48.70122" lon="1.72848">
        <ele>177.39999389648</ele>
        <time>2014-03-05T12:51:27.000Z</time>
      </trkpt>
      <trkpt lat="48.70122" lon="1.7285">
        <ele>177.39999389648</ele>
        <time>2014-03-05T12:51:28.000Z</time>
      </trkpt>
      <trkpt lat="48.70118" lon="1.72873">
        <ele>177.39999389648</ele>
        <time>2014-03-05T12:51:33.000Z</time>
      </trkpt>
      <trkpt lat="48.70107" lon="1.72903">
        <ele>177.60000610352</ele>
        <time>2014-03-05T12:51:39.000Z</time>
      </trkpt>
      <trkpt lat="48.70095" lon="1.72943">
        <ele>178.60000610352</ele>
        <time>2014-03-05T12:51:47.000Z</time>
      </trkpt>
      <trkpt lat="48.70082" lon="1.72978">
        <ele>179.80000305176</ele>
        <time>2014-03-05T12:51:54.000Z</time>
      </trkpt>
      <trkpt lat="48.70074" lon="1.72997">
        <ele>180.80000305176</ele>
        <time>2014-03-05T12:52:00.000Z</time>
      </trkpt>
      <trkpt lat="48.70071" lon="1.73009">
        <ele>181.39999389648</ele>
        <time>2014-03-05T12:52:06.000Z</time>
      </trkpt>
      <trkpt lat="48.70066" lon="1.73024">
        <ele>182</ele>
        <time>2014-03-05T12:52:13.000Z</time>
      </trkpt>
      <trkpt lat="48.70063" lon="1.7304">
        <ele>182.39999389648</ele>
        <time>2014-03-05T12:52:19.000Z</time>
      </trkpt>
      <trkpt lat="48.70063" lon="1.73042">
        <ele>182.39999389648</ele>
        <time>2014-03-05T12:52:20.000Z</time>
      </trkpt>
      <trkpt lat="48.70061" lon="1.73058">
        <ele>182.80000305176</ele>
        <time>2014-03-05T12:52:27.000Z</time>
      </trkpt>
      <trkpt lat="48.70055" lon="1.73076">
        <ele>183.39999389648</ele>
        <time>2014-03-05T12:52:35.000Z</time>
      </trkpt>
      <trkpt lat="48.70053" lon="1.7308">
        <ele>183.39999389648</ele>
        <time>2014-03-05T12:52:37.000Z</time>
      </trkpt>
      <trkpt lat="48.70049" lon="1.73085">
        <ele>183.60000610352</ele>
        <time>2014-03-05T12:52:44.000Z</time>
      </trkpt>
      <trkpt lat="48.70047" lon="1.73089">
        <ele>183.60000610352</ele>
        <time>2014-03-05T12:52:49.000Z</time>
      </trkpt>
      <trkpt lat="48.70049" lon="1.73088">
        <ele>183.60000610352</ele>
        <time>2014-03-05T12:52:52.000Z</time>
      </trkpt>
      <trkpt lat="48.7005" lon="1.73089">
        <ele>183.39999389648</ele>
        <time>2014-03-05T12:52:54.000Z</time>
      </trkpt>
      <trkpt lat="48.70046" lon="1.73102">
        <ele>183.19999694824</ele>
        <time>2014-03-05T12:53:00.000Z</time>
      </trkpt>
      <trkpt lat="48.70043" lon="1.73109">
        <ele>183.19999694824</ele>
        <time>2014-03-05T12:53:03.000Z</time>
      </trkpt>
      <trkpt lat="48.70041" lon="1.73111">
        <ele>183.19999694824</ele>
        <time>2014-03-05T12:53:05.000Z</time>
      </trkpt>
      <trkpt lat="48.70036" lon="1.73129">
        <ele>182.80000305176</ele>
        <time>2014-03-05T12:53:13.000Z</time>
      </trkpt>
      <trkpt lat="48.70032" lon="1.7314">
        <ele>182.60000610352</ele>
        <time>2014-03-05T12:53:18.000Z</time>
      </trkpt>
      <trkpt lat="48.70027" lon="1.73153">
        <ele>182.19999694824</ele>
        <time>2014-03-05T12:53:25.000Z</time>
      </trkpt>
      <trkpt lat="48.70019" lon="1.73168">
        <ele>181.80000305176</ele>
        <time>2014-03-05T12:53:33.000Z</time>
      </trkpt>
      <trkpt lat="48.70014" lon="1.73178">
        <ele>181.39999389648</ele>
        <time>2014-03-05T12:53:39.000Z</time>
      </trkpt>
      <trkpt lat="48.70007" lon="1.73193">
        <ele>180.80000305176</ele>
        <time>2014-03-05T12:53:46.000Z</time>
      </trkpt>
      <trkpt lat="48.70003" lon="1.73202">
        <ele>180.39999389648</ele>
        <time>2014-03-05T12:53:51.000Z</time>
      </trkpt>
      <trkpt lat="48.69997" lon="1.73218">
        <ele>179.39999389648</ele>
        <time>2014-03-05T12:53:59.000Z</time>
      </trkpt>
      <trkpt lat="48.69997" lon="1.7322">
        <ele>179.39999389648</ele>
        <time>2014-03-05T12:54:00.000Z</time>
      </trkpt>
      <trkpt lat="48.69994" lon="1.73227">
        <ele>178.80000305176</ele>
        <time>2014-03-05T12:54:05.000Z</time>
      </trkpt>
      <trkpt lat="48.69987" lon="1.73234">
        <ele>178.19999694824</ele>
        <time>2014-03-05T12:54:10.000Z</time>
      </trkpt>
      <trkpt lat="48.69979" lon="1.73246">
        <ele>177.39999389648</ele>
        <time>2014-03-05T12:54:17.000Z</time>
      </trkpt>
      <trkpt lat="48.69978" lon="1.73248">
        <ele>177.19999694824</ele>
        <time>2014-03-05T12:54:19.000Z</time>
      </trkpt>
      <trkpt lat="48.69977" lon="1.73252">
        <ele>177.19999694824</ele>
        <time>2014-03-05T12:54:24.000Z</time>
      </trkpt>
      <trkpt lat="48.6997" lon="1.73268">
        <ele>177.19999694824</ele>
        <time>2014-03-05T12:55:22.000Z</time>
      </trkpt>
      <trkpt lat="48.69967" lon="1.73272">
        <ele>177.19999694824</ele>
        <time>2014-03-05T12:55:24.000Z</time>
      </trkpt>
      <trkpt lat="48.69964" lon="1.73279">
        <ele>177.19999694824</ele>
        <time>2014-03-05T12:55:28.000Z</time>
      </trkpt>
      <trkpt lat="48.69956" lon="1.73293">
        <ele>177.19999694824</ele>
        <time>2014-03-05T12:55:36.000Z</time>
      </trkpt>
      <trkpt lat="48.69951" lon="1.73305">
        <ele>177.19999694824</ele>
        <time>2014-03-05T12:55:43.000Z</time>
      </trkpt>
      <trkpt lat="48.69945" lon="1.73315">
        <ele>177.39999389648</ele>
        <time>2014-03-05T12:55:50.000Z</time>
      </trkpt>
      <trkpt lat="48.6994" lon="1.73326">
        <ele>177.39999389648</ele>
        <time>2014-03-05T12:55:56.000Z</time>
      </trkpt>
      <trkpt lat="48.69935" lon="1.73333">
        <ele>177.39999389648</ele>
        <time>2014-03-05T12:56:02.000Z</time>
      </trkpt>
      <trkpt lat="48.69929" lon="1.73347">
        <ele>177.60000610352</ele>
        <time>2014-03-05T12:56:09.000Z</time>
      </trkpt>
      <trkpt lat="48.69926" lon="1.73354">
        <ele>177.60000610352</ele>
        <time>2014-03-05T12:56:14.000Z</time>
      </trkpt>
      <trkpt lat="48.69926" lon="1.73356">
        <ele>177.60000610352</ele>
        <time>2014-03-05T12:56:17.000Z</time>
      </trkpt>
      <trkpt lat="48.69923" lon="1.73363">
        <ele>177.80000305176</ele>
        <time>2014-03-05T12:56:23.000Z</time>
      </trkpt>
      <trkpt lat="48.69918" lon="1.73371">
        <ele>178</ele>
        <time>2014-03-05T12:56:26.000Z</time>
      </trkpt>
      <trkpt lat="48.69916" lon="1.73377">
        <ele>178</ele>
        <time>2014-03-05T12:56:29.000Z</time>
      </trkpt>
      <trkpt lat="48.69909" lon="1.73391">
        <ele>178.39999389648</ele>
        <time>2014-03-05T12:56:37.000Z</time>
      </trkpt>
      <trkpt lat="48.69908" lon="1.73394">
        <ele>178.39999389648</ele>
        <time>2014-03-05T12:56:39.000Z</time>
      </trkpt>
      <trkpt lat="48.69904" lon="1.73401">
        <ele>178.60000610352</ele>
        <time>2014-03-05T12:56:43.000Z</time>
      </trkpt>
      <trkpt lat="48.69896" lon="1.73416">
        <ele>179</ele>
        <time>2014-03-05T12:56:51.000Z</time>
      </trkpt>
      <trkpt lat="48.69891" lon="1.73426">
        <ele>178.80000305176</ele>
        <time>2014-03-05T12:56:57.000Z</time>
      </trkpt>
      <trkpt lat="48.69885" lon="1.73431">
        <ele>178.60000610352</ele>
        <time>2014-03-05T12:57:02.000Z</time>
      </trkpt>
      <trkpt lat="48.6988" lon="1.73445">
        <ele>178.39999389648</ele>
        <time>2014-03-05T12:57:09.000Z</time>
      </trkpt>
      <trkpt lat="48.69877" lon="1.73453">
        <ele>178.39999389648</ele>
        <time>2014-03-05T12:57:13.000Z</time>
      </trkpt>
      <trkpt lat="48.69878" lon="1.73454">
        <ele>178.19999694824</ele>
        <time>2014-03-05T12:57:16.000Z</time>
      </trkpt>
      <trkpt lat="48.69878" lon="1.73465">
        <ele>178</ele>
        <time>2014-03-05T12:57:28.000Z</time>
      </trkpt>
      <trkpt lat="48.69883" lon="1.73476">
        <ele>177.80000305176</ele>
        <time>2014-03-05T12:57:33.000Z</time>
      </trkpt>
      <trkpt lat="48.69887" lon="1.73487">
        <ele>177.39999389648</ele>
        <time>2014-03-05T12:57:38.000Z</time>
      </trkpt>
      <trkpt lat="48.69889" lon="1.73491">
        <ele>177.19999694824</ele>
        <time>2014-03-05T12:57:40.000Z</time>
      </trkpt>
      <trkpt lat="48.69893" lon="1.73499">
        <ele>176.80000305176</ele>
        <time>2014-03-05T12:57:45.000Z</time>
      </trkpt>
      <trkpt lat="48.69898" lon="1.73507">
        <ele>176.60000610352</ele>
        <time>2014-03-05T12:57:52.000Z</time>
      </trkpt>
      <trkpt lat="48.69904" lon="1.73512">
        <ele>176.39999389648</ele>
        <time>2014-03-05T12:57:57.000Z</time>
      </trkpt>
      <trkpt lat="48.69909" lon="1.73516">
        <ele>176.19999694824</ele>
        <time>2014-03-05T12:58:05.000Z</time>
      </trkpt>
      <trkpt lat="48.69917" lon="1.73523">
        <ele>176</ele>
        <time>2014-03-05T12:58:10.000Z</time>
      </trkpt>
      <trkpt lat="48.69922" lon="1.73529">
        <ele>176</ele>
        <time>2014-03-05T12:58:13.000Z</time>
      </trkpt>
      <trkpt lat="48.69927" lon="1.73535">
        <ele>176</ele>
        <time>2014-03-05T12:58:18.000Z</time>
      </trkpt>
      <trkpt lat="48.69935" lon="1.73544">
        <ele>176</ele>
        <time>2014-03-05T12:58:24.000Z</time>
      </trkpt>
      <trkpt lat="48.69941" lon="1.73552">
        <ele>176</ele>
        <time>2014-03-05T12:58:29.000Z</time>
      </trkpt>
      <trkpt lat="48.69945" lon="1.73557">
        <ele>176.19999694824</ele>
        <time>2014-03-05T12:58:33.000Z</time>
      </trkpt>
      <trkpt lat="48.69955" lon="1.73567">
        <ele>176.19999694824</ele>
        <time>2014-03-05T12:58:40.000Z</time>
      </trkpt>
      <trkpt lat="48.69961" lon="1.73575">
        <ele>176.39999389648</ele>
        <time>2014-03-05T12:58:45.000Z</time>
      </trkpt>
      <trkpt lat="48.69963" lon="1.73581">
        <ele>176.60000610352</ele>
        <time>2014-03-05T12:58:50.000Z</time>
      </trkpt>
      <trkpt lat="48.6997" lon="1.73595">
        <ele>176.80000305176</ele>
        <time>2014-03-05T12:58:57.000Z</time>
      </trkpt>
      <trkpt lat="48.69971" lon="1.73597">
        <ele>177</ele>
        <time>2014-03-05T12:58:58.000Z</time>
      </trkpt>
      <trkpt lat="48.69976" lon="1.73605">
        <ele>177.19999694824</ele>
        <time>2014-03-05T12:59:04.000Z</time>
      </trkpt>
      <trkpt lat="48.69978" lon="1.73608">
        <ele>177.19999694824</ele>
        <time>2014-03-05T12:59:06.000Z</time>
      </trkpt>
      <trkpt lat="48.69984" lon="1.73618">
        <ele>177.60000610352</ele>
        <time>2014-03-05T12:59:12.000Z</time>
      </trkpt>
      <trkpt lat="48.69986" lon="1.7362">
        <ele>177.60000610352</ele>
        <time>2014-03-05T12:59:13.000Z</time>
      </trkpt>
      <trkpt lat="48.69992" lon="1.73626">
        <ele>177.80000305176</ele>
        <time>2014-03-05T12:59:17.000Z</time>
      </trkpt>
      <trkpt lat="48.69997" lon="1.73631">
        <ele>178</ele>
        <time>2014-03-05T12:59:20.000Z</time>
      </trkpt>
      <trkpt lat="48.70005" lon="1.73644">
        <ele>178.39999389648</ele>
        <time>2014-03-05T12:59:27.000Z</time>
      </trkpt>
      <trkpt lat="48.70007" lon="1.73649">
        <ele>178.39999389648</ele>
        <time>2014-03-05T12:59:29.000Z</time>
      </trkpt>
      <trkpt lat="48.70014" lon="1.73665">
        <ele>178.60000610352</ele>
        <time>2014-03-05T12:59:37.000Z</time>
      </trkpt>
      <trkpt lat="48.7002" lon="1.73675">
        <ele>178.39999389648</ele>
        <time>2014-03-05T12:59:44.000Z</time>
      </trkpt>
      <trkpt lat="48.70027" lon="1.73685">
        <ele>178.19999694824</ele>
        <time>2014-03-05T12:59:50.000Z</time>
      </trkpt>
      <trkpt lat="48.70031" lon="1.73695">
        <ele>178</ele>
        <time>2014-03-05T12:59:55.000Z</time>
      </trkpt>
      <trkpt lat="48.70038" lon="1.73708">
        <ele>177.80000305176</ele>
        <time>2014-03-05T13:00:02.000Z</time>
      </trkpt>
      <trkpt lat="48.70045" lon="1.73718">
        <ele>177.60000610352</ele>
        <time>2014-03-05T13:00:08.000Z</time>
      </trkpt>
      <trkpt lat="48.70055" lon="1.73721">
        <ele>177.39999389648</ele>
        <time>2014-03-05T13:00:14.000Z</time>
      </trkpt>
      <trkpt lat="48.70062" lon="1.73721">
        <ele>177.39999389648</ele>
        <time>2014-03-05T13:00:19.000Z</time>
      </trkpt>
      <trkpt lat="48.70071" lon="1.73725">
        <ele>177.19999694824</ele>
        <time>2014-03-05T13:00:25.000Z</time>
      </trkpt>
      <trkpt lat="48.70073" lon="1.73726">
        <ele>177.19999694824</ele>
        <time>2014-03-05T13:00:27.000Z</time>
      </trkpt>
      <trkpt lat="48.70083" lon="1.73729">
        <ele>177</ele>
        <time>2014-03-05T13:00:33.000Z</time>
      </trkpt>
      <trkpt lat="48.7009" lon="1.73734">
        <ele>177.19999694824</ele>
        <time>2014-03-05T13:00:38.000Z</time>
      </trkpt>
      <trkpt lat="48.70092" lon="1.73735">
        <ele>177.19999694824</ele>
        <time>2014-03-05T13:00:40.000Z</time>
      </trkpt>
      <trkpt lat="48.70098" lon="1.73739">
        <ele>177.19999694824</ele>
        <time>2014-03-05T13:00:46.000Z</time>
      </trkpt>
      <trkpt lat="48.70106" lon="1.73745">
        <ele>177.19999694824</ele>
        <time>2014-03-05T13:00:53.000Z</time>
      </trkpt>
      <trkpt lat="48.70109" lon="1.73752">
        <ele>177.39999389648</ele>
        <time>2014-03-05T13:00:58.000Z</time>
      </trkpt>
      <trkpt lat="48.70116" lon="1.7376">
        <ele>177.39999389648</ele>
        <time>2014-03-05T13:01:03.000Z</time>
      </trkpt>
      <trkpt lat="48.70119" lon="1.73763">
        <ele>177.60000610352</ele>
        <time>2014-03-05T13:01:05.000Z</time>
      </trkpt>
      <trkpt lat="48.70126" lon="1.73773">
        <ele>177.60000610352</ele>
        <time>2014-03-05T13:01:13.000Z</time>
      </trkpt>
      <trkpt lat="48.70129" lon="1.73776">
        <ele>177.60000610352</ele>
        <time>2014-03-05T13:01:16.000Z</time>
      </trkpt>
      <trkpt lat="48.70136" lon="1.73781">
        <ele>177.80000305176</ele>
        <time>2014-03-05T13:01:21.000Z</time>
      </trkpt>
      <trkpt lat="48.70148" lon="1.73791">
        <ele>177.80000305176</ele>
        <time>2014-03-05T13:01:30.000Z</time>
      </trkpt>
      <trkpt lat="48.70154" lon="1.73794">
        <ele>178</ele>
        <time>2014-03-05T13:01:35.000Z</time>
      </trkpt>
      <trkpt lat="48.70155" lon="1.73796">
        <ele>178</ele>
        <time>2014-03-05T13:01:37.000Z</time>
      </trkpt>
      <trkpt lat="48.70163" lon="1.73805">
        <ele>178</ele>
        <time>2014-03-05T13:01:44.000Z</time>
      </trkpt>
      <trkpt lat="48.70166" lon="1.73809">
        <ele>178</ele>
        <time>2014-03-05T13:01:48.000Z</time>
      </trkpt>
      <trkpt lat="48.70172" lon="1.73814">
        <ele>178</ele>
        <time>2014-03-05T13:01:52.000Z</time>
      </trkpt>
      <trkpt lat="48.70183" lon="1.73825">
        <ele>178</ele>
        <time>2014-03-05T13:01:59.000Z</time>
      </trkpt>
      <trkpt lat="48.70191" lon="1.73834">
        <ele>178</ele>
        <time>2014-03-05T13:02:06.000Z</time>
      </trkpt>
      <trkpt lat="48.70198" lon="1.73844">
        <ele>178</ele>
        <time>2014-03-05T13:02:13.000Z</time>
      </trkpt>
      <trkpt lat="48.70206" lon="1.73852">
        <ele>178</ele>
        <time>2014-03-05T13:02:20.000Z</time>
      </trkpt>
      <trkpt lat="48.70208" lon="1.73856">
        <ele>178</ele>
        <time>2014-03-05T13:02:24.000Z</time>
      </trkpt>
      <trkpt lat="48.70213" lon="1.73863">
        <ele>178</ele>
        <time>2014-03-05T13:02:31.000Z</time>
      </trkpt>
      <trkpt lat="48.70223" lon="1.73869">
        <ele>178</ele>
        <time>2014-03-05T13:02:37.000Z</time>
      </trkpt>
      <trkpt lat="48.70229" lon="1.73874">
        <ele>178</ele>
        <time>2014-03-05T13:02:42.000Z</time>
      </trkpt>
      <trkpt lat="48.70235" lon="1.73877">
        <ele>178</ele>
        <time>2014-03-05T13:02:49.000Z</time>
      </trkpt>
      <trkpt lat="48.70246" lon="1.73888">
        <ele>178</ele>
        <time>2014-03-05T13:02:57.000Z</time>
      </trkpt>
      <trkpt lat="48.70246" lon="1.7389">
        <ele>178</ele>
        <time>2014-03-05T13:02:58.000Z</time>
      </trkpt>
      <trkpt lat="48.70249" lon="1.73897">
        <ele>178</ele>
        <time>2014-03-05T13:03:03.000Z</time>
      </trkpt>
      <trkpt lat="48.70252" lon="1.73901">
        <ele>178</ele>
        <time>2014-03-05T13:03:06.000Z</time>
      </trkpt>
      <trkpt lat="48.70258" lon="1.73905">
        <ele>178</ele>
        <time>2014-03-05T13:03:10.000Z</time>
      </trkpt>
      <trkpt lat="48.70266" lon="1.73915">
        <ele>178.19999694824</ele>
        <time>2014-03-05T13:03:16.000Z</time>
      </trkpt>
      <trkpt lat="48.70267" lon="1.73918">
        <ele>178.19999694824</ele>
        <time>2014-03-05T13:03:17.000Z</time>
      </trkpt>
      <trkpt lat="48.70272" lon="1.73934">
        <ele>178.80000305176</ele>
        <time>2014-03-05T13:03:24.000Z</time>
      </trkpt>
      <trkpt lat="48.70274" lon="1.73937">
        <ele>178.80000305176</ele>
        <time>2014-03-05T13:03:26.000Z</time>
      </trkpt>
      <trkpt lat="48.70279" lon="1.73942">
        <ele>179</ele>
        <time>2014-03-05T13:03:30.000Z</time>
      </trkpt>
      <trkpt lat="48.70285" lon="1.73952">
        <ele>179.39999389648</ele>
        <time>2014-03-05T13:03:36.000Z</time>
      </trkpt>
      <trkpt lat="48.7029" lon="1.73967">
        <ele>179.80000305176</ele>
        <time>2014-03-05T13:03:44.000Z</time>
      </trkpt>
      <trkpt lat="48.70295" lon="1.73974">
        <ele>179.80000305176</ele>
        <time>2014-03-05T13:03:50.000Z</time>
      </trkpt>
      <trkpt lat="48.70302" lon="1.73987">
        <ele>180.19999694824</ele>
        <time>2014-03-05T13:03:59.000Z</time>
      </trkpt>
      <trkpt lat="48.70309" lon="1.73992">
        <ele>180.19999694824</ele>
        <time>2014-03-05T13:04:05.000Z</time>
      </trkpt>
      <trkpt lat="48.7032" lon="1.74001">
        <ele>180.19999694824</ele>
        <time>2014-03-05T13:04:12.000Z</time>
      </trkpt>
      <trkpt lat="48.70326" lon="1.74007">
        <ele>180</ele>
        <time>2014-03-05T13:04:16.000Z</time>
      </trkpt>
      <trkpt lat="48.70334" lon="1.74013">
        <ele>180</ele>
        <time>2014-03-05T13:04:22.000Z</time>
      </trkpt>
      <trkpt lat="48.7034" lon="1.74018">
        <ele>180</ele>
        <time>2014-03-05T13:04:26.000Z</time>
      </trkpt>
      <trkpt lat="48.70344" lon="1.74022">
        <ele>180</ele>
        <time>2014-03-05T13:04:30.000Z</time>
      </trkpt>
      <trkpt lat="48.70351" lon="1.74028">
        <ele>179.80000305176</ele>
        <time>2014-03-05T13:04:38.000Z</time>
      </trkpt>
      <trkpt lat="48.70356" lon="1.74031">
        <ele>179.80000305176</ele>
        <time>2014-03-05T13:04:44.000Z</time>
      </trkpt>
      <trkpt lat="48.70357" lon="1.74033">
        <ele>179.80000305176</ele>
        <time>2014-03-05T13:04:45.000Z</time>
      </trkpt>
      <trkpt lat="48.70364" lon="1.74042">
        <ele>179.60000610352</ele>
        <time>2014-03-05T13:04:50.000Z</time>
      </trkpt>
      <trkpt lat="48.70366" lon="1.74046">
        <ele>179.60000610352</ele>
        <time>2014-03-05T13:04:55.000Z</time>
      </trkpt>
      <trkpt lat="48.7037" lon="1.74051">
        <ele>179.39999389648</ele>
        <time>2014-03-05T13:04:59.000Z</time>
      </trkpt>
      <trkpt lat="48.70383" lon="1.74066">
        <ele>179</ele>
        <time>2014-03-05T13:05:08.000Z</time>
      </trkpt>
      <trkpt lat="48.70397" lon="1.74072">
        <ele>178.60000610352</ele>
        <time>2014-03-05T13:05:14.000Z</time>
      </trkpt>
      <trkpt lat="48.70408" lon="1.74078">
        <ele>178.39999389648</ele>
        <time>2014-03-05T13:05:19.000Z</time>
      </trkpt>
      <trkpt lat="48.70411" lon="1.74087">
        <ele>178.19999694824</ele>
        <time>2014-03-05T13:05:24.000Z</time>
      </trkpt>
      <trkpt lat="48.70411" lon="1.74088">
        <ele>178</ele>
        <time>2014-03-05T13:05:25.000Z</time>
      </trkpt>
      <trkpt lat="48.70416" lon="1.74092">
        <ele>177.80000305176</ele>
        <time>2014-03-05T13:05:28.000Z</time>
      </trkpt>
      <trkpt lat="48.70424" lon="1.741">
        <ele>177.80000305176</ele>
        <time>2014-03-05T13:05:33.000Z</time>
      </trkpt>
      <trkpt lat="48.70435" lon="1.7411">
        <ele>177.80000305176</ele>
        <time>2014-03-05T13:05:39.000Z</time>
      </trkpt>
      <trkpt lat="48.70436" lon="1.74112">
        <ele>177.80000305176</ele>
        <time>2014-03-05T13:05:40.000Z</time>
      </trkpt>
      <trkpt lat="48.70443" lon="1.74121">
        <ele>177.60000610352</ele>
        <time>2014-03-05T13:05:45.000Z</time>
      </trkpt>
      <trkpt lat="48.70447" lon="1.74127">
        <ele>177.60000610352</ele>
        <time>2014-03-05T13:05:49.000Z</time>
      </trkpt>
      <trkpt lat="48.70455" lon="1.74138">
        <ele>177.60000610352</ele>
        <time>2014-03-05T13:05:57.000Z</time>
      </trkpt>
      <trkpt lat="48.70457" lon="1.74139">
        <ele>177.60000610352</ele>
        <time>2014-03-05T13:05:58.000Z</time>
      </trkpt>
      <trkpt lat="48.70463" lon="1.74148">
        <ele>177.60000610352</ele>
        <time>2014-03-05T13:06:05.000Z</time>
      </trkpt>
      <trkpt lat="48.70468" lon="1.74154">
        <ele>177.60000610352</ele>
        <time>2014-03-05T13:06:09.000Z</time>
      </trkpt>
      <trkpt lat="48.7048" lon="1.74166">
        <ele>177.80000305176</ele>
        <time>2014-03-05T13:06:17.000Z</time>
      </trkpt>
      <trkpt lat="48.70482" lon="1.74173">
        <ele>177.80000305176</ele>
        <time>2014-03-05T13:06:21.000Z</time>
      </trkpt>
      <trkpt lat="48.70486" lon="1.74183">
        <ele>177.80000305176</ele>
        <time>2014-03-05T13:06:26.000Z</time>
      </trkpt>
      <trkpt lat="48.70492" lon="1.74192">
        <ele>178</ele>
        <time>2014-03-05T13:06:31.000Z</time>
      </trkpt>
      <trkpt lat="48.70497" lon="1.74203">
        <ele>178</ele>
        <time>2014-03-05T13:06:37.000Z</time>
      </trkpt>
      <trkpt lat="48.70498" lon="1.74204">
        <ele>178</ele>
        <time>2014-03-05T13:06:38.000Z</time>
      </trkpt>
      <trkpt lat="48.70506" lon="1.74214">
        <ele>177.80000305176</ele>
        <time>2014-03-05T13:06:45.000Z</time>
      </trkpt>
      <trkpt lat="48.70508" lon="1.74216">
        <ele>177.60000610352</ele>
        <time>2014-03-05T13:06:46.000Z</time>
      </trkpt>
      <trkpt lat="48.70509" lon="1.74227">
        <ele>177.60000610352</ele>
        <time>2014-03-05T13:06:52.000Z</time>
      </trkpt>
      <trkpt lat="48.70509" lon="1.74231">
        <ele>177.60000610352</ele>
        <time>2014-03-05T13:06:54.000Z</time>
      </trkpt>
      <trkpt lat="48.70508" lon="1.74244">
        <ele>177.60000610352</ele>
        <time>2014-03-05T13:07:01.000Z</time>
      </trkpt>
      <trkpt lat="48.70509" lon="1.7426">
        <ele>177.80000305176</ele>
        <time>2014-03-05T13:07:08.000Z</time>
      </trkpt>
      <trkpt lat="48.70504" lon="1.74273">
        <ele>178.19999694824</ele>
        <time>2014-03-05T13:07:14.000Z</time>
      </trkpt>
      <trkpt lat="48.70503" lon="1.74279">
        <ele>178.39999389648</ele>
        <time>2014-03-05T13:07:17.000Z</time>
      </trkpt>
      <trkpt lat="48.70504" lon="1.74294">
        <ele>178.60000610352</ele>
        <time>2014-03-05T13:07:24.000Z</time>
      </trkpt>
      <trkpt lat="48.70502" lon="1.74313">
        <ele>178.80000305176</ele>
        <time>2014-03-05T13:07:32.000Z</time>
      </trkpt>
      <trkpt lat="48.70504" lon="1.74319">
        <ele>179</ele>
        <time>2014-03-05T13:07:35.000Z</time>
      </trkpt>
      <trkpt lat="48.70507" lon="1.74327">
        <ele>179.19999694824</ele>
        <time>2014-03-05T13:07:41.000Z</time>
      </trkpt>
      <trkpt lat="48.70508" lon="1.7434">
        <ele>179.39999389648</ele>
        <time>2014-03-05T13:07:47.000Z</time>
      </trkpt>
      <trkpt lat="48.70509" lon="1.74354">
        <ele>179.80000305176</ele>
        <time>2014-03-05T13:07:53.000Z</time>
      </trkpt>
      <trkpt lat="48.70507" lon="1.74365">
        <ele>180</ele>
        <time>2014-03-05T13:07:58.000Z</time>
      </trkpt>
      <trkpt lat="48.70502" lon="1.7438">
        <ele>180.19999694824</ele>
        <time>2014-03-05T13:08:05.000Z</time>
      </trkpt>
      <trkpt lat="48.70506" lon="1.74392">
        <ele>180.60000610352</ele>
        <time>2014-03-05T13:08:11.000Z</time>
      </trkpt>
      <trkpt lat="48.70509" lon="1.74398">
        <ele>180.80000305176</ele>
        <time>2014-03-05T13:08:15.000Z</time>
      </trkpt>
      <trkpt lat="48.70506" lon="1.74414">
        <ele>181.19999694824</ele>
        <time>2014-03-05T13:08:23.000Z</time>
      </trkpt>
      <trkpt lat="48.70505" lon="1.74426">
        <ele>181.19999694824</ele>
        <time>2014-03-05T13:08:28.000Z</time>
      </trkpt>
      <trkpt lat="48.70506" lon="1.74442">
        <ele>181.60000610352</ele>
        <time>2014-03-05T13:08:36.000Z</time>
      </trkpt>
      <trkpt lat="48.70504" lon="1.74459">
        <ele>181.60000610352</ele>
        <time>2014-03-05T13:08:43.000Z</time>
      </trkpt>
      <trkpt lat="48.70503" lon="1.74464">
        <ele>181.60000610352</ele>
        <time>2014-03-05T13:08:46.000Z</time>
      </trkpt>
      <trkpt lat="48.70503" lon="1.74486">
        <ele>182</ele>
        <time>2014-03-05T13:08:55.000Z</time>
      </trkpt>
      <trkpt lat="48.705" lon="1.74499">
        <ele>182</ele>
        <time>2014-03-05T13:09:01.000Z</time>
      </trkpt>
      <trkpt lat="48.70498" lon="1.74514">
        <ele>182</ele>
        <time>2014-03-05T13:09:08.000Z</time>
      </trkpt>
      <trkpt lat="48.70501" lon="1.74525">
        <ele>182</ele>
        <time>2014-03-05T13:09:15.000Z</time>
      </trkpt>
      <trkpt lat="48.70501" lon="1.74536">
        <ele>182</ele>
        <time>2014-03-05T13:09:20.000Z</time>
      </trkpt>
      <trkpt lat="48.70498" lon="1.74552">
        <ele>182</ele>
        <time>2014-03-05T13:09:28.000Z</time>
      </trkpt>
      <trkpt lat="48.70498" lon="1.74569">
        <ele>181.80000305176</ele>
        <time>2014-03-05T13:09:36.000Z</time>
      </trkpt>
      <trkpt lat="48.70496" lon="1.74578">
        <ele>181.80000305176</ele>
        <time>2014-03-05T13:09:42.000Z</time>
      </trkpt>
      <trkpt lat="48.70495" lon="1.74583">
        <ele>181.80000305176</ele>
        <time>2014-03-05T13:09:44.000Z</time>
      </trkpt>
      <trkpt lat="48.70496" lon="1.74596">
        <ele>181.60000610352</ele>
        <time>2014-03-05T13:09:50.000Z</time>
      </trkpt>
      <trkpt lat="48.70496" lon="1.74598">
        <ele>181.60000610352</ele>
        <time>2014-03-05T13:09:51.000Z</time>
      </trkpt>
      <trkpt lat="48.70497" lon="1.74607">
        <ele>181.60000610352</ele>
        <time>2014-03-05T13:09:56.000Z</time>
      </trkpt>
      <trkpt lat="48.705" lon="1.74624">
        <ele>181.60000610352</ele>
        <time>2014-03-05T13:10:04.000Z</time>
      </trkpt>
      <trkpt lat="48.705" lon="1.74633">
        <ele>181.39999389648</ele>
        <time>2014-03-05T13:10:07.000Z</time>
      </trkpt>
      <trkpt lat="48.70498" lon="1.7465">
        <ele>181.19999694824</ele>
        <time>2014-03-05T13:10:14.000Z</time>
      </trkpt>
      <trkpt lat="48.70499" lon="1.74657">
        <ele>181</ele>
        <time>2014-03-05T13:10:18.000Z</time>
      </trkpt>
      <trkpt lat="48.705" lon="1.74665">
        <ele>181</ele>
        <time>2014-03-05T13:10:22.000Z</time>
      </trkpt>
      <trkpt lat="48.705" lon="1.74681">
        <ele>181.39999389648</ele>
        <time>2014-03-05T13:10:29.000Z</time>
      </trkpt>
      <trkpt lat="48.70501" lon="1.74692">
        <ele>181.60000610352</ele>
        <time>2014-03-05T13:10:34.000Z</time>
      </trkpt>
      <trkpt lat="48.70499" lon="1.747">
        <ele>181.80000305176</ele>
        <time>2014-03-05T13:10:38.000Z</time>
      </trkpt>
      <trkpt lat="48.70497" lon="1.74712">
        <ele>182</ele>
        <time>2014-03-05T13:10:44.000Z</time>
      </trkpt>
      <trkpt lat="48.70499" lon="1.74721">
        <ele>182.19999694824</ele>
        <time>2014-03-05T13:10:50.000Z</time>
      </trkpt>
      <trkpt lat="48.705" lon="1.74726">
        <ele>182.39999389648</ele>
        <time>2014-03-05T13:10:52.000Z</time>
      </trkpt>
      <trkpt lat="48.70502" lon="1.74739">
        <ele>182.80000305176</ele>
        <time>2014-03-05T13:10:57.000Z</time>
      </trkpt>
      <trkpt lat="48.70501" lon="1.74745">
        <ele>183</ele>
        <time>2014-03-05T13:10:59.000Z</time>
      </trkpt>
      <trkpt lat="48.70503" lon="1.7475">
        <ele>183</ele>
        <time>2014-03-05T13:11:02.000Z</time>
      </trkpt>
      <trkpt lat="48.70503" lon="1.74766">
        <ele>183.19999694824</ele>
        <time>2014-03-05T13:11:08.000Z</time>
      </trkpt>
      <trkpt lat="48.705" lon="1.7478">
        <ele>183.39999389648</ele>
        <time>2014-03-05T13:11:13.000Z</time>
      </trkpt>
      <trkpt lat="48.70498" lon="1.74797">
        <ele>183.39999389648</ele>
        <time>2014-03-05T13:11:21.000Z</time>
      </trkpt>
      <trkpt lat="48.70493" lon="1.74813">
        <ele>183.19999694824</ele>
        <time>2014-03-05T13:11:28.000Z</time>
      </trkpt>
      <trkpt lat="48.70491" lon="1.74823">
        <ele>183.19999694824</ele>
        <time>2014-03-05T13:11:33.000Z</time>
      </trkpt>
      <trkpt lat="48.7049" lon="1.7483">
        <ele>183</ele>
        <time>2014-03-05T13:11:36.000Z</time>
      </trkpt>
      <trkpt lat="48.70488" lon="1.74839">
        <ele>183</ele>
        <time>2014-03-05T13:11:41.000Z</time>
      </trkpt>
      <trkpt lat="48.7049" lon="1.74855">
        <ele>183.39999389648</ele>
        <time>2014-03-05T13:11:49.000Z</time>
      </trkpt>
      <trkpt lat="48.70493" lon="1.74865">
        <ele>183.80000305176</ele>
        <time>2014-03-05T13:11:54.000Z</time>
      </trkpt>
      <trkpt lat="48.70493" lon="1.74867">
        <ele>183.80000305176</ele>
        <time>2014-03-05T13:11:55.000Z</time>
      </trkpt>
      <trkpt lat="48.70493" lon="1.74883">
        <ele>184</ele>
        <time>2014-03-05T13:12:01.000Z</time>
      </trkpt>
      <trkpt lat="48.70495" lon="1.74893">
        <ele>184.19999694824</ele>
        <time>2014-03-05T13:12:06.000Z</time>
      </trkpt>
      <trkpt lat="48.70494" lon="1.74901">
        <ele>184.19999694824</ele>
        <time>2014-03-05T13:12:09.000Z</time>
      </trkpt>
      <trkpt lat="48.70493" lon="1.74919">
        <ele>184.39999389648</ele>
        <time>2014-03-05T13:12:17.000Z</time>
      </trkpt>
      <trkpt lat="48.70494" lon="1.7492">
        <ele>184.39999389648</ele>
        <time>2014-03-05T13:12:18.000Z</time>
      </trkpt>
      <trkpt lat="48.70496" lon="1.74931">
        <ele>184.39999389648</ele>
        <time>2014-03-05T13:12:23.000Z</time>
      </trkpt>
      <trkpt lat="48.70495" lon="1.74938">
        <ele>184.19999694824</ele>
        <time>2014-03-05T13:12:26.000Z</time>
      </trkpt>
      <trkpt lat="48.70494" lon="1.74948">
        <ele>183.80000305176</ele>
        <time>2014-03-05T13:12:31.000Z</time>
      </trkpt>
      <trkpt lat="48.70494" lon="1.74951">
        <ele>183.80000305176</ele>
        <time>2014-03-05T13:12:33.000Z</time>
      </trkpt>
      <trkpt lat="48.70492" lon="1.74961">
        <ele>183.39999389648</ele>
        <time>2014-03-05T13:12:37.000Z</time>
      </trkpt>
      <trkpt lat="48.70491" lon="1.74974">
        <ele>183.19999694824</ele>
        <time>2014-03-05T13:12:43.000Z</time>
      </trkpt>
      <trkpt lat="48.70492" lon="1.74983">
        <ele>183</ele>
        <time>2014-03-05T13:12:47.000Z</time>
      </trkpt>
      <trkpt lat="48.7049" lon="1.75">
        <ele>182.60000610352</ele>
        <time>2014-03-05T13:12:54.000Z</time>
      </trkpt>
      <trkpt lat="48.70491" lon="1.75004">
        <ele>182.60000610352</ele>
        <time>2014-03-05T13:12:56.000Z</time>
      </trkpt>
      <trkpt lat="48.70489" lon="1.75019">
        <ele>181.80000305176</ele>
        <time>2014-03-05T13:13:03.000Z</time>
      </trkpt>
      <trkpt lat="48.70489" lon="1.75032">
        <ele>181.39999389648</ele>
        <time>2014-03-05T13:13:10.000Z</time>
      </trkpt>
      <trkpt lat="48.70487" lon="1.75046">
        <ele>180.80000305176</ele>
        <time>2014-03-05T13:13:16.000Z</time>
      </trkpt>
      <trkpt lat="48.70488" lon="1.7506">
        <ele>180.19999694824</ele>
        <time>2014-03-05T13:13:23.000Z</time>
      </trkpt>
      <trkpt lat="48.70488" lon="1.75068">
        <ele>180</ele>
        <time>2014-03-05T13:13:26.000Z</time>
      </trkpt>
      <trkpt lat="48.70486" lon="1.75086">
        <ele>179.19999694824</ele>
        <time>2014-03-05T13:13:34.000Z</time>
      </trkpt>
      <trkpt lat="48.70484" lon="1.75101">
        <ele>178.39999389648</ele>
        <time>2014-03-05T13:13:41.000Z</time>
      </trkpt>
      <trkpt lat="48.70482" lon="1.75115">
        <ele>177.80000305176</ele>
        <time>2014-03-05T13:13:47.000Z</time>
      </trkpt>
      <trkpt lat="48.7048" lon="1.75125">
        <ele>177.39999389648</ele>
        <time>2014-03-05T13:13:52.000Z</time>
      </trkpt>
      <trkpt lat="48.70475" lon="1.75139">
        <ele>177.19999694824</ele>
        <time>2014-03-05T13:13:59.000Z</time>
      </trkpt>
      <trkpt lat="48.7047" lon="1.75152">
        <ele>177.19999694824</ele>
        <time>2014-03-05T13:14:06.000Z</time>
      </trkpt>
      <trkpt lat="48.70464" lon="1.75162">
        <ele>177.39999389648</ele>
        <time>2014-03-05T13:14:12.000Z</time>
      </trkpt>
      <trkpt lat="48.70463" lon="1.75166">
        <ele>177.39999389648</ele>
        <time>2014-03-05T13:14:14.000Z</time>
      </trkpt>
      <trkpt lat="48.70461" lon="1.75178">
        <ele>177.39999389648</ele>
        <time>2014-03-05T13:14:20.000Z</time>
      </trkpt>
      <trkpt lat="48.70455" lon="1.75192">
        <ele>177.60000610352</ele>
        <time>2014-03-05T13:14:28.000Z</time>
      </trkpt>
      <trkpt lat="48.70448" lon="1.75211">
        <ele>177.80000305176</ele>
        <time>2014-03-05T13:14:37.000Z</time>
      </trkpt>
      <trkpt lat="48.70443" lon="1.75226">
        <ele>177.60000610352</ele>
        <time>2014-03-05T13:14:45.000Z</time>
      </trkpt>
      <trkpt lat="48.70441" lon="1.75229">
        <ele>177.80000305176</ele>
        <time>2014-03-05T13:14:47.000Z</time>
      </trkpt>
      <trkpt lat="48.70438" lon="1.75238">
        <ele>177.60000610352</ele>
        <time>2014-03-05T13:14:52.000Z</time>
      </trkpt>
      <trkpt lat="48.70437" lon="1.75248">
        <ele>177.39999389648</ele>
        <time>2014-03-05T13:14:57.000Z</time>
      </trkpt>
      <trkpt lat="48.70436" lon="1.75264">
        <ele>177.19999694824</ele>
        <time>2014-03-05T13:15:06.000Z</time>
      </trkpt>
      <trkpt lat="48.70432" lon="1.75277">
        <ele>177.60000610352</ele>
        <time>2014-03-05T13:15:12.000Z</time>
      </trkpt>
      <trkpt lat="48.70432" lon="1.7529">
        <ele>177.39999389648</ele>
        <time>2014-03-05T13:15:19.000Z</time>
      </trkpt>
      <trkpt lat="48.70429" lon="1.75295">
        <ele>177.60000610352</ele>
        <time>2014-03-05T13:15:22.000Z</time>
      </trkpt>
      <trkpt lat="48.70424" lon="1.75306">
        <ele>177.80000305176</ele>
        <time>2014-03-05T13:15:29.000Z</time>
      </trkpt>
      <trkpt lat="48.70421" lon="1.75319">
        <ele>177.80000305176</ele>
        <time>2014-03-05T13:15:35.000Z</time>
      </trkpt>
      <trkpt lat="48.70416" lon="1.75333">
        <ele>178</ele>
        <time>2014-03-05T13:15:43.000Z</time>
      </trkpt>
      <trkpt lat="48.70412" lon="1.75344">
        <ele>178.60000610352</ele>
        <time>2014-03-05T13:15:49.000Z</time>
      </trkpt>
      <trkpt lat="48.70408" lon="1.75353">
        <ele>179.19999694824</ele>
        <time>2014-03-05T13:15:54.000Z</time>
      </trkpt>
      <trkpt lat="48.70401" lon="1.75364">
        <ele>179.80000305176</ele>
        <time>2014-03-05T13:16:01.000Z</time>
      </trkpt>
      <trkpt lat="48.70397" lon="1.75374">
        <ele>180.19999694824</ele>
        <time>2014-03-05T13:16:07.000Z</time>
      </trkpt>
      <trkpt lat="48.70397" lon="1.75386">
        <ele>180.60000610352</ele>
        <time>2014-03-05T13:16:14.000Z</time>
      </trkpt>
      <trkpt lat="48.70399" lon="1.75394">
        <ele>181</ele>
        <time>2014-03-05T13:16:18.000Z</time>
      </trkpt>
      <trkpt lat="48.70402" lon="1.75398">
        <ele>181</ele>
        <time>2014-03-05T13:16:21.000Z</time>
      </trkpt>
      <trkpt lat="48.70402" lon="1.75406">
        <ele>181.39999389648</ele>
        <time>2014-03-05T13:16:27.000Z</time>
      </trkpt>
      <trkpt lat="48.704" lon="1.75406">
        <ele>181.39999389648</ele>
        <time>2014-03-05T13:16:30.000Z</time>
      </trkpt>
      <trkpt lat="48.70399" lon="1.75407">
        <ele>181.39999389648</ele>
        <time>2014-03-05T13:16:34.000Z</time>
      </trkpt>
      <trkpt lat="48.70418" lon="1.75423">
        <ele>182</ele>
        <time>2014-03-05T13:17:53.000Z</time>
      </trkpt>
      <trkpt lat="48.70424" lon="1.75428">
        <ele>181.80000305176</ele>
        <time>2014-03-05T13:17:59.000Z</time>
      </trkpt>
      <trkpt lat="48.70425" lon="1.75429">
        <ele>181.80000305176</ele>
        <time>2014-03-05T13:18:00.000Z</time>
      </trkpt>
      <trkpt lat="48.70431" lon="1.75434">
        <ele>181.39999389648</ele>
        <time>2014-03-05T13:18:05.000Z</time>
      </trkpt>
      <trkpt lat="48.70439" lon="1.7544">
        <ele>181.19999694824</ele>
        <time>2014-03-05T13:18:12.000Z</time>
      </trkpt>
      <trkpt lat="48.70442" lon="1.75442">
        <ele>181</ele>
        <time>2014-03-05T13:18:14.000Z</time>
      </trkpt>
      <trkpt lat="48.70455" lon="1.7545">
        <ele>180.60000610352</ele>
        <time>2014-03-05T13:18:23.000Z</time>
      </trkpt>
      <trkpt lat="48.70457" lon="1.75453">
        <ele>180.60000610352</ele>
        <time>2014-03-05T13:18:25.000Z</time>
      </trkpt>
      <trkpt lat="48.70463" lon="1.75459">
        <ele>180.60000610352</ele>
        <time>2014-03-05T13:18:30.000Z</time>
      </trkpt>
      <trkpt lat="48.70467" lon="1.75465">
        <ele>180.60000610352</ele>
        <time>2014-03-05T13:18:35.000Z</time>
      </trkpt>
      <trkpt lat="48.70476" lon="1.75476">
        <ele>180.60000610352</ele>
        <time>2014-03-05T13:18:43.000Z</time>
      </trkpt>
      <trkpt lat="48.70481" lon="1.75478">
        <ele>180.60000610352</ele>
        <time>2014-03-05T13:18:46.000Z</time>
      </trkpt>
      <trkpt lat="48.70485" lon="1.75483">
        <ele>180.60000610352</ele>
        <time>2014-03-05T13:18:51.000Z</time>
      </trkpt>
      <trkpt lat="48.7049" lon="1.75485">
        <ele>180.60000610352</ele>
        <time>2014-03-05T13:18:55.000Z</time>
      </trkpt>
      <trkpt lat="48.70493" lon="1.75487">
        <ele>180.60000610352</ele>
        <time>2014-03-05T13:18:57.000Z</time>
      </trkpt>
      <trkpt lat="48.705" lon="1.75494">
        <ele>180.60000610352</ele>
        <time>2014-03-05T13:19:03.000Z</time>
      </trkpt>
      <trkpt lat="48.70504" lon="1.75498">
        <ele>180.60000610352</ele>
        <time>2014-03-05T13:19:06.000Z</time>
      </trkpt>
      <trkpt lat="48.70511" lon="1.75505">
        <ele>180.39999389648</ele>
        <time>2014-03-05T13:19:12.000Z</time>
      </trkpt>
      <trkpt lat="48.70516" lon="1.75511">
        <ele>180.39999389648</ele>
        <time>2014-03-05T13:19:18.000Z</time>
      </trkpt>
      <trkpt lat="48.70519" lon="1.75512">
        <ele>180.19999694824</ele>
        <time>2014-03-05T13:19:20.000Z</time>
      </trkpt>
      <trkpt lat="48.70525" lon="1.75517">
        <ele>180</ele>
        <time>2014-03-05T13:19:25.000Z</time>
      </trkpt>
      <trkpt lat="48.70528" lon="1.75519">
        <ele>180</ele>
        <time>2014-03-05T13:19:27.000Z</time>
      </trkpt>
      <trkpt lat="48.70533" lon="1.75527">
        <ele>180.19999694824</ele>
        <time>2014-03-05T13:19:31.000Z</time>
      </trkpt>
      <trkpt lat="48.70541" lon="1.75537">
        <ele>180.39999389648</ele>
        <time>2014-03-05T13:19:39.000Z</time>
      </trkpt>
      <trkpt lat="48.70543" lon="1.75538">
        <ele>180.39999389648</ele>
        <time>2014-03-05T13:19:42.000Z</time>
      </trkpt>
      <trkpt lat="48.70548" lon="1.75542">
        <ele>180.39999389648</ele>
        <time>2014-03-05T13:19:46.000Z</time>
      </trkpt>
      <trkpt lat="48.70552" lon="1.75549">
        <ele>180.80000305176</ele>
        <time>2014-03-05T13:19:51.000Z</time>
      </trkpt>
      <trkpt lat="48.70558" lon="1.75555">
        <ele>181</ele>
        <time>2014-03-05T13:19:58.000Z</time>
      </trkpt>
      <trkpt lat="48.70559" lon="1.75556">
        <ele>181</ele>
        <time>2014-03-05T13:19:59.000Z</time>
      </trkpt>
      <trkpt lat="48.70565" lon="1.75562">
        <ele>181.39999389648</ele>
        <time>2014-03-05T13:20:04.000Z</time>
      </trkpt>
      <trkpt lat="48.70565" lon="1.75565">
        <ele>181.60000610352</ele>
        <time>2014-03-05T13:20:06.000Z</time>
      </trkpt>
      <trkpt lat="48.70569" lon="1.75568">
        <ele>181.80000305176</ele>
        <time>2014-03-05T13:20:09.000Z</time>
      </trkpt>
      <trkpt lat="48.70577" lon="1.75576">
        <ele>182.39999389648</ele>
        <time>2014-03-05T13:20:16.000Z</time>
      </trkpt>
      <trkpt lat="48.70582" lon="1.75582">
        <ele>182.80000305176</ele>
        <time>2014-03-05T13:20:21.000Z</time>
      </trkpt>
      <trkpt lat="48.70588" lon="1.75589">
        <ele>182.60000610352</ele>
        <time>2014-03-05T13:20:26.000Z</time>
      </trkpt>
      <trkpt lat="48.70594" lon="1.75596">
        <ele>182.19999694824</ele>
        <time>2014-03-05T13:20:31.000Z</time>
      </trkpt>
      <trkpt lat="48.70601" lon="1.75609">
        <ele>181.80000305176</ele>
        <time>2014-03-05T13:20:37.000Z</time>
      </trkpt>
      <trkpt lat="48.70605" lon="1.75615">
        <ele>181.60000610352</ele>
        <time>2014-03-05T13:20:42.000Z</time>
      </trkpt>
      <trkpt lat="48.70611" lon="1.75623">
        <ele>181</ele>
        <time>2014-03-05T13:20:47.000Z</time>
      </trkpt>
      <trkpt lat="48.70617" lon="1.75631">
        <ele>180.39999389648</ele>
        <time>2014-03-05T13:20:53.000Z</time>
      </trkpt>
      <trkpt lat="48.70623" lon="1.75638">
        <ele>179.80000305176</ele>
        <time>2014-03-05T13:21:00.000Z</time>
      </trkpt>
      <trkpt lat="48.70625" lon="1.75641">
        <ele>179.60000610352</ele>
        <time>2014-03-05T13:21:02.000Z</time>
      </trkpt>
      <trkpt lat="48.70636" lon="1.75647">
        <ele>178.60000610352</ele>
        <time>2014-03-05T13:21:08.000Z</time>
      </trkpt>
      <trkpt lat="48.70637" lon="1.75648">
        <ele>178.39999389648</ele>
        <time>2014-03-05T13:21:13.000Z</time>
      </trkpt>
      <trkpt lat="48.70638" lon="1.75651">
        <ele>178.39999389648</ele>
        <time>2014-03-05T13:21:17.000Z</time>
      </trkpt>
      <trkpt lat="48.70641" lon="1.75659">
        <ele>178</ele>
        <time>2014-03-05T13:21:23.000Z</time>
      </trkpt>
      <trkpt lat="48.70642" lon="1.75662">
        <ele>178</ele>
        <time>2014-03-05T13:21:25.000Z</time>
      </trkpt>
    </trkseg>
  </trk>
</gpx>